GFSCGP_250_spd_000.txt.gz
Wind_Speed
11 8 10 11 13 15 15 15 15 16 17 16 18 21 23 26 29 32 34 37 39 36 34 34 35 38 39 37 37 39 43 47 45 45 49 52 54 56 58 61 62 64 67 70
12 12 11 13 16 17 15 13 13 14 16 20 22 26 30 30 31 29 30 30 31 32 33 35 38 41 42 42 44 46 46 45 47 50 54 57 59 61 63 65 68 70 71 71
11 12 13 13 14 14 13 10 11 14 18 21 23 23 21 23 25 29 27 28 29 32 34 39 43 46 48 48 44 44 48 52 53 55 57 59 62 66 68 69 71 71 71 73
14 15 15 14 14 16 17 16 15 16 19 19 22 23 24 26 28 27 27 27 29 33 41 44 47 47 43 44 47 50 53 53 54 57 60 63 65 67 69 69 73 75 77 80
16 19 20 19 19 17 17 18 19 20 20 22 24 27 29 29 26 27 28 29 35 43 44 44 40 43 47 49 52 52 53 56 58 60 63 66 68 70 73 76 78 82 85 87
17 20 23 24 23 22 20 21 22 23 24 24 25 27 26 29 28 29 29 36 43 44 42 41 48 49 51 51 53 56 58 62 66 67 72 74 75 79 84 87 91 94 96 96
13 19 23 22 24 26 26 24 24 25 26 27 28 30 28 30 30 33 38 43 42 40 44 49 51 52 52 55 59 63 66 70 70 76 80 82 86 89 92 95 99 103 104 107
11 14 16 19 21 22 25 26 26 27 27 29 32 31 29 32 33 36 39 41 41 45 50 50 51 54 57 61 62 64 68 70 74 79 84 87 92 95 98 101 106 109 113 117
11 12 12 15 18 19 21 24 27 29 29 29 30 31 34 36 36 38 39 41 46 52 54 55 57 60 61 61 63 69 73 76 81 86 90 95 99 103 107 111 113 117 121 126
11 12 12 12 12 14 16 20 24 28 27 27 35 35 37 36 34 37 42 47 50 52 55 57 59 61 61 63 69 74 78 82 87 93 99 102 106 111 113 115 119 124 128 130
7 9 11 12 11 11 11 12 16 20 23 27 31 38 33 31 37 41 46 49 52 54 57 58 63 61 64 71 78 83 86 90 96 101 104 108 112 117 120 125 128 132 133 132
10 12 14 16 16 17 18 19 19 20 25 31 33 40 38 35 41 45 48 51 55 60 64 65 66 70 75 81 86 90 94 99 104 107 111 115 119 125 129 131 134 134 131 124
21 23 23 21 23 23 22 23 23 26 28 32 34 39 38 42 49 50 54 57 59 63 67 70 74 77 82 87 91 95 100 105 109 114 118 123 128 131 134 134 132 127 119 110
26 27 28 27 27 26 26 24 26 27 27 30 35 38 42 45 48 53 57 60 61 66 70 75 79 83 88 92 97 102 108 112 118 123 126 129 133 136 135 126 118 111 106 105
27 30 32 32 32 35 34 30 31 32 35 36 39 41 44 49 54 62 63 65 67 72 77 82 85 88 94 98 103 109 114 118 124 129 131 130 130 124 118 110 105 104 103 101
28 32 36 40 35 37 36 33 34 38 36 38 42 47 53 54 61 64 65 68 72 78 82 85 90 96 100 103 109 116 120 128 135 135 128 124 116 110 106 106 105 102 98 93
34 36 38 41 40 43 37 39 40 41 42 45 49 54 57 62 66 68 70 76 80 83 86 92 96 101 105 111 115 122 132 132 129 122 118 112 107 107 106 105 100 94 88 83
40 42 41 40 39 44 38 41 43 47 49 52 56 60 64 69 71 72 76 82 84 86 93 97 102 107 113 118 126 131 132 128 119 115 109 106 107 105 102 97 91 85 80 76
44 45 40 37 37 44 44 45 47 49 56 60 62 66 72 74 77 82 83 87 96 98 100 105 112 114 121 129 129 129 125 115 111 107 106 105 103 99 93 86 80 76 74 71
49 47 44 42 43 45 43 47 51 55 58 63 68 73 75 77 80 83 90 97 102 106 109 113 118 124 128 130 128 118 111 107 107 105 103 101 96 88 82 78 74 71 69 67
53 51 47 47 46 46 48 52 58 61 64 69 71 74 78 84 88 92 97 100 107 112 116 120 126 130 128 123 111 109 106 105 105 103 98 93 86 80 78 75 69 67 65 64
57 53 50 51 52 52 55 59 62 65 67 71 75 79 84 88 93 100 106 111 115 118 123 127 127 123 119 110 107 107 106 105 103 98 90 84 80 76 73 70 66 64 63 61
58 55 55 53 57 57 60 63 64 68 71 76 80 87 93 98 102 109 113 116 121 127 127 123 119 113 107 107 106 104 104 101 96 90 83 78 75 72 69 66 63 63 61 56
60 59 59 58 63 64 66 69 74 78 80 84 90 96 102 106 111 111 118 123 126 124 119 114 107 104 106 106 105 100 95 91 86 81 77 74 71 69 65 62 61 58 55 51
63 62 62 64 66 70 76 81 83 84 88 94 99 104 108 109 112 121 122 124 119 114 106 104 104 103 104 102 98 94 89 83 79 76 74 71 68 64 62 61 59 53 50 49
66 65 68 70 73 78 80 83 88 91 95 100 106 110 111 116 121 123 121 120 114 109 105 105 105 104 101 97 92 87 81 77 74 72 70 67 64 62 60 59 53 50 46 47

GFSCGP_250_spd_003.txt.gz
Wind_Speed
14 15 15 17 17 18 19 17 15 15 17 19 20 20 20 23 24 25 28 30 33 33 35 36 37 36 35 40 42 46 44 49 47 43 47 53 54 55 56 57 58 63 65 67
12 13 14 14 14 14 13 13 13 15 16 17 20 22 25 26 28 31 32 30 33 33 33 33 34 36 41 46 49 46 42 45 49 51 54 57 57 59 62 65 65 66 68 72
11 13 14 14 15 14 14 16 17 18 18 21 23 25 27 29 27 27 28 31 32 33 34 32 37 42 46 46 41 45 50 52 54 55 56 59 62 64 69 71 71 74 74 75
14 14 15 17 17 18 18 19 20 19 19 21 26 30 31 30 31 30 31 32 33 34 34 37 42 44 44 44 50 54 56 56 56 60 61 65 65 67 70 69 71 76 80 83
14 19 22 21 20 20 21 22 22 23 25 25 26 31 23 31 31 30 31 33 34 37 38 43 46 45 45 52 56 57 56 59 63 66 68 67 68 74 75 77 80 85 90 93
11 13 16 19 22 25 25 24 24 27 29 29 28 32 20 28 25 28 32 33 36 40 43 45 47 46 51 58 59 61 63 64 68 68 67 72 77 79 83 87 91 95 100 103
8 11 12 15 20 23 26 28 29 30 30 30 32 34 27 33 33 30 32 35 39 42 45 46 47 51 57 59 62 66 66 67 67 68 75 80 84 88 92 95 100 103 107 111
5 8 11 12 14 16 20 23 27 31 33 33 35 34 29 34 34 37 41 42 43 44 46 49 52 56 59 61 63 67 69 70 72 77 82 86 91 95 98 102 105 111 115 118
7 7 7 8 8 12 16 19 20 25 29 34 37 36 31 38 39 43 44 43 42 44 49 54 57 60 63 64 67 69 72 76 79 83 89 93 95 99 104 108 113 116 121 126
5 8 11 12 10 9 11 13 17 20 24 29 33 38 32 38 37 39 39 43 46 48 53 58 62 64 65 67 72 75 79 83 88 91 93 100 103 106 110 115 121 125 129 134
8 9 11 13 13 14 15 17 18 19 22 25 29 36 34 36 40 42 43 45 48 54 54 59 63 67 68 73 77 81 85 90 94 96 102 105 109 115 118 123 127 132 137 139
11 13 16 18 19 18 20 21 24 28 31 34 36 41 40 40 38 41 46 49 52 54 59 64 66 68 73 77 83 87 92 94 100 104 108 113 117 122 126 130 136 139 138 132
17 19 21 21 23 24 24 23 25 27 30 34 34 41 37 40 44 47 47 52 53 57 66 70 73 77 80 84 89 94 97 103 108 112 116 121 125 130 134 135 138 131 121 116
22 24 25 27 26 27 27 29 33 34 35 39 38 39 44 45 45 48 54 56 60 66 72 75 77 81 85 89 92 101 104 108 114 118 123 129 134 136 135 133 126 120 116 112
26 29 30 32 32 35 36 38 38 38 39 40 42 43 45 46 50 53 57 62 66 73 77 79 83 87 91 96 103 108 113 115 120 126 129 133 136 131 128 123 119 114 111 109
30 31 35 39 39 41 41 40 39 41 40 42 45 47 49 51 54 58 61 68 72 76 80 85 88 92 98 103 108 114 120 128 133 135 135 131 125 120 117 115 111 109 106 101
33 36 38 41 43 44 46 44 39 39 39 44 44 47 50 54 59 63 67 73 75 79 82 86 93 100 107 112 119 123 132 137 135 129 122 115 111 111 110 108 106 102 96 88
40 41 41 44 45 48 45 46 45 46 45 44 47 50 55 60 64 68 71 74 79 83 89 97 104 109 115 120 122 129 135 127 118 112 109 109 108 106 105 101 95 89 84 79
45 46 47 48 49 51 50 48 47 49 49 49 53 55 60 64 70 76 77 80 85 91 98 104 112 115 118 124 127 129 119 113 109 107 108 107 104 101 97 92 84 80 75 72
51 52 53 51 51 52 50 48 51 49 51 53 58 62 66 71 74 80 84 90 95 101 107 111 114 120 125 126 123 117 112 109 107 104 104 103 101 97 90 84 78 75 70 65
55 54 57 52 54 53 52 53 56 56 56 61 65 70 73 77 81 85 89 95 100 106 111 117 123 126 126 123 117 112 112 109 108 103 100 96 92 86 80 75 72 68 65 62
56 56 58 58 60 56 54 54 56 59 62 65 70 74 79 82 87 92 95 103 107 113 121 124 126 124 120 117 111 111 112 110 105 99 95 88 83 77 73 69 66 63 62 60
62 60 61 61 65 61 59 57 60 64 67 71 75 79 84 90 94 100 103 109 118 123 123 124 122 121 117 111 112 108 108 104 99 92 86 80 76 72 68 65 63 61 61 57
68 64 61 62 66 63 65 65 67 71 76 79 84 89 92 96 101 107 110 119 120 124 123 122 121 118 112 110 108 105 101 96 89 83 78 74 70 68 64 62 60 57 55 51
73 68 65 64 66 66 71 71 76 78 84 88 92 94 100 105 109 114 119 123 126 127 124 122 121 115 113 109 104 99 92 85 79 76 73 69 66 64 61 59 57 51 49 47
75 68 65 64 68 70 73 78 81 85 89 93 96 102 107 111 114 118 121 127 128 126 125 122 116 112 109 106 98 91 84 77 74 72 69 65 62 60 58 55 51 50 47 45

GFSCGP_250_spd_006.txt.gz
Wind_Speed
25 26 29 28 29 32 36 39 37 36 36 33 28 25 22 22 24 24 25 26 29 27 29 31 37 32 34 33 34 39 44 50 47 45 51 58 60 60 58 60 62 65 67 68
21 25 25 26 26 27 26 24 24 25 24 24 22 20 23 23 22 24 26 30 33 31 31 34 36 38 37 39 43 44 45 50 52 54 58 60 62 63 64 66 68 68 67 69
13 16 17 18 19 20 22 22 22 23 24 25 24 25 24 24 25 27 31 35 35 36 37 36 38 40 40 44 48 49 49 51 57 60 61 64 66 68 69 71 72 68 74 78
11 13 15 17 20 20 21 21 22 23 24 22 27 28 23 28 29 31 35 38 38 37 41 39 42 44 46 50 52 53 53 56 64 65 63 66 70 72 74 74 74 78 83 86
11 14 17 18 19 19 22 22 22 22 24 25 28 34 20 27 29 35 38 38 40 39 37 38 42 44 48 52 55 56 57 62 66 67 69 71 71 72 76 79 81 84 90 94
8 12 14 17 20 23 23 23 24 25 27 30 32 37 26 30 28 32 38 37 38 38 40 42 45 46 51 55 56 60 65 67 68 70 73 75 78 83 86 89 91 94 98 101
4 6 8 10 14 18 22 24 25 28 30 34 35 39 25 35 37 27 33 35 41 42 44 48 50 50 50 55 60 65 69 72 74 73 75 81 85 89 92 94 98 102 104 110
2 4 5 7 8 9 10 14 17 22 26 28 35 39 29 34 41 36 36 36 38 45 49 50 49 51 54 57 60 64 71 75 77 80 81 84 89 94 98 102 107 109 114 119
7 7 7 9 9 9 9 9 12 15 19 23 28 29 25 33 38 40 40 41 42 44 46 51 53 53 58 59 63 69 73 79 83 86 90 93 97 101 106 110 116 120 124 128
3 5 7 9 11 13 15 17 19 21 23 26 27 28 25 28 29 33 42 44 46 45 48 51 54 57 60 62 69 76 80 83 88 92 97 100 103 109 114 122 127 130 131 134
4 6 9 12 13 15 17 21 24 24 27 29 32 39 37 36 37 39 41 44 45 50 49 52 57 62 64 70 77 82 86 87 92 96 100 107 113 120 125 131 133 131 133 137
8 10 11 13 15 16 17 19 23 27 30 32 36 42 41 42 43 43 45 48 53 54 55 59 63 66 71 76 82 84 88 92 98 103 109 118 123 128 132 133 135 133 133 128
14 16 16 18 22 26 28 31 32 36 38 39 38 44 44 45 45 45 47 50 51 55 58 63 69 73 79 85 87 91 94 99 105 111 116 127 128 133 136 137 132 125 121 118
19 21 22 22 24 25 28 31 34 35 40 45 40 42 48 46 45 49 51 50 55 60 65 69 74 80 84 89 92 97 103 109 114 118 122 133 134 136 136 127 119 116 115 116
23 25 26 27 29 32 34 36 38 41 43 42 45 43 42 46 49 50 52 53 56 62 67 73 78 84 88 92 98 103 111 117 123 129 130 132 130 124 119 116 114 114 113 112
26 29 32 32 34 36 40 41 44 46 47 46 46 48 49 51 52 50 56 60 64 69 75 79 83 87 92 99 104 110 116 126 127 132 132 127 123 109 107 106 105 104 102 99
31 34 37 41 43 44 45 46 48 51 51 49 50 50 52 51 52 55 61 66 70 74 79 84 88 94 99 105 112 114 122 130 134 130 125 122 114 112 109 105 99 93 89 85
37 40 42 44 47 51 50 52 51 51 52 54 52 52 51 53 57 59 61 66 72 78 83 89 94 100 105 110 116 121 128 132 130 125 122 114 109 105 102 98 93 87 82 79
45 47 48 49 50 54 54 52 56 52 55 54 54 52 54 54 58 65 67 74 79 85 91 95 103 106 109 115 123 126 129 128 122 118 115 110 104 99 94 90 86 82 78 75
48 50 52 54 53 55 56 54 57 54 57 55 57 58 59 62 66 73 77 83 89 93 98 103 107 112 118 124 127 129 126 121 118 111 107 102 100 94 88 83 79 77 73 68
53 54 55 54 55 56 57 59 61 60 60 60 59 61 65 68 73 78 83 87 91 96 103 108 114 117 123 127 130 131 121 118 112 103 99 96 91 86 82 78 74 71 66 63
60 64 62 61 62 60 60 60 62 65 63 61 62 65 68 73 80 85 89 92 96 102 108 112 118 123 127 129 132 124 116 109 104 99 94 89 85 80 76 73 69 65 62 59
70 69 64 62 64 66 63 63 63 64 63 63 66 73 76 81 85 89 92 96 103 107 111 117 121 124 129 131 126 118 109 102 97 93 88 82 77 74 71 68 64 62 58 56
67 68 63 59 63 64 66 66 61 64 66 68 71 77 82 86 88 93 98 103 106 110 116 122 124 126 131 128 120 111 105 98 91 86 80 77 73 71 67 64 62 59 55 52
70 69 68 63 62 64 64 65 67 69 71 75 80 84 87 90 94 98 103 107 110 115 121 124 125 129 127 120 113 106 100 94 87 81 76 74 71 67 64 61 60 57 53 50
73 70 68 63 61 66 66 67 70 76 79 84 87 91 94 99 101 103 107 111 117 120 125 123 127 128 121 115 107 99 95 89 82 78 74 71 68 65 62 60 57 54 52 49

GFSCGP_250_spd_009.txt.gz
Wind_Speed
27 31 33 34 35 35 37 38 36 38 35 37 37 36 42 40 40 41 41 41 38 34 32 32 34 37 34 31 34 35 40 44 47 51 58 61 58 59 61 66 66 65 66 68
21 22 22 21 23 25 26 27 28 30 32 34 36 34 40 38 35 34 37 36 35 35 33 31 31 35 35 39 43 40 46 51 54 57 60 60 63 65 69 70 70 71 73 75
15 17 20 25 26 26 27 27 26 29 30 30 33 30 28 33 33 31 34 36 34 34 33 33 37 39 34 41 45 49 52 54 56 59 59 62 66 68 70 73 75 78 81 82
11 13 14 17 15 16 19 19 22 24 26 28 32 26 28 30 32 30 36 36 36 35 36 41 41 38 42 45 48 51 54 59 60 56 60 64 67 70 75 77 80 82 85 89
5 7 10 12 11 16 19 19 22 24 26 29 34 27 27 25 24 30 40 35 39 35 33 36 41 47 50 51 53 56 59 62 61 61 64 67 72 76 80 83 85 88 92 96
8 9 13 14 15 17 21 22 22 22 25 28 31 35 29 21 24 26 33 41 46 45 40 35 37 44 52 56 58 58 58 60 63 67 69 72 80 85 88 91 93 96 100 106
6 5 6 7 7 10 13 15 20 23 25 27 31 34 28 30 30 30 33 34 37 37 39 39 40 43 49 53 57 60 62 65 68 70 71 78 84 88 91 94 97 102 108 112
5 6 5 3 2 2 4 7 9 12 17 22 23 25 28 29 28 28 31 33 34 40 43 42 42 45 46 50 54 56 61 67 73 78 83 88 93 97 101 106 108 111 115 122
10 9 8 6 7 7 9 10 12 15 18 21 18 22 23 27 29 31 33 34 36 40 45 46 48 49 53 54 57 62 67 72 78 83 89 94 99 102 106 112 116 119 121 129
5 4 3 4 7 10 11 13 15 18 21 27 27 26 32 31 35 36 38 41 43 43 44 49 52 54 56 58 63 68 74 79 84 87 92 98 103 106 111 117 123 125 129 135
3 1 2 4 7 9 12 16 15 16 20 26 35 29 32 36 37 39 41 45 49 50 50 51 55 58 60 64 68 73 77 81 86 92 98 102 108 113 119 125 130 132 137 138
5 6 8 10 10 13 15 17 18 23 26 30 36 39 37 39 38 41 44 47 49 51 54 56 56 59 63 67 72 77 82 87 93 97 103 110 114 120 124 132 135 137 138 129
9 10 14 16 19 19 19 23 27 32 34 34 36 40 40 45 43 43 44 46 49 54 57 58 60 63 69 72 78 84 90 94 99 102 109 116 123 127 129 130 126 124 120 116
13 14 16 19 21 22 24 27 28 30 35 42 42 44 45 45 46 45 47 49 52 52 55 59 64 67 72 76 82 88 95 99 104 111 115 122 128 129 130 128 121 115 113 108
17 18 20 22 24 28 31 35 37 39 40 43 47 47 51 49 46 49 51 52 54 54 58 62 66 70 75 81 88 93 99 106 113 119 125 126 129 129 129 121 115 114 109 103
22 24 25 28 32 35 38 41 43 45 47 51 50 52 52 54 52 52 54 56 56 57 60 65 71 76 83 89 93 99 106 111 118 124 129 132 132 133 124 117 113 108 100 93
26 29 32 35 39 42 45 48 49 51 52 53 53 53 55 55 55 54 54 57 60 64 68 73 80 85 89 93 100 105 111 117 120 127 132 132 130 122 117 112 105 97 90 86
31 34 38 41 43 43 44 49 51 52 54 57 57 57 57 59 58 57 57 59 64 67 72 81 86 90 95 102 105 109 115 122 125 131 129 130 122 115 109 104 96 90 85 82
37 37 38 42 46 49 49 55 60 58 59 61 62 61 61 62 62 59 57 62 68 73 80 84 90 97 103 105 109 114 120 128 131 132 128 128 119 107 98 93 86 82 78 77
35 40 45 48 52 55 56 61 61 57 59 61 64 64 65 64 62 63 65 69 76 82 87 92 98 104 104 109 115 121 126 132 131 129 128 117 105 97 90 85 79 77 75 72
44 47 52 55 58 59 62 57 58 58 58 60 60 62 61 61 62 65 70 76 82 87 91 97 103 106 110 116 122 126 131 132 129 128 118 106 98 90 84 79 76 74 71 67
52 56 60 61 63 63 61 59 60 61 59 58 59 58 60 62 68 74 78 84 90 93 98 103 107 111 116 122 128 130 131 130 127 116 108 99 92 86 79 75 73 69 66 63
58 62 66 68 68 68 62 62 60 59 62 61 60 62 65 69 76 80 85 91 95 99 105 107 113 117 121 127 131 130 129 130 118 108 99 93 87 80 76 72 69 65 63 61
64 68 71 71 71 74 68 61 59 61 61 61 63 68 72 78 83 88 94 98 104 107 110 116 119 122 124 129 130 131 130 123 111 101 93 88 81 77 72 68 65 63 60 57
71 75 76 73 76 74 69 65 64 65 65 67 71 76 81 85 90 95 100 105 108 112 118 121 124 126 128 130 131 130 125 114 102 95 89 82 77 73 69 66 63 61 58 54
73 77 79 77 80 78 71 70 72 73 73 76 79 82 87 93 98 103 107 111 113 118 120 122 125 128 129 131 130 122 113 103 96 90 83 78 73 69 66 64 61 57 55 52

GFSCGP_250_spd_012.txt.gz
Wind_Speed
26 27 29 30 31 32 35 40 46 44 47 46 45 48 50 45 45 40 40 42 40 40 40 39 41 45 44 40 37 46 50 51 52 53 56 58 61 64 67 68 66 65 67 69
21 21 24 26 29 30 33 36 39 35 36 34 31 35 38 34 36 36 36 39 39 40 41 39 42 46 40 43 46 51 50 48 52 55 58 62 65 68 72 69 66 70 73 76
15 16 19 19 21 22 20 24 31 29 33 32 31 33 34 33 31 32 36 39 42 40 40 41 43 41 39 42 45 46 49 53 54 57 61 65 70 70 69 72 75 78 81 84
14 16 14 16 21 21 22 27 28 28 28 27 26 24 25 26 28 31 33 35 38 37 38 38 39 40 41 41 44 49 53 56 58 62 65 65 67 69 71 74 80 83 87 90
13 13 14 17 20 18 18 19 20 21 24 26 24 22 23 27 29 29 33 36 40 41 44 45 43 43 43 46 49 53 54 57 59 60 61 63 66 69 74 80 86 92 95 98
12 12 12 13 14 14 17 18 21 23 25 24 21 20 19 26 30 32 36 37 37 40 42 44 47 49 49 51 52 53 55 58 59 62 64 66 71 76 81 86 91 95 100 103
6 6 7 7 8 10 12 13 14 16 18 13 16 13 13 16 22 26 27 28 28 30 33 36 39 43 48 54 56 56 56 59 63 65 69 72 77 81 85 91 96 101 106 110
7 7 6 5 5 3 1 1 2 5 6 7 10 14 16 17 18 20 24 29 34 35 39 40 39 45 48 52 56 58 61 65 69 73 76 80 83 87 92 97 102 107 113 119
14 12 11 8 5 3 3 5 7 9 11 12 13 16 18 20 24 26 29 34 36 39 42 42 44 47 52 55 58 61 65 68 70 74 78 82 87 93 98 104 110 116 121 126
10 8 5 4 3 3 4 6 8 11 13 13 15 17 20 23 26 28 30 34 36 37 43 46 46 47 50 55 58 62 65 68 73 78 82 88 93 99 107 112 115 120 125 129
7 5 2 1 4 8 9 12 15 18 22 23 22 25 28 29 34 37 38 39 41 41 42 46 49 52 56 59 61 64 67 72 78 82 88 95 102 107 112 116 121 124 129 130
9 7 7 7 9 12 15 16 19 20 24 29 31 32 36 38 39 40 43 44 45 46 47 48 50 53 55 57 62 66 70 77 82 88 95 100 107 112 115 121 125 129 128 123
11 12 12 12 13 13 15 20 23 26 29 32 35 36 39 42 43 45 48 48 48 49 51 53 53 55 57 61 65 72 78 83 91 95 102 107 112 116 121 126 129 127 126 125
14 15 15 16 17 17 19 24 29 32 36 39 41 46 45 45 46 48 51 53 56 57 58 57 58 58 61 66 71 77 83 90 95 102 108 112 115 121 127 127 127 126 123 119
16 17 17 17 20 22 26 30 32 36 38 41 45 48 50 51 52 52 53 54 56 58 60 60 60 61 66 72 77 83 89 94 102 108 112 116 121 125 124 126 123 122 117 110
18 19 20 21 23 28 32 35 37 40 44 47 51 55 55 55 55 55 57 58 58 59 58 57 60 65 71 77 84 90 95 102 107 113 121 124 127 125 126 123 121 115 105 101
20 21 23 26 29 33 35 38 40 44 49 52 57 58 56 54 56 59 59 59 59 58 58 62 67 72 78 85 91 97 102 108 115 121 125 128 129 125 121 120 113 105 97 92
25 26 28 30 32 33 37 43 46 50 55 56 57 58 57 57 58 58 58 58 59 59 63 69 75 80 87 93 99 104 110 115 119 123 128 128 128 123 119 113 104 97 89 82
29 31 32 32 36 39 44 48 51 55 60 59 63 60 58 59 59 58 57 59 63 66 70 76 81 87 94 99 105 109 116 119 122 129 128 128 126 120 115 104 94 87 81 78
29 30 34 40 43 44 49 53 56 60 63 64 68 64 63 62 60 61 60 62 67 72 77 83 89 95 100 106 110 115 120 124 131 129 127 125 121 113 107 96 88 81 78 74
36 39 43 47 50 52 55 58 62 64 64 64 68 65 62 63 64 64 66 70 75 80 85 91 95 102 106 111 115 121 126 130 130 127 125 124 119 107 98 89 82 78 74 70
40 44 50 53 57 57 61 64 66 67 68 69 71 67 65 66 68 70 74 78 81 86 91 96 101 107 111 116 121 128 129 131 131 129 125 122 112 101 92 85 79 75 70 67
48 52 54 55 58 63 68 70 71 71 72 73 74 69 69 71 72 75 78 82 87 91 97 101 106 111 117 121 127 132 132 133 129 127 123 114 105 94 87 80 76 70 67 64
52 55 58 63 67 71 71 72 73 73 75 77 76 72 72 75 76 81 84 88 93 98 102 106 111 116 122 126 133 135 133 128 127 123 115 106 97 88 81 76 71 67 64 60
60 63 68 68 72 70 71 75 74 77 79 80 76 74 76 79 82 86 88 93 98 102 106 112 117 121 126 132 134 131 128 126 122 114 105 96 89 82 76 72 67 64 61 59
67 72 75 73 74 73 76 77 77 80 83 79 77 78 83 84 87 89 94 98 104 108 113 118 123 127 132 134 130 125 124 117 112 103 95 88 82 77 72 67 64 60 59 57

GFSCGP_250_spd_015.txt.gz
Wind_Speed
30 29 27 28 30 34 36 37 36 36 35 39 42 42 43 43 46 47 47 46 45 44 45 46 45 43 41 48 35 40 46 55 59 61 65 68 74 77 74 71 72 74 75 76
24 25 24 24 27 28 32 31 30 29 30 34 37 39 39 36 34 36 36 39 42 43 44 45 46 45 42 39 45 49 54 57 59 64 69 72 72 73 73 75 77 77 76 77
23 24 22 22 23 22 24 25 26 25 27 29 27 28 30 31 33 36 37 36 37 37 39 41 43 46 47 50 54 56 56 56 58 58 62 66 69 72 74 74 75 77 80 81
17 16 16 15 17 21 23 25 24 21 22 23 23 28 29 29 29 30 31 30 32 33 35 38 43 46 46 47 46 49 52 53 54 58 62 65 69 72 73 75 79 80 81 86
16 18 17 18 18 18 21 21 23 23 18 18 17 18 21 22 24 27 30 34 35 38 40 44 45 46 45 46 48 50 51 54 58 61 65 68 70 72 77 79 82 84 87 91
15 17 16 15 16 17 17 18 19 20 19 17 17 15 19 21 24 26 28 31 33 34 35 36 38 39 39 40 47 51 53 56 60 62 65 69 72 74 77 79 83 88 94 98
16 15 16 15 15 14 13 12 10 6 5 4 4 7 10 12 15 18 23 27 30 33 36 39 42 41 42 47 50 53 55 58 61 64 67 70 73 76 80 85 91 94 98 102
13 12 13 11 8 6 5 3 2 1 3 5 6 9 11 13 16 20 25 28 33 37 40 44 46 49 49 51 52 54 56 59 62 66 69 72 75 79 83 88 94 99 105 109
10 11 10 11 10 8 6 3 1 3 6 9 11 14 16 18 22 26 28 30 32 36 40 43 45 47 49 52 55 58 61 63 65 68 70 75 78 83 87 93 99 106 111 115
16 14 11 9 6 2 1 4 4 7 10 14 16 19 22 24 26 29 32 35 37 39 42 45 47 49 51 54 57 60 62 64 66 68 72 77 82 88 93 101 107 112 118 122
13 12 8 4 2 2 5 8 9 12 15 19 20 22 25 29 32 35 37 39 40 42 44 47 48 51 54 56 57 59 61 64 66 71 75 81 87 93 99 106 111 117 122 123
11 8 6 5 6 7 8 11 14 16 18 21 24 28 29 32 36 40 43 45 47 48 50 50 51 52 55 57 59 61 62 65 70 76 82 88 94 101 107 114 120 125 125 126
10 9 8 10 12 12 13 14 16 21 24 27 29 32 36 39 44 47 50 51 52 53 53 55 54 54 56 57 59 60 64 70 76 83 90 98 104 109 113 120 126 126 124 122
12 14 15 15 16 15 16 18 22 26 29 29 33 37 42 45 49 53 55 55 54 54 56 58 57 56 56 57 60 65 71 78 85 92 99 105 108 114 118 124 128 123 119 116
15 16 18 19 19 18 20 23 27 28 29 33 37 44 46 49 52 55 55 56 56 56 57 58 60 59 60 63 68 74 79 86 93 100 105 109 114 120 125 130 126 123 118 112
17 19 20 21 22 22 25 28 28 29 33 38 42 46 50 52 53 57 57 56 56 56 57 58 60 63 66 70 75 81 86 92 100 105 110 115 121 126 132 129 125 120 115 106
21 21 21 23 22 25 32 31 29 34 40 44 45 51 54 54 55 59 60 59 59 59 60 60 62 65 70 76 80 85 93 100 105 110 115 121 125 132 133 127 123 119 112 104
24 24 25 27 28 28 33 34 35 39 46 49 52 56 59 60 58 61 63 62 61 60 61 63 67 72 77 80 85 93 99 106 111 115 121 126 131 132 126 124 118 112 105 96
27 29 29 30 32 30 36 42 43 45 50 55 58 61 62 66 63 65 66 63 61 64 67 70 74 79 82 87 93 100 107 112 117 122 129 132 129 124 125 123 116 107 96 89
31 30 30 31 33 35 42 47 51 52 56 60 65 64 65 69 69 72 73 68 69 69 72 76 80 84 88 94 101 107 113 118 123 129 131 128 127 127 124 119 109 98 90 83
30 32 34 37 37 38 47 52 57 58 60 65 69 67 69 73 75 77 77 74 73 73 78 83 86 90 95 101 107 113 119 124 128 133 130 126 128 124 121 110 100 92 84 78
39 39 40 41 45 46 54 57 58 62 66 69 69 70 73 77 79 80 80 78 78 81 87 89 92 96 103 109 113 120 125 128 133 130 126 127 126 121 112 102 95 86 79 73
41 44 45 52 57 58 60 61 63 65 69 71 72 73 79 81 82 83 84 83 84 88 91 92 96 103 109 114 119 125 128 132 132 128 127 126 122 115 103 96 86 79 74 69
46 52 57 60 63 66 65 65 68 71 74 74 75 78 84 84 84 85 85 84 87 91 94 98 104 109 113 120 127 128 130 131 128 128 127 122 117 107 98 88 80 74 69 65
55 62 65 62 65 66 69 72 74 76 76 76 78 84 85 82 80 83 85 88 92 96 100 105 110 114 121 125 130 129 128 125 126 126 122 117 108 99 90 81 74 70 66 62
63 70 70 67 71 72 73 75 77 77 78 80 83 84 80 81 84 87 90 94 97 102 106 112 115 120 126 129 127 125 124 123 122 119 115 109 99 90 82 75 70 66 63 60

GFSCGP_250_spd_018.txt.gz
Wind_Speed
24 26 29 29 30 30 29 28 29 32 35 36 38 41 41 41 43 44 45 46 47 49 48 44 45 43 45 46 45 39 45 49 53 59 70 68 68 72 76 77 79 84 84 81
26 27 27 27 28 30 30 28 30 32 33 33 33 35 37 37 38 39 39 40 40 38 37 37 37 40 42 32 34 40 45 51 56 60 64 70 74 77 78 78 81 81 80 81
25 25 25 26 27 25 22 22 26 29 29 26 26 28 30 32 33 32 32 32 33 34 33 33 33 36 40 44 47 52 56 59 61 66 67 67 69 70 73 75 76 78 81 82
20 21 23 22 21 22 21 19 19 19 18 20 22 23 24 27 29 29 29 27 27 29 31 35 37 39 41 44 50 53 54 56 60 63 64 65 67 69 71 74 76 79 81 84
16 18 21 22 20 17 18 18 16 15 15 15 17 17 20 22 24 23 24 28 30 31 30 30 32 32 35 38 41 44 48 52 56 58 61 64 67 70 73 75 77 80 83 85
18 18 17 15 15 14 12 12 12 10 11 15 21 22 25 22 21 22 23 22 21 24 27 30 33 35 38 41 45 49 51 53 56 59 62 64 67 69 72 75 77 78 81 85
16 14 15 15 12 10 9 9 11 13 12 15 18 19 19 16 16 18 20 23 26 28 30 33 36 39 42 45 49 53 55 57 60 61 62 64 67 70 72 73 77 82 87 91
11 12 14 14 13 11 11 10 9 8 7 6 6 9 12 15 18 20 24 26 29 32 35 39 41 44 46 48 50 52 55 58 59 60 62 64 67 70 73 77 82 87 92 98
15 16 13 12 11 11 12 9 6 5 5 5 7 10 13 17 21 25 29 32 35 38 40 43 45 47 50 52 54 56 57 57 59 62 65 68 70 72 76 81 87 93 101 107
15 15 15 15 14 11 8 4 3 5 7 11 14 17 21 25 26 27 30 33 37 40 45 48 51 54 56 57 59 61 60 60 63 65 65 67 69 74 80 87 94 102 108 108
16 17 15 12 9 5 3 4 6 8 10 13 16 17 19 23 26 30 36 40 43 46 48 51 51 53 56 58 59 58 58 59 61 63 66 70 75 81 87 93 100 107 111 114
15 12 10 8 5 5 6 7 9 11 14 16 20 20 24 27 32 36 40 44 46 48 50 50 51 52 54 56 57 57 59 60 63 67 71 77 82 87 95 101 107 113 116 118
14 11 7 6 8 10 12 13 13 15 18 21 21 25 27 32 37 41 44 44 48 51 52 51 50 51 53 54 57 60 62 64 68 72 78 83 89 95 103 108 115 119 120 118
11 9 9 10 13 15 16 16 17 19 22 24 24 27 32 38 40 45 46 49 49 53 55 56 56 55 56 57 60 63 65 69 73 78 83 89 98 104 110 117 121 121 124 120
11 11 13 15 17 18 19 21 23 25 27 27 29 33 36 40 46 50 53 54 53 53 59 60 59 60 59 60 62 65 70 75 80 86 92 99 106 110 119 124 125 127 123 122
15 17 18 18 19 20 22 26 26 30 31 30 33 39 42 43 48 54 56 57 60 61 63 65 66 65 63 63 66 72 78 83 88 93 99 107 111 118 124 125 126 121 123 121
20 20 20 22 21 22 28 30 31 33 32 35 39 43 46 51 56 60 61 62 65 68 71 72 73 70 68 69 74 81 86 90 95 101 107 111 117 124 127 127 124 123 120 115
24 25 25 27 27 24 33 36 35 32 34 40 45 46 52 55 58 63 66 66 68 71 75 75 76 75 74 77 82 87 91 95 102 107 113 117 123 126 127 125 125 123 118 110
28 28 28 30 33 29 35 40 40 34 38 48 51 56 58 59 63 68 70 71 71 74 79 78 77 75 78 82 87 92 96 102 108 113 118 122 124 125 125 125 123 119 112 103
31 31 34 35 33 31 38 43 42 40 41 53 57 62 63 65 67 72 73 74 74 78 81 80 77 80 84 88 92 97 103 108 113 119 122 124 122 121 123 123 119 114 105 100
35 37 39 40 35 35 42 43 44 48 52 57 63 66 67 69 71 74 76 77 79 82 82 80 82 86 90 94 99 103 109 115 118 122 123 119 118 120 122 120 115 107 101 94
41 42 43 43 44 42 46 45 52 56 59 62 65 68 71 73 75 77 78 81 83 84 83 84 87 92 95 98 102 109 115 117 120 121 118 117 118 119 119 116 111 102 97 89
47 49 49 50 50 51 51 54 57 62 65 68 72 75 76 78 78 79 82 84 84 83 86 89 93 97 100 105 110 114 118 118 119 118 117 117 118 117 115 112 105 98 92 83
52 54 52 52 55 57 58 60 64 67 70 74 77 79 80 80 80 84 85 84 86 88 89 94 98 103 109 112 115 117 117 115 115 115 116 116 115 113 111 107 99 93 85 77
53 58 58 56 59 59 63 68 70 73 77 81 81 81 81 82 85 86 85 86 88 91 96 101 105 109 114 118 119 117 115 114 113 114 115 113 112 110 107 101 95 87 79 73
62 65 62 60 65 65 69 74 77 79 82 84 83 84 85 86 87 86 86 90 93 97 102 107 112 114 118 119 117 114 113 111 114 112 112 111 109 105 101 96 89 81 74 72

GFSCGP_250_spd_024.txt.gz
Wind_Speed
37 32 28 27 27 23 22 23 28 29 27 25 23 23 23 23 25 29 31 33 36 38 41 43 43 43 44 45 46 47 46 44 43 44 50 57 58 66 65 67 71 77 81 84
33 30 28 26 27 24 23 22 23 22 24 24 25 27 28 30 31 32 33 35 36 37 39 40 39 39 39 40 39 37 36 38 40 42 48 52 56 59 66 72 77 81 84 86
28 28 25 25 26 24 24 23 21 22 24 25 26 27 29 30 30 29 29 31 32 33 33 34 33 34 35 35 36 36 37 39 41 43 46 50 55 59 63 66 69 73 76 79
26 26 26 26 26 26 26 25 26 26 27 28 27 26 27 25 24 24 25 26 27 28 28 28 27 26 26 27 29 33 36 39 43 47 51 54 58 61 66 69 72 75 77 79
25 24 24 24 24 26 27 27 27 25 23 22 23 23 22 22 19 19 20 22 22 20 19 17 18 22 25 30 34 37 41 44 47 51 55 59 62 66 68 71 73 74 75 75
24 22 23 24 25 25 24 23 22 21 20 22 20 19 17 18 19 19 17 13 11 13 15 19 24 28 31 34 37 40 44 48 52 55 58 61 64 65 66 67 68 67 67 67
21 20 19 18 19 20 20 19 18 20 19 16 14 16 16 11 8 6 7 10 13 17 22 25 27 30 33 36 39 41 44 46 49 51 54 57 59 62 64 64 65 66 68 71
21 21 20 20 18 17 18 20 19 16 15 14 12 8 5 4 5 7 10 14 17 18 21 24 28 31 35 38 40 42 45 47 50 52 54 56 59 61 63 64 66 68 71 75
21 20 17 17 18 19 19 19 17 17 15 13 9 6 5 6 9 12 15 15 16 19 23 27 29 33 37 39 41 44 46 49 51 53 56 59 61 62 63 64 67 71 76 81
16 18 19 21 21 20 17 14 16 15 11 9 6 6 9 12 14 16 16 17 20 23 24 27 32 34 39 42 45 48 51 54 55 58 60 59 59 60 62 65 70 76 82 87
15 16 16 17 16 15 16 16 14 12 10 10 11 12 14 17 18 19 20 22 25 27 30 36 41 44 48 50 54 56 58 60 61 63 66 66 64 64 67 72 79 85 89 94
16 17 17 17 20 20 19 15 13 12 14 15 16 17 18 19 22 23 25 27 29 32 33 39 44 48 52 54 59 63 65 66 65 66 68 68 67 69 74 79 86 92 96 100
18 20 23 22 20 17 15 15 15 16 18 19 21 22 22 23 25 28 29 31 34 38 40 45 48 52 56 60 64 67 70 70 70 70 71 69 70 75 80 87 93 98 101 106
21 22 21 18 17 17 15 15 17 20 21 22 25 26 26 28 32 33 34 35 38 41 44 50 52 56 61 64 68 71 74 72 73 74 75 74 77 81 87 93 99 103 106 109
22 21 18 17 15 16 17 18 20 23 24 25 28 30 29 28 35 36 38 40 43 48 50 54 57 61 64 68 72 76 77 76 77 79 79 80 83 88 93 99 104 107 111 110
22 21 20 20 21 19 19 22 24 25 27 29 30 35 35 35 37 39 41 42 47 53 55 58 63 66 70 74 78 79 79 81 83 84 83 85 89 94 100 105 109 112 110 108
25 24 24 24 22 21 25 27 27 29 31 32 34 38 39 42 43 41 41 45 54 58 60 65 70 74 76 79 81 82 84 85 84 84 86 90 95 100 106 110 113 114 109 109
28 28 28 27 25 25 31 32 33 33 35 35 37 40 44 46 45 45 47 53 59 63 67 71 74 77 80 83 85 86 87 84 86 88 92 96 101 106 110 113 113 109 109 108
30 30 30 30 30 30 33 37 39 37 38 38 40 44 44 48 49 52 55 59 64 68 71 75 78 81 84 87 87 87 85 87 91 94 98 102 107 110 113 110 106 106 107 106
33 32 33 34 33 34 38 40 41 42 42 46 48 49 49 51 53 57 60 62 66 71 75 79 83 85 87 86 87 85 88 93 96 99 104 108 112 114 112 108 108 109 109 108
34 34 35 36 37 39 41 42 44 46 47 49 53 56 57 58 57 60 64 67 71 76 81 85 86 85 84 86 86 89 94 99 102 105 109 112 114 110 106 107 109 109 109 108
36 36 38 40 43 42 44 44 47 49 52 56 58 59 56 58 63 65 69 73 79 84 85 83 83 84 84 87 92 96 101 104 107 110 112 111 109 106 106 107 109 109 107 103
39 40 43 45 46 46 48 49 49 50 53 56 58 57 61 65 67 71 75 80 84 83 81 82 82 83 88 93 97 102 106 110 112 112 108 105 105 109 109 108 108 108 102 100
43 45 47 48 49 47 46 47 50 54 57 58 60 65 67 70 74 78 82 83 80 81 82 83 87 91 96 102 105 108 111 113 106 107 104 106 107 106 106 107 104 102 102 102
47 47 46 48 52 51 55 57 59 61 61 64 67 71 74 77 80 83 82 81 81 82 86 91 95 98 103 107 110 113 114 105 104 104 108 108 106 111 108 101 100 104 103 96
46 48 50 52 54 57 62 65 66 66 69 72 74 76 79 82 86 85 82 82 86 90 94 98 101 105 108 110 112 111 106 105 107 107 110 115 111 107 105 104 106 102 97 90

GFSCGP_250_spd_027.txt.gz
Wind_Speed
28 32 37 35 33 31 30 29 28 22 24 25 25 23 24 23 23 26 31 30 31 36 44 45 47 46 48 51 53 54 55 55 56 58 60 61 61 63 68 69 71 73 75 79
35 33 34 31 30 29 28 28 30 30 30 28 25 22 24 24 25 25 27 32 36 38 39 41 43 45 45 47 48 48 48 48 45 46 47 51 51 53 54 56 62 70 71 72
36 37 35 33 31 28 24 23 26 27 26 26 27 27 25 30 31 32 34 34 35 37 39 39 39 40 40 39 39 37 36 34 35 37 40 43 47 51 55 59 64 69 72 76
38 38 34 30 26 26 28 28 27 24 22 25 26 27 29 34 31 32 32 31 32 33 33 33 33 32 29 27 26 27 29 35 39 42 46 50 54 57 62 64 67 69 73 76
34 30 29 29 28 29 31 28 27 26 25 32 29 30 31 28 25 24 28 28 28 27 25 23 23 20 21 23 27 31 35 39 42 45 48 49 50 51 53 57 60 64 65 67
32 29 30 29 26 27 28 28 27 28 29 31 29 27 24 22 21 24 25 25 22 20 19 17 16 19 23 27 31 34 38 41 43 46 49 51 51 52 55 59 62 64 66 65
27 28 29 28 28 28 28 29 30 31 27 23 21 22 20 17 23 24 22 18 17 14 13 15 18 21 25 28 31 33 35 38 42 46 50 54 55 58 59 61 60 62 64 64
27 28 30 28 27 27 28 28 25 22 21 18 19 19 18 19 16 14 13 13 12 14 15 16 19 21 23 26 31 36 40 44 47 50 54 56 57 59 61 63 67 68 67 67
29 29 28 27 26 24 23 22 20 19 18 17 16 16 15 14 13 12 11 13 15 16 17 19 22 25 30 35 37 42 44 47 51 56 61 64 66 66 66 69 72 73 70 71
24 25 24 22 22 22 19 18 18 17 18 16 17 17 16 14 12 13 15 18 20 21 23 26 29 31 34 37 42 45 48 52 56 61 66 68 69 70 71 73 76 74 73 77
20 22 22 23 22 19 19 19 20 19 18 19 19 16 15 14 15 18 21 24 26 28 30 31 33 36 38 42 44 50 53 57 61 65 69 72 72 72 74 76 76 76 79 83
22 22 22 20 20 22 23 24 22 19 19 18 17 16 17 19 21 22 24 28 32 34 35 37 38 41 42 46 49 55 59 64 68 72 75 75 77 78 77 77 78 81 86 91
21 23 23 24 24 25 24 22 21 22 21 20 21 20 24 26 27 30 31 33 35 38 41 42 44 48 51 53 56 61 66 71 74 77 79 81 80 81 80 82 85 88 93 98
22 24 24 23 22 24 23 23 23 23 22 22 26 25 29 28 30 33 36 39 40 43 43 45 48 52 58 61 64 68 73 76 79 81 83 83 81 81 81 87 92 95 99 103
23 24 25 25 23 24 23 23 24 24 25 27 27 29 31 30 33 36 39 42 46 48 48 48 50 56 62 67 71 75 77 80 83 85 85 82 82 83 87 93 98 101 105 110
25 26 26 26 26 24 23 26 27 26 28 29 30 34 32 36 37 40 43 45 49 52 52 54 58 63 68 71 76 77 79 83 86 85 82 84 84 89 93 99 102 106 110 111
27 27 28 28 26 26 28 29 27 30 31 30 32 35 38 40 43 45 45 46 48 51 54 59 64 68 71 73 75 79 84 85 82 82 84 85 90 95 100 103 107 112 107 105
29 29 30 30 29 28 32 31 32 32 34 34 37 41 43 44 46 46 47 50 51 55 59 63 65 68 72 75 80 85 84 82 83 85 87 91 96 101 104 108 112 104 101 103
32 32 33 34 34 34 35 36 37 37 39 37 42 45 47 47 50 53 53 59 60 61 61 64 69 71 76 82 84 83 83 83 86 90 94 97 102 106 109 111 105 98 101 106
34 36 37 37 36 37 39 39 40 41 41 43 47 48 50 52 55 61 61 63 65 63 66 72 74 77 82 85 83 84 84 87 92 95 100 103 107 110 111 104 101 104 107 111
36 38 38 38 39 40 40 41 42 44 45 47 50 52 55 57 60 62 64 64 64 67 71 76 80 83 86 84 83 84 89 94 97 101 103 107 110 108 105 103 105 110 112 108
37 38 40 40 42 42 43 43 46 47 49 50 53 55 55 58 62 63 64 67 68 74 75 81 85 88 87 85 87 90 95 98 103 106 108 109 109 105 107 109 110 113 110 101
39 41 43 45 47 44 44 46 48 49 52 55 55 58 59 62 66 66 67 73 76 80 80 84 89 88 87 88 92 98 102 105 108 113 113 110 107 111 116 113 111 102 104 105
41 42 42 45 47 45 47 49 51 54 55 57 59 63 65 68 71 73 75 80 81 83 88 91 89 88 89 93 99 104 108 110 112 112 111 112 116 117 115 110 106 113 110 107
43 43 45 47 48 48 49 50 53 57 57 61 67 68 70 76 77 80 83 83 85 92 90 91 90 92 96 100 104 109 111 112 111 111 114 115 110 113 113 110 108 105 103 103
46 45 47 47 46 51 55 56 57 59 66 71 71 75 78 81 84 86 87 89 94 92 93 92 94 98 102 106 110 111 111 109 111 114 116 121 126 123 115 108 107 104 103 100

GFSCGP_250_spd_033.txt.gz
Wind_Speed
10 18 27 30 31 34 35 34 30 24 28 30 24 21 21 24 24 26 24 29 36 40 37 35 29 34 37 39 38 44 62 70 67 68 71 79 83 86 83 83 84 81 81 82
14 22 24 29 31 30 30 28 26 27 29 28 24 21 22 23 24 25 28 30 31 33 35 38 36 33 41 43 47 49 50 57 64 66 66 69 73 75 77 74 72 69 65 64
14 19 26 27 26 30 27 21 20 24 26 23 25 22 17 20 22 24 25 25 27 30 31 34 34 41 42 44 45 47 54 58 58 61 64 67 67 64 60 57 56 54 52 53
15 17 22 25 27 22 20 19 21 21 25 29 24 22 24 25 26 22 20 24 28 30 30 33 35 38 40 43 45 50 54 57 55 55 53 51 49 47 49 47 47 48 50 53
17 17 20 19 24 22 21 19 19 21 24 26 30 29 28 29 29 24 28 32 32 32 33 37 38 37 39 40 41 43 45 45 43 42 42 42 42 40 41 45 47 51 55 62
15 18 22 21 23 26 22 19 20 20 21 24 26 25 25 27 25 26 29 33 31 24 18 29 31 33 32 33 34 36 36 39 39 39 40 40 41 41 44 47 51 55 61 65
16 17 21 22 22 25 23 24 20 24 28 26 27 29 26 26 28 29 36 36 30 24 21 29 35 35 30 29 30 34 35 37 39 41 42 43 44 45 49 52 58 63 69 72
18 18 20 26 26 26 27 27 22 25 27 29 32 30 30 31 31 35 30 29 29 37 30 33 30 27 28 30 32 33 35 39 43 46 47 49 53 55 58 63 67 72 78 80
25 23 26 26 28 29 33 27 26 26 30 32 34 30 28 29 24 28 27 31 33 34 39 27 26 30 30 32 34 36 39 44 49 54 56 58 60 61 64 69 74 80 81 82
26 32 31 31 30 31 31 28 29 29 31 31 29 27 23 28 23 24 26 30 37 40 31 29 27 29 33 35 37 39 41 46 52 58 61 64 64 68 71 76 79 79 83 88
31 33 34 30 30 34 35 35 35 31 29 31 30 29 30 30 27 24 24 24 26 29 32 33 32 32 35 39 43 46 47 49 55 59 62 65 67 70 73 74 77 83 87 92
28 27 28 28 30 30 35 34 32 29 26 28 29 28 32 29 27 21 21 26 30 31 32 33 34 36 40 44 47 51 51 50 53 57 61 65 67 69 73 77 83 86 91 94
27 28 27 24 26 24 26 25 25 25 27 30 30 30 30 25 22 23 28 30 31 33 33 35 37 39 42 45 49 51 55 57 61 65 68 68 66 73 78 82 86 92 95 93
28 28 28 28 28 23 26 26 27 28 32 30 33 27 26 23 24 26 31 33 36 35 37 37 38 40 43 46 50 54 58 62 67 69 67 67 74 79 84 87 92 97 94 93
29 31 29 29 29 28 29 28 30 32 35 30 31 27 26 25 25 30 33 38 40 42 46 45 44 46 49 51 54 57 61 61 64 68 71 76 82 83 88 92 98 95 95 97
29 29 27 29 29 26 29 31 34 35 34 29 27 27 28 25 30 35 37 38 39 43 47 51 53 52 53 59 63 63 62 64 68 74 80 84 87 89 93 97 97 97 99 104
28 28 27 29 30 31 33 33 32 34 29 27 27 25 29 35 35 35 38 41 46 50 53 55 58 59 59 62 66 68 68 71 76 81 84 88 91 94 97 97 98 101 106 111
31 28 27 29 28 29 33 32 30 30 25 25 29 32 35 37 39 41 43 46 50 52 52 55 59 64 68 69 69 73 77 80 84 87 90 92 96 97 96 98 102 107 111 116
32 28 27 27 27 28 29 28 28 27 28 31 34 37 36 41 44 46 48 50 52 53 57 61 64 66 67 70 74 77 81 85 90 92 93 96 99 98 100 104 110 116 119 117
32 28 24 29 29 29 29 32 33 32 31 37 40 41 44 46 49 52 53 53 54 58 61 65 68 71 72 76 79 83 88 91 92 95 98 99 99 101 105 110 114 119 117 113
33 31 27 30 32 34 33 36 35 37 39 42 45 46 49 51 54 57 57 57 58 62 66 66 70 73 77 80 84 88 90 91 95 97 96 97 101 107 112 115 120 117 113 112
37 34 32 31 33 35 36 38 39 40 44 48 49 49 51 54 58 61 60 59 61 64 68 73 76 77 82 85 88 90 91 96 98 98 99 102 107 112 116 120 118 115 112 115
40 37 36 34 35 37 37 40 41 43 49 49 50 52 55 57 58 59 60 62 65 67 71 76 82 86 88 91 91 91 97 101 100 101 103 108 114 117 121 119 115 113 114 115
40 41 38 38 38 37 38 40 41 46 51 51 53 56 57 58 59 61 65 68 71 74 77 81 85 89 92 92 94 98 104 102 102 105 109 114 118 122 122 119 115 114 112 110
41 43 42 43 40 39 40 42 46 50 53 53 55 59 60 59 60 65 70 75 78 79 83 87 90 92 93 94 98 105 102 103 106 111 115 118 122 124 121 115 113 112 110 106
44 43 45 44 44 43 44 47 50 53 55 55 59 60 60 63 67 72 76 79 82 86 89 91 93 95 95 99 105 104 104 107 112 116 119 122 123 119 115 112 111 110 105 100

GFSCGP_250_spd_036.txt.gz
Wind_Speed
23 16 13 21 24 24 25 31 32 31 24 24 29 24 27 25 27 36 39 43 47 49 53 59 50 48 45 55 51 49 52 57 61 66 77 81 80 76 74 79 80 81 80 79
20 13 12 21 23 20 22 28 28 26 23 23 20 21 22 25 27 29 30 31 43 48 51 52 49 49 52 55 51 47 47 51 55 61 62 64 70 68 75 79 79 81 79 79
17 13 14 16 21 20 21 27 23 27 23 22 23 24 27 28 24 25 25 28 31 32 34 39 46 42 41 43 48 46 43 48 52 55 57 60 62 64 68 72 75 74 72 70
13 12 12 16 17 22 20 21 24 21 23 24 26 28 26 20 21 24 26 26 27 28 31 35 37 39 41 40 42 44 48 53 56 58 59 60 62 61 61 63 64 65 62 63
16 14 14 14 19 21 21 23 20 19 22 28 29 26 22 23 24 26 25 24 26 28 30 34 33 35 40 42 43 45 45 47 51 53 52 52 52 53 56 58 57 61 60 60
18 15 13 16 17 20 24 22 22 22 25 25 24 31 32 31 28 32 30 27 29 33 34 38 35 34 30 31 28 34 37 44 45 45 46 47 50 52 53 57 59 59 62 66
17 15 12 13 16 18 22 24 22 23 26 23 23 23 25 28 28 29 26 22 27 31 34 38 35 32 27 29 35 39 41 43 41 43 45 47 49 53 56 58 61 65 66 65
22 16 13 14 17 18 19 25 25 25 25 23 29 27 24 27 28 29 30 26 29 31 29 33 32 32 32 34 30 32 38 40 42 45 48 50 52 54 58 60 63 65 67 69
23 24 15 20 21 23 25 26 28 26 28 28 25 22 27 28 27 28 31 28 22 24 30 30 30 32 33 29 32 35 38 42 45 49 51 54 55 56 58 60 64 67 70 71
24 27 26 22 23 25 24 26 28 30 32 30 25 26 29 30 28 28 27 28 25 27 29 31 32 34 38 36 34 34 38 43 48 51 54 56 55 55 59 66 70 70 69 72
29 27 29 28 27 28 28 30 28 30 33 32 29 29 31 30 25 25 25 26 28 28 26 28 33 34 36 38 39 39 42 46 49 53 56 60 62 63 66 66 67 70 75 79
30 26 26 27 26 26 29 33 35 37 36 37 37 32 32 27 25 25 26 29 26 24 27 30 32 34 37 40 41 41 44 48 52 56 60 63 65 63 66 71 74 78 81 85
26 29 27 21 22 23 23 27 28 29 32 34 33 28 26 26 24 24 26 25 27 29 28 29 32 35 38 40 45 48 50 54 58 62 64 66 65 65 70 75 80 84 87 90
26 30 26 21 19 18 22 23 23 23 27 28 29 29 25 27 24 25 26 28 29 30 30 33 34 36 37 42 47 50 52 55 59 64 66 67 67 69 75 80 85 88 91 94
26 30 28 25 21 21 25 27 30 29 30 32 29 31 25 25 24 25 29 32 31 32 35 36 37 41 43 47 49 51 54 57 62 65 66 68 71 76 81 85 86 92 95 94
29 30 27 28 26 25 28 31 31 29 29 31 30 29 31 22 25 30 33 31 33 36 38 40 44 46 48 50 51 55 59 62 60 62 68 73 77 81 86 88 91 97 97 96
29 29 29 30 28 26 28 34 28 30 31 31 32 29 28 28 31 31 31 35 38 42 44 48 49 50 53 55 57 61 65 64 66 69 74 79 84 87 89 90 98 99 96 99
30 31 31 31 28 26 32 29 31 31 32 32 31 28 29 30 31 32 36 39 43 46 50 53 56 57 60 61 63 65 67 71 74 77 82 86 90 89 91 98 99 98 100 106
33 32 31 30 29 28 29 29 28 26 27 26 27 30 31 32 35 38 41 44 48 51 55 57 59 61 62 65 67 69 73 77 81 85 88 91 92 93 99 104 99 100 106 111
33 34 32 32 29 27 29 30 26 24 23 29 31 33 35 38 41 43 46 49 52 55 58 60 62 63 64 68 71 75 79 83 87 90 92 95 95 98 104 101 101 106 112 116
34 38 36 33 32 31 32 29 29 27 31 34 37 39 41 43 46 48 51 53 56 59 62 63 65 66 68 71 75 79 83 87 89 91 95 96 97 104 104 103 106 111 115 120
36 39 40 36 36 34 33 31 32 33 37 40 40 42 44 47 50 52 54 57 59 61 64 65 67 71 74 77 80 84 88 91 93 95 97 98 102 104 103 106 112 115 120 123
39 41 42 40 39 37 36 37 38 40 42 43 44 46 47 50 53 55 57 60 62 64 66 68 71 75 79 83 86 89 92 94 97 99 99 102 105 103 106 111 115 119 123 119
38 42 44 41 41 41 42 42 42 43 44 45 46 47 50 53 56 58 60 63 66 67 69 72 77 81 85 88 90 92 94 96 98 99 102 104 104 108 111 115 118 121 119 115
41 42 46 43 44 44 46 47 46 46 47 48 48 50 54 56 58 61 64 68 70 70 73 78 82 86 89 92 93 96 97 98 100 103 104 104 107 112 117 118 121 120 117 115
43 45 48 46 47 47 49 51 52 50 50 50 51 53 55 59 62 67 70 72 72 74 78 83 87 89 93 94 97 98 98 101 103 105 106 109 113 118 118 120 119 120 115 112

GFSCGP_250_spd_042.txt.gz
Wind_Speed
57 47 34 24 11 4 5 8 8 9 14 18 15 12 19 19 26 27 39 39 36 34 35 41 37 38 43 44 46 45 51 51 54 57 62 59 69 68 68 71 68 71 75 69
54 51 29 28 12 4 5 7 12 14 15 16 20 19 17 19 22 26 30 33 39 35 34 46 37 39 40 41 44 49 52 56 57 58 60 55 55 59 61 63 63 65 65 68
51 54 30 25 15 10 5 9 9 14 17 22 20 16 13 18 21 22 28 35 32 42 39 38 39 38 41 43 45 46 51 55 55 51 56 60 59 58 59 62 66 67 66 67
52 51 36 25 12 11 10 10 10 13 16 19 13 13 15 20 20 24 23 29 27 29 36 38 37 42 44 45 48 49 50 51 49 55 54 55 55 55 59 60 58 59 61 61
51 51 44 24 20 6 9 14 14 15 18 21 17 16 15 15 16 18 19 21 22 26 27 28 26 30 36 39 40 39 40 41 44 47 49 51 53 53 50 50 53 55 58 59
49 50 47 25 22 16 9 13 15 17 17 21 22 20 19 18 19 18 18 22 24 23 24 24 25 28 30 33 38 40 39 38 42 42 42 42 42 47 49 51 52 53 57 61
47 47 48 32 21 22 14 13 19 19 20 21 21 18 18 20 21 23 24 23 25 27 29 31 32 35 39 39 41 40 41 42 43 42 38 40 44 50 49 51 55 57 60 63
45 46 50 45 21 21 20 15 17 18 20 21 23 21 19 21 21 23 27 32 34 34 37 37 39 37 37 39 42 42 41 37 36 34 36 41 46 49 52 59 59 61 62 62
43 46 47 44 31 21 22 18 17 20 22 21 21 22 23 20 20 20 25 29 30 32 34 37 37 40 43 42 35 31 29 28 31 36 42 45 47 52 57 61 61 60 61 63
43 44 45 48 42 24 24 21 18 21 23 23 27 28 30 24 25 25 27 31 33 35 38 42 42 39 32 30 27 28 30 33 36 39 42 46 49 55 57 57 58 59 61 65
43 44 45 48 44 28 21 25 23 20 22 24 24 30 33 32 29 31 31 33 36 37 38 40 36 32 31 30 29 29 30 32 36 41 46 49 51 53 54 59 62 62 65 69
43 43 46 47 45 31 23 22 24 25 30 28 29 36 32 34 33 33 35 35 37 37 35 35 31 30 29 28 30 29 32 34 37 42 46 46 47 53 59 62 64 67 69 72
43 45 47 47 45 41 23 22 21 25 30 32 33 37 32 33 36 36 36 36 33 31 32 32 31 28 26 31 30 30 33 37 40 43 49 48 52 61 64 67 68 69 72 74
45 46 47 46 45 45 27 24 24 23 27 30 29 30 27 28 32 28 27 30 32 30 32 32 30 28 30 31 31 33 36 40 44 47 52 53 60 63 67 69 69 72 74 76
46 46 48 51 49 46 34 24 21 24 24 23 30 26 25 23 26 27 29 34 35 35 34 30 29 32 32 32 34 37 40 45 48 51 56 61 64 68 70 71 73 76 78 81
46 46 49 49 47 45 34 26 24 25 28 28 29 32 32 29 30 30 33 38 39 38 35 33 34 35 35 37 39 43 47 49 53 58 63 66 68 71 74 76 77 79 82 86
48 46 47 47 45 43 33 31 25 24 25 26 27 31 31 30 30 29 32 36 40 40 39 37 36 36 38 41 44 47 50 54 58 63 65 68 71 74 76 79 81 83 87 92
48 48 47 50 47 39 40 31 28 25 24 24 25 31 33 32 32 32 35 38 40 41 41 40 40 41 44 46 48 51 56 61 64 65 67 70 74 76 79 81 84 87 92 97
46 45 46 47 46 39 36 37 30 28 25 27 29 31 32 32 30 31 34 38 39 38 38 39 42 45 47 49 53 58 62 64 66 68 71 74 76 79 81 84 87 91 95 98
43 45 48 42 42 41 39 38 32 28 27 35 31 29 29 31 32 30 29 32 35 36 38 41 45 48 51 55 59 62 64 66 69 72 74 76 78 82 85 88 91 95 97 101
48 48 45 47 46 42 41 40 35 31 39 33 33 32 33 32 33 35 36 36 37 40 43 46 49 52 55 59 62 64 67 69 72 74 78 80 83 87 90 93 96 99 102 104
48 49 48 50 45 41 43 38 38 37 37 36 33 36 37 38 39 38 38 40 42 44 46 49 53 56 59 61 64 67 70 73 75 79 81 85 89 92 94 97 100 102 104 105
49 49 51 49 45 44 43 41 38 40 39 38 37 37 39 42 44 44 45 46 48 50 52 55 58 60 63 65 68 71 74 77 80 82 86 91 93 95 98 100 102 104 105 107
56 53 51 46 44 46 44 42 39 39 39 38 40 40 41 43 45 47 50 52 54 56 58 60 63 65 67 70 73 76 78 81 84 88 92 94 95 98 100 101 103 105 108 111
55 53 46 42 42 49 44 41 40 40 41 40 41 43 45 47 48 49 51 54 58 59 61 64 66 68 72 75 78 81 83 86 89 92 93 94 98 100 102 103 106 107 112 116
52 47 45 42 49 45 43 40 42 42 41 41 43 46 48 51 53 54 56 58 61 63 66 69 71 73 76 80 83 86 88 90 92 94 96 99 100 102 103 104 107 112 115 116

GFSCGP_250_spd_045.txt.gz
Wind_Speed
49 52 55 57 39 26 9 2 2 1 6 4 7 7 9 11 10 10 20 28 32 26 26 30 24 33 34 37 43 57 57 56 56 53 56 54 55 59 66 67 65 66 59 58
46 48 54 53 35 28 10 3 6 5 9 14 9 6 7 14 14 14 16 18 28 26 22 31 28 27 28 34 37 41 50 55 53 54 56 54 56 56 56 59 65 67 67 70
43 45 51 50 36 25 11 6 7 11 8 12 14 16 14 11 13 14 13 15 20 22 29 31 30 28 30 31 34 37 39 42 43 43 47 50 55 55 60 62 59 62 62 67
41 44 47 48 43 27 20 9 6 9 11 12 14 12 15 13 14 14 14 17 23 28 27 26 28 33 39 35 34 38 39 44 49 49 52 53 52 56 60 66 64 63 61 63
39 40 43 46 42 35 25 13 9 10 12 13 16 12 13 13 15 18 16 18 18 21 25 30 33 34 35 41 42 40 39 40 40 42 45 48 50 51 51 52 52 50 49 51
37 37 41 46 44 38 24 19 14 11 14 16 19 18 17 15 16 17 17 19 18 22 26 26 27 28 27 28 29 29 30 34 37 40 41 45 47 47 46 45 44 47 49 51
35 37 39 44 41 39 29 20 20 16 16 16 20 21 19 21 20 18 20 20 21 19 19 21 21 24 26 29 32 34 36 38 40 43 44 43 40 40 42 42 45 50 53 53
37 35 38 41 39 41 37 23 19 20 15 15 20 21 19 20 19 20 23 24 25 27 28 29 29 30 30 33 36 37 38 38 41 36 36 32 36 39 42 46 51 55 55 59
35 35 36 37 38 40 38 27 21 17 17 17 21 24 25 22 21 21 23 24 25 26 27 27 28 29 31 34 38 40 41 42 41 36 32 37 39 43 45 49 54 57 61 63
36 34 34 37 41 38 35 37 24 22 21 23 25 26 29 26 26 25 26 27 27 28 29 30 32 33 35 37 38 38 34 35 34 33 33 37 40 43 47 50 51 58 61 62
37 33 32 37 39 40 38 37 29 24 25 25 27 28 34 32 30 30 30 32 34 33 34 36 37 39 38 36 35 33 34 34 33 34 34 35 36 41 44 47 55 60 66 66
37 33 34 38 36 40 38 39 34 24 26 28 30 36 32 33 33 35 35 34 37 38 38 39 39 40 38 36 34 33 33 31 30 30 34 36 37 43 48 55 58 64 65 70
38 34 35 34 38 40 37 37 33 26 24 27 35 40 34 35 35 37 38 40 42 44 43 42 42 37 35 33 31 33 35 31 33 35 37 39 45 49 53 56 63 66 69 73
38 37 36 33 39 40 37 36 32 27 24 23 27 39 38 38 36 37 40 43 43 44 45 44 38 31 30 31 34 37 37 37 39 40 41 46 51 54 58 62 65 69 73 76
39 38 35 36 39 38 38 38 38 31 30 25 29 25 31 31 30 30 32 34 35 37 36 31 32 34 33 34 37 39 40 42 43 44 48 52 56 59 62 65 69 73 76 79
40 39 37 37 40 39 38 39 33 28 27 31 28 27 32 30 31 32 34 36 37 38 38 37 35 35 35 38 40 43 45 46 48 50 53 56 59 62 65 69 74 77 79 82
41 37 39 38 40 37 40 40 35 29 27 27 27 33 34 34 33 34 33 33 39 41 40 40 41 39 39 41 43 46 48 50 51 53 55 59 63 67 70 74 77 79 82 86
41 39 38 41 40 35 42 42 37 29 26 28 31 32 33 33 33 31 30 32 35 38 41 42 44 45 45 46 46 47 49 50 52 56 61 65 69 71 74 77 80 83 85 86
40 40 43 41 39 37 40 44 38 32 31 30 32 31 30 29 28 28 27 29 32 36 40 44 46 46 47 46 46 48 50 54 58 62 66 70 72 75 77 80 83 85 87 89
43 44 42 39 37 35 42 42 42 35 35 36 29 33 31 31 30 31 30 31 32 35 37 38 40 41 42 45 47 51 55 59 64 68 70 72 74 77 81 83 85 88 90 93
46 43 40 37 35 37 41 47 43 40 36 36 33 34 36 35 34 36 37 36 35 35 38 40 42 44 47 49 52 56 60 64 67 69 71 74 78 81 83 86 89 90 94 97
44 40 41 40 40 38 47 44 46 42 43 37 35 36 39 40 39 39 40 41 42 42 43 44 45 47 49 52 55 58 62 65 68 71 75 78 80 82 85 88 92 95 97 99
41 43 44 47 43 43 45 48 46 46 43 39 38 37 39 42 43 42 42 42 42 44 47 49 51 52 53 56 59 62 65 68 71 73 76 79 81 84 86 90 94 97 99 99
46 46 48 48 47 47 46 46 50 44 41 41 38 38 39 42 44 44 44 45 45 46 48 50 52 54 56 59 62 64 68 71 73 76 77 77 79 84 89 92 96 97 99 101
50 51 52 51 47 48 49 51 46 42 42 42 42 40 39 40 42 44 44 45 47 50 52 54 56 58 60 63 66 69 71 72 74 75 77 81 85 91 95 99 101 100 100 103
52 53 54 51 54 48 50 52 48 42 46 47 45 43 41 42 42 44 46 48 50 52 54 57 59 62 65 66 67 68 72 75 79 82 86 86 89 95 97 100 99 99 102 105

GFSCGP_250_spd_048.txt.gz
Wind_Speed
34 38 44 45 45 51 44 32 10 8 3 3 4 2 6 12 11 19 25 23 23 22 24 12 19 24 31 32 32 40 46 55 48 52 57 56 48 51 56 55 56 61 63 67
32 37 42 41 42 48 44 30 19 9 9 6 1 3 7 11 8 11 23 27 27 30 28 24 21 18 27 33 30 36 46 47 53 55 58 58 61 51 54 59 67 69 65 66
31 37 39 37 38 44 42 27 24 12 5 9 12 10 5 11 14 12 12 13 17 27 30 29 25 27 22 22 22 27 35 43 52 58 62 62 62 64 65 61 64 64 58 59
31 35 37 36 35 39 42 32 22 15 7 11 13 16 12 13 17 13 13 13 14 17 21 29 30 29 31 33 29 31 32 34 41 43 42 48 51 57 57 58 60 61 61 62
32 34 35 36 33 34 39 39 22 19 15 12 14 16 11 10 12 15 16 15 15 18 21 26 25 31 32 31 36 37 35 38 38 43 46 46 46 50 52 54 55 55 57 57
31 34 34 35 32 31 38 37 24 19 19 18 17 16 15 12 11 13 17 18 20 20 18 20 25 28 29 33 34 34 38 36 37 39 44 46 48 47 47 48 50 52 53 51
32 33 33 34 32 28 33 35 32 20 18 20 19 18 19 19 19 18 19 19 20 20 19 18 21 23 25 29 30 30 30 33 36 36 37 39 40 42 46 46 47 45 46 48
33 33 33 31 30 26 30 36 33 25 21 20 22 20 18 21 22 22 21 20 22 23 24 23 22 23 25 29 31 32 33 35 35 35 37 40 37 34 38 44 43 45 49 53
34 35 34 31 28 27 27 33 32 33 21 21 24 25 22 22 24 24 25 24 25 24 26 27 27 28 30 32 35 36 35 35 37 39 41 37 32 37 42 43 48 50 52 52
36 37 35 32 28 26 26 31 33 32 27 23 25 29 27 25 26 27 27 25 24 26 26 27 27 30 32 34 34 34 34 39 43 42 40 39 39 41 44 48 49 49 50 53
41 39 37 35 30 25 26 30 32 30 30 24 27 30 33 28 29 29 31 32 31 32 33 33 33 32 33 33 34 38 41 40 40 40 41 41 41 43 45 45 47 49 54 57
44 41 39 37 31 28 24 30 31 28 32 26 25 34 36 33 32 35 36 36 37 37 37 37 36 36 35 37 40 42 43 41 40 41 42 45 45 43 44 46 49 53 55 61
45 42 40 39 34 29 25 27 31 28 28 29 27 32 37 37 36 39 41 38 38 40 41 41 43 41 43 43 43 41 40 40 42 42 43 44 43 44 47 49 52 56 62 64
46 43 41 40 35 29 27 28 31 28 29 30 31 32 32 33 37 40 43 40 41 40 43 46 47 46 42 42 41 40 40 42 44 44 45 46 48 49 51 54 58 62 66 70
47 44 43 42 36 31 29 32 31 30 27 27 35 31 35 29 29 32 38 42 42 40 34 35 35 38 38 38 41 41 41 44 46 44 48 48 50 53 56 59 63 68 71 74
46 45 43 39 38 35 31 35 32 32 27 26 30 35 34 28 29 29 31 33 35 36 37 36 37 36 39 42 44 39 42 43 46 50 53 55 56 58 61 64 68 71 74 76
49 46 44 43 42 33 35 36 35 32 29 30 29 32 33 33 32 32 33 35 37 38 39 41 40 41 42 43 44 43 43 45 48 50 53 57 60 62 64 67 70 72 76 80
51 49 48 43 41 32 41 35 38 31 31 31 29 30 29 33 33 33 33 33 33 35 36 38 39 41 44 45 46 48 48 49 50 51 52 55 58 61 64 68 72 76 80 83
52 51 48 44 40 37 40 41 37 33 33 30 30 30 29 31 35 35 35 36 36 35 36 36 36 37 39 41 43 44 45 46 48 50 52 55 59 64 68 72 76 79 82 84
53 52 49 43 38 36 48 41 38 35 38 30 33 32 31 30 33 37 36 37 37 38 37 34 34 36 39 41 42 44 46 49 51 54 57 61 64 68 72 75 77 79 81 84
53 52 46 44 40 38 45 39 43 35 38 36 36 37 37 34 31 35 39 40 39 40 41 41 41 42 42 43 44 47 50 53 55 58 61 64 67 70 73 75 79 82 83 82
55 53 48 47 41 37 47 44 40 40 38 38 40 41 40 37 36 36 39 41 42 43 43 43 44 45 46 47 48 50 53 56 58 61 63 66 69 73 76 78 78 80 82 85
55 50 48 46 43 46 44 44 42 41 39 41 44 44 43 39 39 38 39 41 44 46 48 48 47 48 48 48 50 52 55 58 61 63 67 69 71 72 76 79 81 84 87 92
54 53 50 49 44 47 47 45 44 42 40 43 47 47 46 44 44 44 42 43 43 45 48 50 51 51 52 54 56 56 57 57 59 66 69 72 76 81 85 87 90 94 97 101
55 52 49 48 47 50 50 47 45 42 41 48 48 50 51 48 46 47 48 46 44 43 42 43 45 46 48 51 54 60 60 63 67 72 75 79 84 89 91 92 96 98 99 99
57 53 49 47 53 54 51 49 48 45 47 47 49 51 53 51 49 50 51 53 50 48 48 48 50 53 55 57 61 65 69 71 75 77 81 87 91 91 92 95 95 96 96 97

GFSCGP_250_spd_054.txt.gz
Wind_Speed
28 28 29 25 28 32 35 34 35 39 40 23 21 18 15 16 20 22 13 13 14 25 22 18 23 20 15 15 16 31 35 56 56 54 66 55 51 40 46 42 43 48 54 60
32 29 25 28 27 33 35 34 31 36 39 31 19 20 15 2 14 31 18 15 17 21 25 25 19 21 23 19 18 22 23 20 31 51 46 45 49 52 44 46 50 46 56 57
30 35 29 27 29 32 35 32 29 34 36 37 19 17 15 16 29 14 11 21 19 21 22 20 24 27 23 24 25 30 32 36 35 37 41 40 43 45 44 45 50 54 59 61
35 43 35 28 29 34 33 31 27 30 36 36 29 16 14 16 19 18 20 21 30 24 23 28 29 28 27 30 34 34 33 34 38 40 44 45 45 50 53 52 55 58 60 65
35 38 44 26 31 37 36 30 28 26 32 38 33 19 17 16 16 21 26 27 20 21 31 32 34 38 36 29 27 26 28 27 23 26 38 50 50 51 56 59 62 60 64 63
34 38 45 29 34 39 37 32 27 27 28 35 38 29 20 16 23 20 20 25 26 22 23 25 26 32 38 40 34 30 29 29 27 30 30 31 34 39 47 53 56 57 59 59
46 41 48 37 34 34 36 33 28 31 28 31 37 33 29 20 23 17 21 22 25 28 24 23 25 23 29 33 33 32 30 30 33 32 33 36 39 38 42 46 47 50 59 60
50 44 43 52 36 40 36 31 35 33 31 32 35 36 35 26 27 20 23 28 23 26 28 28 25 29 28 30 36 40 42 39 36 32 33 36 37 34 28 38 45 41 45 46
54 47 42 48 40 40 39 30 37 31 34 33 31 36 36 30 27 24 23 26 29 27 28 27 26 29 31 34 33 32 31 31 33 35 34 35 35 29 26 42 42 40 48 49
57 52 45 41 40 37 35 35 35 35 36 37 30 36 33 29 28 27 24 24 27 32 32 31 33 32 30 33 36 37 36 36 33 35 37 39 40 43 43 46 49 61 61 61
62 59 57 47 41 40 40 38 33 35 38 37 34 32 37 29 26 27 26 29 30 31 34 35 37 35 33 31 33 37 38 35 29 27 35 37 41 48 49 54 60 60 64 60
63 60 63 52 45 43 40 34 35 37 38 39 35 33 34 33 31 25 29 30 29 34 35 37 40 40 38 38 36 40 42 39 33 29 34 45 48 50 50 48 53 58 56 59
69 67 62 58 49 42 50 38 38 39 39 41 37 36 34 33 31 29 25 30 32 30 27 35 36 38 39 39 40 41 44 48 42 31 41 47 52 49 49 50 54 57 54 56
70 69 65 61 53 51 47 49 43 43 39 45 39 36 37 35 31 34 31 29 35 35 36 31 33 34 37 38 40 40 41 43 40 40 45 53 54 53 50 51 52 55 56 56
80 71 68 58 57 54 46 50 46 43 44 44 42 37 37 37 33 34 32 31 29 37 38 37 32 30 30 33 35 37 36 36 37 36 39 42 45 46 49 52 54 55 58 60
83 72 69 62 63 57 47 43 47 44 46 43 45 39 39 36 36 34 34 29 32 32 35 39 38 31 35 33 33 34 34 35 36 38 43 45 47 49 51 54 57 58 59 58
88 79 73 65 65 68 51 46 45 45 45 45 42 40 41 37 37 35 32 29 29 32 31 34 38 33 34 37 34 38 36 41 43 44 44 47 47 48 47 46 47 48 50 52
91 86 75 69 72 66 53 55 51 49 48 48 44 44 43 37 38 39 36 34 31 30 30 31 31 33 30 36 39 43 43 42 43 44 45 45 45 46 47 49 51 54 56 58
95 92 79 76 75 63 61 63 58 53 53 49 47 47 46 39 43 39 36 36 30 31 29 28 30 33 36 39 41 43 46 47 47 47 47 48 49 51 53 56 57 59 60 60
100 93 87 79 74 61 57 63 63 56 51 53 51 49 46 43 44 40 38 38 36 35 33 33 32 32 34 34 37 42 45 48 49 49 50 51 53 54 56 58 59 60 57 58
97 94 88 81 70 60 55 58 62 54 54 59 52 49 48 49 44 44 38 40 40 39 38 37 37 37 38 39 40 39 40 42 47 49 51 53 54 56 57 56 56 57 59 65
92 86 77 73 71 62 62 65 63 57 61 56 54 51 50 46 45 45 40 41 43 44 46 49 47 44 44 47 47 47 49 46 45 47 51 52 52 54 53 57 61 64 70 71
81 74 69 72 69 65 65 68 66 65 60 58 57 55 53 48 48 48 44 46 43 45 47 51 53 53 55 57 55 55 55 57 54 53 56 59 62 63 64 67 70 70 71 71
75 74 69 70 67 63 64 64 67 67 61 61 60 56 55 50 50 51 50 46 46 47 48 51 54 53 58 60 59 61 60 61 63 66 64 63 64 65 65 69 70 74 71 74
73 69 66 66 68 67 64 60 73 68 63 61 60 57 55 53 55 55 54 52 50 50 51 54 57 59 61 62 64 64 65 66 66 67 68 70 70 70 71 74 74 73 78 83
67 65 63 56 65 71 68 67 67 64 62 64 63 58 56 57 57 59 59 54 54 54 54 55 60 64 67 68 69 69 70 71 71 72 74 74 74 74 75 78 81 81 82 83

GFSCGP_250_spd_057.txt.gz
Wind_Speed
29 35 30 26 26 29 23 29 29 29 29 32 33 18 17 31 30 19 19 20 21 24 25 17 15 17 23 31 35 38 47 55 58 58 60 63 60 58 55 55 51 55 62 66
39 44 34 27 33 32 28 26 33 30 27 30 34 35 18 11 17 26 16 18 21 17 23 25 18 20 22 24 23 31 38 55 57 59 56 61 62 65 59 56 51 50 47 55
43 46 36 33 31 34 27 27 33 32 28 29 34 36 32 7 17 14 21 16 19 19 18 22 23 26 27 24 26 23 19 27 28 41 48 55 58 62 62 53 53 51 49 53
40 46 43 36 35 35 38 26 34 34 27 27 31 34 31 17 10 20 22 28 23 30 24 20 24 24 25 27 26 27 26 26 34 27 29 29 37 42 45 49 48 50 54 52
41 41 44 39 40 39 36 35 31 36 26 27 30 33 36 31 16 21 24 27 27 27 26 31 26 29 32 32 31 29 31 32 35 40 39 43 38 45 48 49 52 51 55 55
45 42 44 43 45 41 38 40 41 36 26 28 30 31 34 38 31 18 18 17 22 28 26 23 31 32 32 37 35 32 33 33 33 34 34 33 39 39 46 50 53 57 57 61
58 53 44 46 47 47 49 40 39 44 30 29 28 29 33 35 35 27 14 21 18 20 23 28 23 25 29 33 41 40 32 28 27 32 34 32 34 37 38 43 46 51 55 55
61 53 47 49 49 53 51 40 42 41 29 27 31 29 30 33 34 33 22 15 21 21 22 25 28 27 28 28 26 38 34 32 31 32 34 38 39 41 44 47 50 52 53 56
70 60 52 44 51 52 46 38 44 31 34 27 29 31 33 32 33 37 32 23 16 25 26 25 26 34 33 31 30 30 32 34 38 38 43 47 48 45 42 42 42 47 49 48
72 67 55 49 47 51 46 37 39 46 41 30 28 30 31 33 29 30 32 33 28 20 21 28 28 29 32 32 30 29 30 31 32 33 31 32 36 34 37 41 43 47 47 43
73 69 60 56 46 52 52 43 40 48 36 29 30 30 37 32 32 29 30 34 30 32 31 25 27 29 32 33 30 27 26 24 25 31 30 27 30 35 41 45 44 48 49 51
79 80 72 58 51 51 56 54 50 43 38 34 29 33 35 36 33 31 28 33 30 31 36 29 30 29 30 32 32 36 30 25 21 28 29 31 29 39 31 47 50 57 60 53
87 84 75 66 55 53 53 46 40 46 48 37 31 40 32 38 35 31 29 33 34 35 33 34 27 29 30 29 34 35 34 30 27 12 35 40 43 44 47 53 59 57 54 55
96 87 74 65 59 58 58 57 52 47 46 40 35 39 35 39 38 35 31 29 32 33 33 33 34 30 25 21 28 33 33 28 32 34 46 47 48 52 56 59 61 64 69 73
93 90 82 67 64 62 57 51 46 48 48 43 40 40 40 40 38 39 33 32 32 31 33 31 32 34 29 24 19 23 30 37 40 41 44 47 50 51 58 62 65 70 73 72
92 84 78 74 67 64 63 53 49 53 48 42 40 36 42 41 39 39 35 35 35 35 31 29 28 28 34 31 25 24 26 29 35 42 46 48 51 54 55 60 64 65 67 70
89 82 80 74 74 73 61 53 52 51 44 44 39 42 44 40 41 38 38 36 37 39 32 30 26 25 25 28 25 28 26 25 32 36 41 43 48 50 51 53 57 59 59 59
90 88 81 76 77 81 64 61 57 53 46 48 49 46 46 42 44 41 40 40 40 40 36 34 31 22 21 25 29 29 30 34 39 42 45 44 44 44 48 49 51 54 56 57
106 89 81 81 81 72 67 63 64 59 49 49 56 52 48 46 49 47 46 43 43 42 40 37 34 29 24 19 22 25 27 29 30 30 35 39 44 47 49 51 54 56 58 60
98 102 89 85 84 75 69 64 63 63 53 53 57 63 57 54 51 49 49 45 45 45 45 43 40 36 32 28 27 28 30 34 36 38 35 32 34 36 38 42 47 51 55 59
96 95 94 92 87 81 75 74 69 66 51 58 62 65 59 57 57 53 53 47 48 48 45 46 44 43 41 38 40 39 38 39 39 37 39 41 43 44 47 49 46 47 51 54
92 100 101 92 92 82 82 81 80 64 62 64 62 63 52 51 57 57 56 52 52 50 50 47 47 48 45 43 43 44 45 48 48 48 51 49 50 52 52 55 56 57 59 61
87 91 98 83 82 88 86 82 81 73 68 69 67 64 64 63 63 61 58 58 57 52 51 51 51 52 50 48 48 49 50 53 56 58 59 59 60 58 59 61 63 63 65 68
80 87 82 72 80 83 87 86 83 78 75 73 70 63 60 61 63 63 62 63 59 53 54 53 53 54 54 53 52 53 55 56 60 62 64 66 66 66 66 68 69 69 71 73
74 77 78 71 73 74 74 78 77 75 71 71 70 69 64 63 67 62 61 61 60 58 54 57 59 60 59 58 58 58 58 61 64 66 70 72 72 74 74 73 75 76 76 79
68 70 70 68 72 71 69 64 67 66 66 71 72 72 70 64 61 62 63 63 63 61 59 61 64 65 65 63 64 62 62 63 66 71 76 76 78 78 79 79 82 83 85 86

GFSCGP_250_spd_060.txt.gz
Wind_Speed
36 33 22 25 32 27 23 28 31 28 27 34 23 27 33 27 25 30 32 34 29 26 22 18 22 20 20 24 32 32 39 40 49 60 77 76 69 66 57 59 56 57 60 59
30 38 30 29 32 31 26 25 29 29 28 29 24 20 29 33 22 26 26 30 28 22 26 19 22 22 16 15 20 28 31 40 43 52 68 70 73 62 55 55 51 53 59 57
32 39 30 35 37 34 27 28 29 26 32 35 30 22 23 31 32 23 24 24 22 21 21 23 21 25 19 16 14 16 20 26 32 34 42 53 57 56 57 56 62 53 60 60
35 43 38 34 40 34 32 29 30 30 32 33 35 24 29 26 31 26 23 29 24 26 25 26 25 18 21 18 17 17 15 18 19 14 20 31 39 40 45 43 46 53 56 57
40 44 35 38 42 39 36 32 29 32 32 37 31 28 26 26 29 29 25 23 34 39 39 35 28 29 21 23 21 21 23 24 24 25 30 30 31 32 30 36 38 41 44 46
47 48 41 46 45 39 41 38 35 35 34 33 33 33 25 27 28 30 34 26 24 26 25 24 23 19 24 24 26 25 27 30 30 32 32 35 38 36 41 40 43 43 46 48
54 50 51 48 45 45 44 41 39 38 37 34 34 32 28 24 27 28 31 32 27 24 22 23 16 16 15 20 26 32 32 34 34 38 33 37 40 40 36 36 42 40 42 45
58 56 55 56 52 52 47 43 38 40 38 37 35 30 34 24 22 24 24 29 29 23 23 19 20 14 19 22 22 23 30 31 36 32 32 32 33 35 36 36 41 43 43 45
61 57 63 59 57 51 49 50 44 40 40 41 32 30 38 29 21 22 27 22 27 29 26 22 18 19 22 26 24 24 27 28 26 31 32 32 33 36 39 42 45 47 49 51
67 63 65 65 64 60 57 55 49 38 41 36 32 33 33 39 31 23 25 25 24 28 28 24 23 24 23 26 31 31 26 24 27 30 30 30 30 30 32 34 34 36 40 43
83 80 77 70 62 61 61 60 45 43 39 45 40 36 30 38 40 26 26 27 25 24 23 24 21 20 24 25 28 32 30 24 22 21 21 21 26 29 31 32 22 32 39 49
80 78 74 72 69 65 62 58 57 49 46 45 44 35 36 38 42 29 24 29 29 27 23 23 23 22 21 22 26 26 28 27 24 18 21 25 31 39 36 31 28 25 32 63
96 88 82 79 75 69 63 63 60 53 49 45 44 40 40 41 40 30 25 27 31 32 29 25 24 25 24 21 23 26 27 22 19 25 28 31 34 46 43 42 37 45 58 61
96 94 87 80 77 74 71 68 66 60 55 52 47 47 45 39 41 37 31 27 27 27 30 31 28 25 22 20 20 24 25 23 29 32 33 37 45 48 43 49 56 55 60 66
94 87 86 83 81 81 77 73 71 67 54 50 50 49 49 38 42 40 35 26 26 24 28 31 28 28 28 25 19 17 23 25 30 36 41 45 50 48 49 50 60 64 67 72
98 94 93 88 84 81 80 75 69 69 65 54 51 42 47 41 42 44 39 32 28 27 29 30 33 29 29 26 23 19 18 25 28 35 48 50 55 57 63 59 60 61 63 67
97 98 95 85 83 85 86 72 70 68 59 58 53 46 48 49 43 41 37 37 32 31 27 30 32 32 33 32 27 25 20 18 30 37 41 45 47 50 54 59 59 59 62 65
97 103 94 87 87 91 71 73 68 63 62 58 58 52 51 48 47 45 40 38 38 34 33 31 32 32 32 33 34 33 30 26 21 27 40 44 46 54 60 63 62 58 60 59
90 99 99 95 91 82 76 73 71 66 64 61 59 54 52 49 47 46 44 43 43 43 37 39 34 33 36 35 36 35 35 34 31 28 30 34 37 39 41 43 43 43 43 44
82 91 96 93 87 87 75 77 76 69 69 66 64 61 59 56 52 47 49 50 54 51 49 44 41 37 39 37 36 37 37 35 36 36 37 37 33 33 36 39 42 40 41 44
79 82 84 84 77 71 77 80 80 78 63 77 72 66 61 58 56 53 48 44 54 58 55 54 51 47 42 42 43 43 43 42 40 40 41 43 43 45 45 44 44 46 46 48
74 77 77 77 85 79 77 81 84 78 78 77 74 67 64 62 58 56 54 48 50 55 57 57 56 55 47 48 49 50 49 48 46 46 46 47 49 51 53 53 53 54 53 55
71 68 73 79 83 84 81 78 81 79 79 78 77 70 69 63 59 53 52 50 52 57 59 61 60 57 57 57 53 51 53 53 53 52 53 54 54 55 56 58 60 61 61 63
69 65 71 81 79 83 81 77 74 81 85 82 78 77 73 67 64 61 59 55 59 63 65 61 57 56 59 58 59 59 57 57 58 61 61 61 61 63 62 63 66 68 69 71
70 74 79 84 87 85 82 72 65 69 79 83 80 78 77 73 69 60 61 62 60 63 61 62 60 58 58 60 61 62 62 62 63 65 67 67 68 69 69 69 73 74 76 78
70 70 74 79 82 82 76 68 60 64 68 72 79 81 79 78 73 66 64 65 65 68 68 65 61 60 61 63 65 66 67 68 71 72 72 71 72 73 76 76 77 78 80 81

GFSCGP_250_spd_063.txt.gz
Wind_Speed
36 35 40 30 25 23 22 25 18 20 24 28 37 34 30 33 30 28 20 21 26 32 31 22 13 11 19 22 33 45 60 61 61 57 60 57 64 69 76 75 71 69 68 63
29 43 38 29 28 30 27 28 22 19 26 26 30 32 33 32 33 30 29 21 22 21 21 14 11 8 15 16 21 30 35 42 45 49 41 42 51 60 72 70 65 60 61 59
42 44 35 30 31 30 31 28 28 28 25 23 28 29 35 34 37 31 29 29 22 25 27 19 18 13 12 20 19 22 23 29 30 30 35 34 37 44 55 66 70 70 57 57
43 45 42 31 37 32 33 26 31 32 28 25 31 29 34 36 33 34 27 27 26 23 29 31 31 28 24 17 21 21 23 20 24 28 26 26 27 29 42 56 57 63 61 50
45 52 46 41 45 35 39 29 29 33 30 28 28 26 32 33 33 37 31 28 30 27 20 24 28 25 22 19 20 24 25 22 20 19 25 24 19 22 27 28 33 36 41 47
48 56 47 47 46 39 39 32 32 34 30 34 28 27 29 32 34 34 35 27 28 28 24 17 17 17 20 21 23 26 26 27 25 23 22 23 24 26 28 30 32 31 36 40
57 57 53 52 50 46 44 40 37 35 36 33 29 31 29 28 29 32 38 35 29 29 26 23 15 16 18 20 20 25 30 27 24 24 27 31 31 31 29 33 35 37 40 39
58 60 58 55 55 54 48 47 43 40 36 32 32 35 28 26 26 26 33 38 33 28 26 25 23 19 15 20 23 19 23 25 31 29 28 28 39 37 33 34 36 36 34 35
64 62 66 63 63 59 55 49 46 42 39 39 36 36 28 26 26 25 31 35 37 29 28 25 22 19 18 17 18 22 22 23 24 26 24 26 28 30 31 31 33 35 37 39
67 64 66 67 61 59 59 55 47 46 42 42 41 38 32 31 30 27 30 33 36 35 29 31 28 22 16 13 21 22 23 26 23 26 29 25 24 26 27 28 31 35 36 36
71 68 68 70 62 58 52 51 51 51 47 46 43 35 34 32 34 30 29 32 32 34 29 31 32 30 24 18 11 23 25 26 29 27 24 19 16 16 18 24 26 33 34 28
77 74 69 66 62 57 52 48 49 52 51 47 43 39 41 37 35 35 32 30 30 33 30 30 28 32 26 20 17 12 25 28 28 27 22 22 22 17 28 41 38 40 36 35
83 82 78 75 75 70 70 70 67 56 53 48 45 41 46 43 40 40 36 34 31 32 31 29 26 28 29 28 23 16 12 24 27 31 28 25 21 15 35 45 44 45 43 43
87 85 83 78 78 78 76 73 69 66 61 56 51 51 53 47 42 42 39 36 31 33 33 36 28 27 28 27 27 23 15 13 23 31 36 35 33 39 42 45 48 51 55 60
91 90 89 85 85 87 83 80 78 73 68 63 54 50 54 54 49 43 42 38 35 37 33 34 30 29 28 28 29 27 24 20 17 26 33 39 43 46 48 51 48 53 54 61
94 95 95 94 94 93 91 84 79 76 71 62 58 54 56 53 49 47 47 44 41 39 36 34 36 31 31 28 27 27 27 26 23 22 26 33 43 46 49 52 55 55 58 60
101 97 95 93 96 92 87 77 82 78 75 71 64 55 56 57 54 53 51 49 45 41 40 35 34 34 32 31 29 28 28 26 24 24 26 29 36 45 54 56 56 60 63 65
90 98 100 101 103 102 89 87 86 84 82 77 72 66 60 60 60 54 53 50 48 49 43 39 37 40 39 38 33 31 29 29 26 25 26 29 34 41 47 50 54 58 62 64
86 90 95 94 94 91 87 87 87 84 78 77 74 68 61 62 60 57 56 52 52 51 45 41 41 44 43 45 42 37 36 35 33 31 30 31 31 32 37 41 44 49 54 55
78 80 85 86 84 84 78 86 90 90 80 80 79 75 67 62 54 60 61 56 52 52 47 44 46 49 50 49 49 47 45 42 40 39 41 41 38 38 39 40 41 43 48 52
77 76 79 80 81 74 77 87 90 89 77 85 83 74 68 63 60 63 60 61 53 52 48 48 48 50 49 50 51 53 52 46 47 47 48 46 48 48 48 47 47 48 51 53
72 75 76 78 77 71 73 80 81 85 87 89 84 77 71 67 63 66 65 62 59 59 54 51 48 48 50 48 52 55 53 53 52 53 53 53 49 51 54 56 56 57 59 61
69 71 74 77 74 75 76 75 74 76 78 81 83 81 77 70 67 68 71 68 61 56 55 55 56 56 52 52 56 57 56 56 56 57 56 57 59 60 61 61 62 62 63 65
64 68 69 74 67 74 80 77 74 72 68 65 71 77 81 77 74 73 72 69 65 60 58 58 58 59 59 59 58 59 61 61 60 60 60 61 61 63 64 65 67 67 69 71
60 65 63 63 68 73 78 75 74 76 70 67 64 69 73 78 79 78 76 71 70 64 62 62 59 60 63 60 62 65 66 64 64 65 65 65 67 68 69 70 72 73 75 74
58 57 58 61 67 72 77 78 77 79 71 72 76 75 73 76 78 76 76 76 72 71 69 67 66 60 64 64 68 68 68 69 71 71 69 70 71 71 73 76 78 78 79 79

GFSCGP_250_spd_066.txt.gz
Wind_Speed
39 37 49 45 36 31 26 25 19 16 17 16 17 21 29 35 32 36 34 34 35 22 14 14 7 16 29 29 38 63 66 69 71 64 63 64 64 65 70 63 66 67 64 66
37 39 52 41 35 36 32 29 28 21 21 21 24 21 29 31 28 31 34 32 33 31 17 12 10 7 18 22 30 33 48 60 74 70 71 70 68 69 68 70 77 68 67 67
44 46 47 44 32 39 33 35 27 22 18 22 20 21 27 29 26 29 30 34 33 36 29 15 12 15 15 15 17 22 25 36 51 68 68 78 79 73 70 62 65 67 67 68
48 50 48 43 39 41 37 33 33 27 24 24 20 24 24 24 26 28 28 31 35 35 34 23 16 12 14 14 18 20 24 27 30 39 53 58 72 79 67 55 62 66 66 61
51 57 52 46 47 38 42 33 34 28 24 26 25 21 28 25 25 28 27 31 30 34 36 30 21 16 13 14 19 23 23 23 25 26 32 33 34 40 45 43 42 46 45 49
54 59 55 49 52 41 45 39 38 36 27 24 31 27 32 26 27 26 27 28 29 30 37 34 27 19 16 16 15 23 25 25 26 23 22 25 26 27 28 30 30 31 30 35
57 57 57 54 53 48 48 47 42 36 31 30 35 25 34 24 28 26 25 29 31 32 34 37 30 27 18 16 16 17 20 28 27 30 25 22 24 24 24 27 27 28 35 36
57 57 55 54 53 52 49 47 42 42 37 36 36 27 36 27 31 29 25 28 28 29 34 34 32 28 24 19 16 16 18 25 33 31 30 27 29 33 33 33 34 30 32 35
61 60 59 56 56 54 50 48 49 48 39 36 36 32 38 33 31 30 27 28 29 27 32 31 31 28 27 23 19 18 19 23 25 27 33 32 30 30 31 33 39 40 37 35
62 61 62 63 62 62 57 55 53 48 40 39 38 39 41 41 32 30 26 31 31 32 31 32 31 29 28 23 21 19 19 23 24 27 26 28 32 30 28 25 24 25 28 28
71 66 65 66 65 62 59 58 56 52 43 40 41 41 47 46 35 29 30 32 33 32 31 32 34 27 29 26 20 21 20 22 26 27 28 27 29 32 31 28 29 27 26 31
74 71 65 65 66 66 63 59 57 50 44 41 39 38 51 49 40 34 33 34 36 35 34 34 32 32 29 31 27 20 21 22 26 28 30 32 32 34 34 34 31 32 27 39
75 76 74 73 70 68 68 65 61 54 48 40 38 40 51 49 42 38 38 37 39 36 37 36 33 33 33 28 30 28 22 19 20 31 36 38 38 40 41 43 42 36 36 40
80 75 72 72 74 73 69 67 63 61 55 50 39 47 52 50 48 46 42 41 37 34 40 41 38 34 36 31 31 33 28 19 18 19 34 42 43 43 45 47 45 39 41 43
84 80 80 81 79 78 75 71 69 65 59 52 52 52 57 58 54 50 45 43 38 37 40 43 45 41 39 38 35 32 36 30 22 18 19 29 40 43 45 45 45 47 45 47
85 85 85 81 82 81 81 82 76 74 75 71 71 63 57 57 58 54 52 48 41 41 43 45 49 43 41 42 39 36 35 34 33 28 22 19 20 31 40 45 46 45 48 48
84 85 86 84 85 85 83 87 86 81 79 79 76 72 71 67 68 63 55 51 45 44 47 51 52 51 45 48 44 38 38 35 33 35 33 28 25 22 24 35 43 47 49 53
89 90 90 86 90 90 82 91 91 88 84 84 82 80 77 76 76 76 71 66 62 51 51 58 58 57 51 48 47 43 42 39 38 37 37 36 32 32 30 31 31 32 34 38
83 86 89 91 97 88 89 92 92 94 87 89 86 85 83 77 73 67 70 71 67 59 53 61 63 61 56 51 54 47 46 45 46 45 42 40 38 38 37 39 37 39 40 40
76 81 85 86 88 89 95 100 99 98 88 92 89 85 80 78 75 68 69 71 62 58 54 63 65 62 60 54 57 55 49 50 51 49 44 44 45 44 43 44 45 46 46 48
73 75 78 79 84 84 86 94 102 101 99 98 97 91 88 81 76 74 73 69 63 57 58 59 66 66 60 58 60 60 63 57 54 52 47 42 48 52 50 51 50 50 52 54
73 74 76 77 77 75 80 84 87 91 88 84 87 87 85 79 75 73 74 71 68 66 59 62 65 68 66 63 63 62 61 60 57 54 55 49 51 52 54 57 58 57 57 58
67 71 73 75 74 75 76 78 78 79 81 82 80 84 84 80 76 74 74 74 72 71 64 66 67 66 65 64 63 63 63 62 60 60 57 55 59 62 64 63 63 63 62 64
63 67 68 69 66 68 71 77 80 75 73 74 74 76 79 79 78 78 78 77 76 75 69 72 73 70 70 71 73 72 72 69 66 57 57 59 64 66 67 68 68 69 71 72
59 61 60 59 61 63 68 72 73 74 73 72 72 73 76 77 79 81 81 79 80 79 77 72 75 75 72 71 71 72 72 72 68 64 63 66 70 74 75 78 76 76 77 78
61 59 57 51 58 61 64 65 66 70 70 74 73 72 76 73 78 76 77 76 78 79 78 73 75 74 76 75 74 75 74 74 71 70 72 70 72 77 80 78 80 81 82 83

GFSCGP_250_spd_069.txt.gz
Wind_Speed
48 42 39 49 32 28 35 33 24 24 13 15 12 12 11 13 23 23 28 31 32 32 31 33 15 12 37 49 58 64 69 71 60 61 61 55 50 62 52 49 55 54 61 57
48 42 50 43 34 32 39 39 35 24 20 20 19 14 12 12 20 19 25 27 29 30 32 32 31 15 19 23 38 57 61 66 70 64 70 61 65 60 61 62 57 53 54 53
52 54 56 48 40 36 44 43 34 25 20 24 21 20 19 16 19 17 24 21 26 28 32 33 33 27 20 23 27 34 43 60 67 76 72 73 71 70 73 68 72 64 60 64
51 55 54 54 45 42 47 48 32 25 22 26 25 26 21 19 21 17 20 18 21 28 30 31 31 30 23 21 28 29 36 39 37 43 34 46 59 67 69 73 71 63 65 68
53 58 59 53 54 47 49 45 32 28 26 27 28 23 21 22 23 16 18 18 18 26 27 32 28 27 27 22 18 22 28 30 33 26 24 24 28 40 44 64 67 66 73 66
56 56 56 53 55 53 47 44 37 36 31 25 34 22 33 26 24 20 18 19 16 21 23 29 28 28 26 26 22 20 20 22 27 25 23 22 22 26 28 29 38 47 49 46
59 54 54 59 57 54 52 50 45 40 33 32 36 26 35 27 29 23 24 22 18 18 21 24 30 33 29 27 27 21 20 20 24 27 24 22 20 23 24 23 27 30 30 27
61 60 51 54 59 60 59 56 48 44 37 37 34 28 37 34 31 27 27 26 22 18 20 23 27 30 30 27 28 27 20 20 18 24 27 27 23 22 24 27 28 28 28 31
58 59 63 54 55 57 55 50 54 47 39 37 31 34 38 41 34 32 30 31 26 21 20 20 24 24 28 27 25 27 27 20 19 21 27 30 31 31 32 32 32 34 34 34
54 60 60 60 56 57 56 53 49 45 42 38 36 41 37 45 41 33 36 35 30 23 23 23 24 26 23 28 28 24 26 26 20 21 24 28 34 37 35 36 36 39 43 45
61 58 60 62 60 57 58 58 54 49 47 44 40 36 41 47 48 37 40 37 35 29 28 26 27 24 23 25 28 27 23 24 25 21 23 27 30 31 36 39 40 42 44 44
72 65 63 60 62 62 63 62 60 55 52 51 44 38 43 46 48 40 39 43 39 36 32 27 26 29 28 26 27 29 28 24 23 24 21 26 32 35 36 39 42 44 46 48
74 74 70 68 65 61 60 60 59 59 57 52 48 41 45 48 47 48 41 40 46 41 36 31 26 27 31 28 28 31 30 30 26 23 25 22 27 37 40 41 41 43 44 45
71 74 77 73 69 69 65 65 66 64 61 55 50 50 50 50 52 51 48 43 46 46 40 33 30 29 32 32 32 33 33 33 33 25 24 25 24 21 32 43 44 44 45 46
74 68 68 74 76 75 75 72 70 65 63 61 58 56 54 51 53 53 55 50 48 49 43 38 38 37 34 35 34 35 35 38 37 35 29 26 24 25 25 25 35 47 51 50
77 83 77 75 80 77 72 73 78 77 72 68 65 62 62 59 53 56 61 59 55 53 44 42 43 44 39 42 43 41 38 39 42 39 37 32 26 24 24 27 25 22 26 29
81 82 85 87 87 84 77 77 78 76 72 70 67 65 60 55 49 58 64 66 60 54 51 53 53 50 48 46 52 51 44 40 43 41 41 39 34 30 28 28 30 30 29 29
85 88 90 88 89 87 82 85 85 84 80 79 74 71 67 63 60 62 69 70 65 65 65 58 56 56 56 50 53 57 48 49 46 45 44 44 43 41 38 35 35 35 34 36
76 81 86 86 86 83 86 90 92 94 86 86 82 77 75 73 72 77 80 82 78 76 71 69 63 58 59 57 58 58 60 53 55 49 48 49 45 46 47 45 43 43 43 42
76 81 82 83 86 85 86 89 93 93 85 91 89 87 85 79 78 80 82 83 80 78 77 73 63 65 60 61 61 60 64 65 63 57 52 52 52 51 54 52 49 49 49 50
74 78 78 79 80 80 85 91 97 94 91 90 89 89 87 83 82 84 86 87 87 85 80 75 71 66 65 64 61 60 62 62 63 62 58 54 57 56 62 64 57 53 57 55
69 69 70 72 73 76 81 85 90 92 96 95 94 94 93 89 86 85 86 88 88 87 84 75 73 72 67 63 62 58 62 63 64 63 61 58 61 65 65 63 61 61 60 59
64 65 67 69 71 73 76 78 79 83 85 89 89 93 95 96 94 92 87 89 88 87 83 75 71 70 67 63 62 61 61 66 67 66 65 65 64 66 67 66 67 66 63 65
65 67 66 67 69 73 73 74 73 78 77 80 83 80 84 85 89 86 91 94 91 85 86 84 80 72 68 66 64 65 63 64 66 67 66 67 69 71 74 74 76 72 70 71
61 60 62 63 66 70 74 71 72 76 77 76 79 77 71 75 79 75 81 88 89 86 84 86 83 75 72 71 70 70 68 68 72 72 73 75 76 78 79 79 79 78 78 77
56 58 58 60 63 67 71 69 68 70 71 69 73 75 71 69 71 69 71 78 83 86 86 88 85 79 76 75 77 77 76 74 75 78 81 80 81 82 81 80 81 83 84 83

GFSCGP_250_spd_072.txt.gz
Wind_Speed
64 49 43 54 52 44 41 41 43 38 31 29 20 23 19 14 16 19 16 13 16 18 21 14 16 12 11 30 56 57 57 64 57 55 49 46 49 41 49 53 52 52 49 50
54 38 51 53 53 44 43 49 47 35 33 32 23 22 21 19 16 19 20 8 14 18 21 23 15 17 12 10 22 52 58 57 67 63 60 57 54 52 45 44 51 58 49 43
47 46 55 54 53 47 47 49 51 37 32 31 30 28 27 23 23 20 19 10 11 14 18 24 23 17 19 14 14 19 37 58 62 65 66 66 66 58 61 60 56 54 64 59
48 51 55 52 50 51 49 49 53 40 33 35 34 33 34 28 24 22 22 14 10 13 15 18 23 29 24 20 17 13 21 27 37 51 58 68 68 74 68 62 64 66 61 61
50 54 58 53 53 58 56 51 44 40 33 35 39 36 36 32 24 25 27 20 15 14 13 16 19 24 29 24 19 19 12 17 26 29 34 55 60 63 65 68 57 62 69 66
54 56 57 52 54 55 59 53 45 40 40 35 44 34 36 34 26 29 30 25 22 17 16 15 17 19 23 27 25 20 18 11 16 23 28 34 39 44 47 46 42 47 51 55
58 55 54 51 53 50 55 58 55 48 45 43 48 34 38 37 33 31 32 29 25 23 16 18 16 16 18 21 26 26 21 18 11 15 22 25 28 29 26 29 32 33 35 35
58 59 54 53 52 54 56 62 56 52 47 47 45 32 37 41 38 35 35 29 28 25 24 19 16 16 17 19 22 26 25 22 18 12 19 24 27 26 23 24 30 33 31 35
55 60 59 55 57 50 49 48 58 55 54 49 44 37 39 44 43 40 38 32 32 28 26 25 24 21 16 17 19 23 25 24 22 19 12 18 26 28 27 26 26 32 36 37
57 62 63 62 59 57 49 52 53 53 51 51 50 46 45 47 46 44 43 40 34 32 31 29 26 29 21 15 15 21 23 26 25 24 21 14 21 28 32 34 32 33 35 38
63 63 64 63 58 61 60 54 58 53 52 52 53 51 48 51 48 48 47 44 41 37 35 31 32 32 28 19 15 16 21 23 26 26 25 21 18 24 31 37 40 40 41 43
60 62 63 62 62 62 63 58 59 61 57 54 53 51 51 50 52 51 49 46 45 39 38 36 35 35 34 29 21 16 16 20 24 26 27 25 22 18 23 33 37 36 41 45
68 68 66 63 64 61 64 63 62 57 58 57 57 55 52 54 51 51 50 49 48 44 42 41 39 40 36 35 29 27 22 19 22 27 28 27 26 24 20 20 28 39 41 42
71 70 72 67 64 64 60 62 62 61 59 58 58 59 56 57 56 54 54 54 52 48 46 47 43 43 39 34 33 34 27 26 24 26 30 31 30 28 25 21 18 23 32 39
71 75 78 78 73 70 64 61 63 63 63 62 62 63 63 62 60 58 56 55 53 53 49 48 47 46 46 45 42 39 35 30 27 29 30 33 35 33 30 28 25 22 23 28
68 71 76 83 84 81 78 73 68 63 58 62 63 64 67 63 63 62 61 60 55 52 51 47 49 50 50 49 45 41 40 39 41 33 32 33 36 37 36 34 32 32 27 25
71 75 78 82 81 83 80 78 78 79 75 71 72 70 67 68 69 66 64 65 62 61 57 54 50 52 54 56 53 49 47 46 45 44 38 38 42 41 41 38 40 39 37 34
78 76 78 82 81 79 74 73 76 72 78 86 79 76 75 73 72 72 69 68 68 65 56 53 49 50 57 61 54 53 52 51 50 48 48 45 46 46 45 47 43 44 43 42
81 79 77 79 84 80 77 83 82 78 80 80 76 75 73 76 78 80 79 73 71 66 62 56 56 59 64 64 62 62 57 55 55 54 52 52 49 50 52 53 53 49 48 50
83 83 86 84 83 84 88 90 92 91 92 87 86 83 82 82 79 77 74 71 68 67 68 66 64 65 66 69 68 71 66 63 57 59 55 55 55 54 56 55 58 58 58 55
78 76 77 83 85 87 89 90 91 91 92 94 93 91 89 89 91 87 83 81 78 76 79 78 79 78 80 79 79 79 75 74 65 61 61 61 60 60 58 58 61 62 64 63
76 75 75 78 80 83 86 90 96 97 97 97 97 97 96 95 95 94 93 93 91 85 82 83 83 81 81 80 80 80 77 72 71 69 68 68 63 61 61 58 58 63 66 65
69 72 75 74 77 79 82 85 87 89 92 93 94 97 96 95 93 92 93 93 93 91 92 94 93 91 91 88 84 82 80 78 76 70 73 69 66 61 62 65 64 66 69 70
68 70 70 71 72 75 75 76 79 83 86 88 88 89 90 90 89 86 84 88 91 90 89 91 91 92 91 91 90 88 86 81 79 74 71 70 66 65 62 66 66 68 71 74
63 63 66 65 68 69 71 70 73 75 78 81 83 82 81 83 82 83 82 80 83 86 90 94 95 95 95 93 91 89 87 83 81 80 75 72 72 70 74 72 71 74 76 79
62 62 62 64 65 67 68 67 71 72 74 76 78 78 78 79 77 76 76 74 74 76 79 85 87 89 90 91 94 93 91 88 83 79 75 77 77 78 77 79 79 81 84 85

GFSCGP_250_spd_075.txt.gz
Wind_Speed
72 71 63 62 62 58 62 53 49 47 48 50 46 42 35 30 24 21 18 18 16 7 11 17 19 12 11 25 44 55 52 49 46 42 40 45 35 51 48 49 48 47 51 50
60 50 59 59 58 57 52 47 52 48 48 50 47 44 37 29 27 23 20 19 19 14 10 11 17 14 11 8 25 44 61 61 57 54 49 48 48 44 55 54 49 56 52 49
53 51 56 58 57 54 49 49 57 49 51 49 49 45 40 32 26 24 24 22 21 18 13 11 11 14 17 10 10 13 28 56 61 65 62 55 54 51 49 53 55 50 55 54
51 51 53 57 57 55 49 55 60 49 51 50 45 47 43 38 27 31 28 25 26 20 16 16 12 12 13 16 11 10 10 19 34 56 58 65 63 61 60 56 57 59 52 55
48 49 59 61 58 58 53 60 60 52 51 53 47 47 47 40 32 32 32 29 27 26 22 19 17 9 10 13 15 13 11 10 19 28 39 53 51 63 63 62 60 61 65 61
48 54 60 58 60 58 56 59 59 55 49 49 54 51 50 45 37 32 35 32 29 29 27 20 18 16 13 11 15 15 15 13 14 16 21 28 33 37 40 47 55 57 57 61
54 65 55 59 62 59 56 60 55 57 50 49 59 56 54 47 40 35 37 36 32 31 29 23 17 17 16 15 13 16 16 15 13 15 13 19 24 30 32 33 36 39 48 53
48 54 62 54 61 59 55 57 50 55 57 53 53 48 51 50 47 40 38 39 37 34 26 25 19 19 21 22 18 13 15 17 16 15 14 12 15 24 28 29 30 32 35 40
55 58 59 61 63 62 54 52 51 53 58 57 50 48 47 55 52 45 41 39 41 37 30 28 27 25 23 24 25 21 14 14 17 16 18 16 15 14 25 28 26 27 31 35
54 66 69 61 65 60 57 57 55 51 52 61 59 57 53 53 58 52 47 41 41 42 41 35 30 29 24 25 29 27 21 23 17 17 19 19 20 16 14 24 27 28 28 27
52 58 59 63 56 59 56 54 58 54 47 53 59 61 60 54 56 54 51 47 46 44 45 43 39 35 33 28 28 27 27 23 23 20 22 19 20 19 17 14 21 33 36 34
55 55 54 59 60 58 61 59 59 57 52 48 56 62 59 58 57 61 57 54 51 50 47 44 42 43 39 35 34 31 29 29 24 20 21 18 21 23 22 19 17 17 29 39
65 57 63 61 59 64 60 64 54 55 63 57 54 59 64 62 59 62 60 56 55 52 50 47 48 46 44 38 35 33 33 32 28 23 22 20 19 20 25 25 23 21 20 24
77 68 64 66 70 65 65 68 62 58 58 59 63 61 62 65 63 65 66 61 61 56 55 54 51 48 47 46 41 40 40 34 34 28 28 22 24 23 23 27 28 26 25 23
81 81 76 72 69 69 66 63 58 61 62 61 64 67 65 66 64 64 62 56 58 58 59 56 54 52 50 49 47 45 47 47 40 41 33 32 26 28 29 25 29 30 28 28
69 71 76 74 73 65 61 63 63 61 61 64 69 71 72 67 64 67 64 61 57 57 55 56 58 56 53 51 50 47 48 50 47 44 40 37 38 35 34 34 32 36 37 33
70 71 77 77 74 72 63 59 60 68 65 69 70 73 72 67 68 68 66 64 64 65 65 62 64 62 58 56 55 52 50 51 52 50 49 47 43 41 39 39 35 37 41 40
76 75 75 79 78 79 81 78 73 67 68 72 71 69 66 67 68 73 73 71 69 68 68 69 68 67 65 63 60 58 57 52 55 52 53 53 50 48 46 47 45 39 41 45
77 77 76 77 79 83 83 82 85 86 85 79 77 73 68 64 63 69 68 71 73 74 74 73 71 70 69 69 67 63 61 60 57 54 58 61 58 53 56 58 50 51 47 50
77 79 76 75 75 77 84 84 88 90 95 89 87 86 83 80 78 79 76 76 77 77 77 74 75 74 73 70 70 67 65 63 60 59 61 63 65 66 66 68 62 58 53 54
81 80 81 81 78 77 78 81 84 88 93 90 94 93 91 90 90 89 93 92 88 86 85 81 81 82 82 82 81 70 67 63 64 66 68 67 70 74 75 76 69 61 62 61
84 84 83 86 83 83 89 86 85 87 92 92 91 91 93 95 94 91 90 90 90 92 91 86 80 78 75 75 74 73 71 71 74 75 78 80 81 78 76 74 70 69 64 63
80 83 89 89 87 87 88 88 89 89 87 89 92 94 96 98 99 100 99 98 97 95 94 91 89 91 92 88 83 83 83 83 84 85 85 83 80 79 78 76 74 72 68 64
81 84 85 85 87 88 92 89 87 88 90 92 95 98 97 97 97 95 95 96 98 98 98 97 95 94 95 97 100 98 95 92 89 88 87 86 84 83 82 81 78 75 71 70
75 80 81 83 83 86 89 87 87 89 88 88 88 89 91 94 94 93 92 92 91 91 91 92 93 93 94 92 93 98 102 102 100 98 98 96 95 95 92 88 85 81 78 77
73 74 75 77 77 82 83 81 80 82 81 82 84 84 85 87 88 89 90 89 86 85 84 82 84 85 85 87 88 90 93 93 94 95 97 97 95 93 90 89 88 83 81 80

GFSCGP_250_spd_081.txt.gz
Wind_Speed
87 85 85 85 88 86 82 81 80 76 73 80 65 46 41 40 30 32 38 40 37 33 29 19 18 21 23 22 19 20 17 39 42 36 35 46 42 41 43 53 58 63 54 47
86 81 86 89 90 87 85 84 78 69 72 72 56 46 36 42 32 35 41 41 39 35 32 22 18 18 20 20 19 20 18 19 42 39 35 50 45 42 38 44 49 56 57 50
91 89 91 90 91 91 86 83 82 68 63 63 57 36 34 41 34 36 40 41 41 36 35 26 18 19 21 18 19 20 17 17 28 47 44 43 44 50 44 43 44 52 53 49
92 94 96 96 91 91 87 81 71 60 57 51 56 39 35 43 34 36 41 43 42 40 37 36 20 22 22 16 11 14 17 18 18 32 52 53 55 50 51 49 49 48 55 55
92 92 93 90 88 82 63 57 58 56 55 55 52 35 34 42 39 39 44 45 41 38 41 35 26 23 24 17 15 9 11 15 17 19 24 41 64 61 59 53 52 53 55 57
92 91 82 82 72 59 49 56 59 56 54 54 41 33 30 39 44 44 43 46 41 43 41 42 30 26 24 20 17 12 6 9 14 14 17 18 27 51 68 61 61 58 61 64
83 80 71 67 51 49 51 51 59 55 56 39 38 34 29 39 47 45 42 47 43 46 42 36 33 29 27 26 23 20 14 7 12 11 15 15 15 20 34 53 69 71 69 67
74 70 58 54 43 42 45 54 54 51 47 34 37 29 34 43 46 45 42 47 42 45 42 37 34 29 30 28 26 25 21 15 17 15 16 17 17 16 15 23 33 43 58 66
59 55 48 44 41 39 43 46 51 49 45 38 31 31 46 45 42 46 44 47 50 43 44 36 34 34 32 29 29 29 25 24 21 19 18 19 18 16 14 15 15 21 30 41
54 45 45 39 37 39 45 54 55 54 49 37 35 37 41 45 42 40 50 47 51 48 43 40 41 37 31 33 32 32 31 29 27 23 24 22 21 19 14 13 14 14 14 19
47 40 40 35 39 42 52 56 54 53 47 43 44 41 45 46 46 42 45 48 47 47 50 48 45 39 37 35 34 33 34 35 32 31 32 31 28 24 23 18 14 12 11 13
44 38 40 38 41 48 51 62 58 53 48 44 43 42 44 47 49 43 40 50 52 51 49 47 47 42 39 40 38 38 38 40 37 33 32 35 37 37 28 28 28 24 22 16
44 40 45 41 46 55 52 62 58 54 47 44 41 39 43 48 47 43 38 44 51 51 48 48 45 43 43 44 44 41 41 43 43 42 39 34 36 37 34 31 33 34 33 31
44 45 50 49 49 57 59 61 53 53 50 48 44 46 46 47 54 55 52 48 39 42 53 53 53 51 47 49 49 46 47 46 46 45 45 44 40 37 40 40 42 39 38 38
47 51 56 51 51 61 64 58 57 55 54 58 54 51 55 59 61 60 60 55 48 38 40 51 58 60 56 51 51 48 45 48 48 47 49 50 47 43 41 42 42 43 43 44
52 58 62 57 55 57 63 62 58 56 59 56 55 55 61 67 63 65 68 64 50 49 46 43 48 56 60 56 54 54 52 53 53 54 51 51 52 51 49 46 42 43 44 45
53 62 68 65 60 54 59 66 62 67 63 65 64 63 66 69 72 73 68 61 58 56 51 49 51 54 54 56 56 58 60 59 57 55 53 55 55 55 56 52 50 49 49 46
53 64 72 73 64 58 58 65 65 63 67 72 70 66 61 62 67 69 65 63 64 64 62 57 59 60 57 56 54 55 56 58 60 60 61 59 55 52 54 56 55 54 53 53
55 65 72 80 73 66 66 64 65 66 65 69 70 64 63 64 72 71 66 63 62 59 60 67 69 65 64 63 60 60 61 61 63 62 60 59 57 57 60 59 60 59 58 58
59 64 69 79 79 74 74 71 64 70 76 72 71 67 72 68 63 66 67 64 63 63 64 69 66 64 64 64 64 63 65 65 62 60 59 62 64 64 64 63 59 64 65 63
62 64 64 77 84 79 80 77 74 74 72 75 73 71 71 71 69 71 70 67 63 63 69 71 68 67 70 69 67 68 69 70 71 72 72 72 72 72 69 68 68 69 69 68
63 65 65 71 75 80 87 81 82 79 78 75 72 76 78 82 84 79 71 71 75 73 73 71 70 68 68 70 71 73 74 74 72 71 71 73 74 73 73 70 71 77 80 79
61 64 67 67 78 85 82 85 87 83 82 77 76 77 80 83 88 88 83 79 75 76 82 82 80 80 77 74 74 74 76 79 78 79 81 83 85 86 87 86 88 93 91 89
59 61 68 69 71 76 85 87 84 84 87 87 86 82 81 81 81 83 90 90 86 83 78 74 74 75 76 77 81 83 86 88 88 89 90 92 96 99 102 99 96 93 90 80
58 63 68 71 71 74 78 78 82 86 89 91 90 90 89 88 88 89 89 89 91 91 91 92 91 92 93 95 97 99 101 104 107 108 108 110 111 113 113 111 107 99 95 92
57 61 63 69 67 74 78 81 84 82 78 76 83 89 89 91 92 93 89 90 94 94 96 101 103 103 104 105 108 110 111 109 108 106 105 106 108 111 110 110 109 107 103 103

GFSCGP_250_spd_084.txt.gz
Wind_Speed
76 75 78 84 82 83 81 79 77 73 74 74 79 73 66 67 65 51 43 38 35 41 41 40 33 27 18 17 25 25 28 27 20 30 33 23 37 47 47 52 53 60 63 62
77 74 79 77 79 78 79 82 79 75 76 77 81 74 66 64 53 42 35 44 37 41 43 42 35 29 25 16 21 27 26 24 21 17 37 39 33 36 49 46 49 52 56 61
76 76 77 76 80 78 75 76 77 82 82 82 86 80 72 63 49 39 40 45 37 41 44 43 37 33 28 17 18 21 21 19 17 16 15 37 42 37 44 52 44 46 45 48
82 80 82 85 85 86 83 83 86 83 81 82 90 81 73 59 41 40 39 41 39 41 46 44 39 36 31 20 18 18 19 19 16 15 15 19 39 40 37 47 49 50 44 44
83 83 82 88 89 85 84 86 84 85 84 76 74 79 56 45 43 38 40 41 43 44 46 45 42 38 34 26 21 15 19 18 11 12 13 13 17 37 39 46 50 49 52 49
85 83 85 88 86 88 86 85 82 75 74 68 60 69 48 42 39 38 45 43 43 44 46 46 42 40 33 28 24 18 18 19 18 8 12 14 12 14 34 52 53 56 52 56
75 72 74 75 81 81 81 75 74 71 63 43 55 50 33 43 39 38 48 41 42 49 48 46 44 41 37 35 28 24 19 21 19 10 11 16 18 16 16 17 27 44 51 55
68 67 67 73 76 74 65 66 60 55 46 43 47 35 38 44 39 45 48 42 42 49 51 49 45 39 38 36 30 26 23 19 22 18 16 15 17 20 24 22 19 21 31 44
63 64 69 71 70 63 57 58 47 44 39 45 43 42 48 45 46 46 46 40 42 47 52 51 46 44 41 38 33 29 26 23 22 23 24 23 22 23 23 25 25 22 22 25
65 68 66 63 62 56 46 44 41 38 39 41 43 46 55 49 43 48 50 42 40 42 48 46 45 45 40 38 37 34 29 26 26 26 27 27 25 24 25 25 26 26 23 22
67 66 61 55 50 48 35 37 38 36 41 44 42 51 50 49 48 46 44 40 41 41 40 46 47 48 43 39 39 38 33 31 30 29 30 33 31 27 28 31 32 32 30 28
67 63 57 47 42 44 32 36 37 38 45 48 51 49 40 38 43 44 42 41 41 43 43 46 49 50 47 44 40 39 37 34 33 33 34 33 33 32 30 29 32 32 33 32
63 57 55 45 39 41 35 37 38 46 51 50 55 47 32 40 45 46 43 42 38 40 42 42 43 47 49 50 48 43 40 38 38 38 38 38 38 38 34 34 34 34 35 36
60 55 46 43 39 41 37 41 42 55 54 52 54 54 39 31 40 47 48 47 42 41 43 45 47 46 45 44 37 34 41 46 45 44 43 42 43 43 40 39 39 40 37 37
51 46 42 43 42 45 44 46 49 60 58 53 58 54 50 35 40 43 45 45 44 44 45 48 49 49 48 48 47 50 48 46 47 46 43 45 42 43 43 42 43 43 44 43
45 45 43 45 47 48 45 49 43 62 57 53 59 57 56 55 45 45 44 37 43 52 50 52 47 47 52 51 51 50 51 50 49 51 51 53 48 47 46 46 44 45 47 48
42 43 45 49 53 52 50 55 53 65 67 65 61 62 59 56 61 50 50 47 52 53 55 49 47 45 50 57 58 58 56 55 57 57 54 53 54 54 55 56 51 51 50 51
39 43 45 54 56 54 55 58 59 58 69 71 65 63 62 61 64 67 55 59 57 66 66 58 54 50 51 50 50 52 54 55 56 58 59 60 60 62 59 55 55 56 56 55
41 43 45 55 58 56 59 60 62 64 70 72 66 66 66 65 67 61 65 72 74 69 70 61 57 59 58 57 57 56 55 55 55 55 56 58 59 59 58 58 58 60 59 57
39 43 43 52 60 63 64 64 64 67 69 68 71 68 69 71 69 66 66 69 72 72 75 74 68 60 57 59 62 63 66 65 64 65 65 65 63 63 62 63 63 62 60 61
43 45 48 55 60 67 68 67 64 71 69 68 73 73 72 71 71 70 68 69 71 70 70 71 72 72 68 66 66 64 61 62 63 64 63 61 61 64 66 66 63 65 67 69
49 48 53 56 56 66 76 71 69 71 71 68 74 77 78 76 72 72 73 71 72 70 69 69 72 72 69 68 69 69 70 71 69 68 66 68 69 70 68 70 72 75 77 74
49 51 55 58 58 65 78 80 70 68 71 70 70 68 68 74 76 77 78 77 78 79 79 75 73 72 71 71 74 75 75 71 72 73 72 77 77 78 77 76 74 72 75 78
52 55 56 57 58 61 72 83 80 72 72 74 75 74 73 72 72 75 78 79 80 80 82 80 77 78 77 76 76 76 78 79 81 83 86 83 77 76 76 76 78 80 80 81
52 52 49 55 61 62 63 74 85 86 80 77 80 83 84 81 78 77 76 77 80 81 82 83 84 86 86 87 89 90 88 86 81 82 79 80 80 82 84 86 88 92 96 100
51 52 54 57 62 67 68 70 84 89 90 87 86 85 87 87 88 86 85 85 85 85 85 86 87 88 88 87 86 87 90 92 94 96 96 95 96 98 101 102 103 106 109 111

GFSCGP_250_spd_087.txt.gz
Wind_Speed
80 76 70 71 69 72 70 70 76 72 76 83 79 73 68 68 70 63 57 52 53 51 47 38 43 38 36 34 31 28 28 31 26 21 18 23 20 32 36 34 41 48 43 47
77 74 75 75 72 67 66 67 71 76 78 82 80 71 67 66 65 62 59 55 55 52 48 40 42 40 37 33 31 27 24 29 23 23 17 20 25 20 38 42 42 47 47 52
75 76 79 77 74 72 72 71 71 71 75 78 75 74 70 65 67 65 61 58 55 55 48 42 44 41 39 32 31 27 22 24 23 23 18 10 26 30 25 23 37 53 45 54
83 86 81 77 74 75 73 70 73 74 72 73 73 67 65 64 67 68 64 59 53 51 46 42 46 44 42 36 34 30 21 19 21 21 19 10 7 24 36 31 28 29 47 50
82 83 79 77 77 74 73 77 79 77 75 73 72 76 57 72 67 68 62 53 52 51 46 47 51 45 44 38 37 33 23 18 21 20 19 11 8 7 20 33 35 31 35 42
79 80 79 77 77 75 75 73 76 77 79 75 77 83 58 70 69 64 57 53 56 49 50 53 56 43 46 40 40 35 29 20 19 19 18 13 10 10 4 11 23 32 36 39
77 76 82 80 80 78 75 77 77 76 74 72 78 69 61 62 64 67 56 55 53 52 52 53 54 47 45 42 43 39 30 25 21 20 17 13 12 11 12 10 7 8 21 38
65 68 73 81 83 82 83 81 76 74 72 70 66 60 62 62 59 58 51 59 51 50 50 54 56 49 44 43 45 41 36 29 23 23 20 18 16 15 17 14 13 12 10 10
60 61 69 74 75 76 74 70 69 65 62 59 58 59 52 42 39 44 50 53 50 48 50 54 55 49 46 45 44 41 37 32 26 26 24 22 21 20 19 19 19 19 20 20
56 58 58 61 63 63 64 62 59 55 56 56 49 43 36 34 38 43 50 47 50 52 50 54 54 51 49 46 44 41 39 35 32 28 25 25 24 23 22 22 22 21 23 22
57 59 59 59 61 59 61 57 50 50 52 42 39 32 33 34 43 47 49 51 52 54 49 51 57 54 50 46 45 43 42 40 36 32 30 29 27 27 27 26 26 24 23 24
58 58 57 60 59 61 58 51 44 45 41 36 35 34 43 48 47 47 52 55 53 53 49 44 49 57 56 50 48 45 43 42 40 38 35 34 36 33 29 26 28 28 28 28
56 58 59 58 57 58 56 51 41 41 34 35 35 47 50 52 49 51 51 53 52 47 44 45 41 48 57 52 47 44 45 43 40 39 39 36 38 39 34 33 32 33 31 32
61 61 60 59 58 58 56 51 37 37 35 39 45 52 58 57 54 53 51 48 52 48 42 39 42 38 46 52 46 44 45 45 43 40 41 42 41 40 40 40 39 39 37 38
63 61 59 60 56 53 47 48 36 38 38 45 54 58 57 57 56 54 53 42 52 49 45 42 41 43 44 46 53 47 48 47 45 46 49 51 50 49 47 45 43 41 40 41
62 60 59 59 58 50 41 48 37 39 42 56 61 60 55 58 46 44 49 47 44 46 43 42 47 49 49 52 51 50 50 48 47 48 52 52 51 49 49 50 50 51 49 48
60 60 58 57 55 47 43 52 40 44 54 65 63 60 58 49 50 45 46 43 44 43 46 49 51 51 56 51 54 53 54 55 55 54 54 54 55 54 53 54 54 54 54 52
52 53 52 50 47 44 47 54 44 49 54 69 66 65 64 57 51 47 47 45 52 50 49 50 49 55 54 54 55 54 55 55 55 56 59 59 58 57 57 56 57 58 57 59
46 45 46 45 45 46 53 55 48 56 54 70 66 70 71 67 66 57 57 53 57 57 57 56 63 54 58 59 55 49 50 48 52 53 55 57 58 58 58 59 61 62 63 64
43 41 38 39 43 48 57 58 51 56 56 76 72 71 72 72 73 70 61 59 53 61 66 66 63 63 65 63 61 54 54 52 55 55 56 57 58 58 59 60 61 61 62 65
41 41 41 42 41 48 59 60 54 60 61 64 77 73 72 73 77 78 70 73 68 66 72 73 72 70 70 62 62 62 62 64 62 62 67 68 68 68 71 71 71 72 71 70
40 40 44 42 42 51 62 61 58 58 64 65 77 77 76 75 75 80 77 74 71 74 71 70 69 79 78 75 74 69 66 68 70 69 69 69 69 69 70 69 70 70 73 74
42 45 46 46 49 55 61 60 63 61 65 72 73 80 82 76 81 81 81 81 78 79 78 75 78 79 82 82 80 77 73 71 73 75 76 76 78 77 78 78 75 77 75 76
46 49 47 53 53 54 55 58 63 68 66 71 79 75 80 85 79 81 78 78 81 79 79 83 82 82 82 81 79 77 80 80 81 80 80 80 81 80 78 80 79 79 80 81
49 50 51 49 52 55 55 58 60 68 71 69 73 79 75 76 88 90 86 83 82 81 84 88 88 87 86 85 84 84 85 85 84 85 83 82 82 84 84 86 87 88 90 93
51 50 49 48 50 53 59 60 62 65 76 79 77 79 81 86 86 91 92 91 90 86 85 88 89 87 87 89 91 90 89 88 89 90 91 92 92 92 92 95 95 90 87 88

GFSCGP_250_spd_090.txt.gz
Wind_Speed
99 98 90 86 87 83 90 85 80 74 74 72 71 62 64 68 70 71 68 65 63 56 55 54 51 48 46 41 36 36 32 30 28 24 22 19 11 20 25 29 30 23 23 32
106 98 94 99 93 91 87 90 80 70 70 72 64 57 64 62 67 71 70 66 60 56 56 57 54 52 48 39 38 37 31 29 25 21 20 19 15 22 29 31 34 34 29 32
106 101 97 90 89 85 85 87 82 72 69 68 59 45 57 59 63 64 64 61 59 59 58 53 52 53 48 40 40 38 31 28 24 21 18 20 15 19 27 34 32 37 36 37
86 83 82 79 77 74 72 76 75 69 64 64 64 48 55 60 59 58 59 60 57 55 54 56 59 59 52 43 41 39 33 27 25 19 18 15 13 5 29 33 33 38 38 42
74 80 78 76 77 75 73 76 73 70 68 66 62 61 51 62 62 63 60 59 58 58 58 60 60 60 56 41 42 40 35 30 25 19 17 13 7 6 7 33 29 28 30 35
76 76 75 73 74 72 72 75 73 73 75 65 67 67 46 62 66 65 63 63 63 60 58 62 64 57 49 40 45 43 39 33 30 22 20 13 6 4 6 4 23 34 34 32
78 76 78 78 77 75 76 80 78 76 72 67 68 62 60 63 67 68 69 68 65 64 59 56 56 54 50 44 48 47 42 38 32 29 23 17 14 7 3 1 6 9 16 30
75 77 78 78 79 80 78 81 81 76 74 70 70 64 67 65 64 65 68 66 61 59 55 57 53 56 52 48 49 49 45 40 38 31 28 23 19 18 12 8 5 4 8 11
71 72 75 79 82 80 76 77 76 77 77 76 72 70 68 70 65 60 59 62 63 57 57 58 58 57 54 48 50 52 47 44 41 36 29 27 23 22 18 15 14 11 5 4
66 66 67 67 67 66 70 69 71 74 75 72 73 73 70 66 61 59 57 58 58 55 63 63 57 55 53 48 51 51 49 46 44 40 37 32 27 26 25 22 18 15 13 12
63 62 60 61 62 61 61 63 63 64 65 64 65 66 60 57 53 49 43 45 50 49 50 52 57 56 49 48 49 50 49 45 44 43 40 37 34 30 28 27 24 23 21 20
65 64 62 61 57 57 55 57 54 55 56 56 56 50 52 44 43 33 37 37 36 39 46 54 54 52 50 48 49 49 49 47 45 43 43 40 38 35 33 32 31 30 27 24
60 61 58 60 59 54 50 52 51 53 52 52 39 42 38 39 30 33 32 31 36 46 46 52 53 51 45 47 48 50 48 48 47 44 44 44 43 40 38 36 37 37 34 32
55 58 60 59 54 52 52 53 51 47 43 38 39 37 30 37 34 39 37 40 40 48 50 50 51 47 44 49 49 49 51 50 48 44 45 46 45 42 42 40 38 40 41 40
54 57 59 56 52 51 51 51 49 43 39 32 35 30 41 43 44 49 46 46 48 47 51 48 45 45 43 46 47 50 51 52 51 49 50 49 50 48 47 48 47 46 46 44
50 52 55 54 51 51 49 52 43 40 36 29 31 32 46 48 47 49 52 54 52 51 48 45 43 38 39 39 47 51 48 52 51 50 51 54 56 57 56 55 55 54 54 51
52 52 53 52 49 47 50 53 45 41 38 30 34 42 56 49 48 52 53 55 46 51 48 48 47 46 45 46 47 51 54 55 54 54 54 54 55 55 55 56 57 55 57 55
52 51 52 53 52 50 53 49 45 44 37 34 40 52 58 54 57 56 57 51 53 49 50 54 51 50 47 48 52 51 54 58 60 60 58 57 56 56 57 56 56 55 56 59
51 51 51 49 51 49 53 51 47 40 39 42 48 60 64 55 53 55 61 66 59 53 51 61 59 59 55 57 59 59 60 58 61 60 62 62 61 62 63 64 65 68 70 66
43 43 46 50 50 51 54 52 47 40 43 49 53 63 68 63 62 59 63 66 67 63 62 61 60 64 62 63 61 58 57 58 57 54 62 66 65 62 63 63 62 62 66 67
43 44 47 47 46 48 51 49 43 40 48 52 59 71 72 71 66 71 66 66 71 72 70 66 65 66 64 57 66 63 65 62 60 57 57 60 61 61 63 65 64 65 66 66
44 45 45 44 44 47 49 44 43 45 53 59 66 80 79 74 73 66 74 69 71 70 72 71 73 70 68 68 66 67 65 68 67 61 65 67 65 64 66 68 69 68 70 72
43 43 45 45 47 51 48 44 43 46 56 65 70 85 85 79 79 77 72 79 75 77 74 75 71 74 75 74 73 73 73 74 73 74 72 75 70 68 75 75 77 79 78 77
43 44 46 45 48 51 50 47 46 48 57 68 71 91 88 85 85 87 88 89 86 83 79 78 78 75 72 77 74 75 77 74 75 78 77 75 81 79 77 78 81 86 86 85
43 47 48 49 49 49 47 47 47 49 57 66 75 81 96 92 89 88 93 91 89 90 89 86 80 76 74 75 79 79 80 80 80 86 83 82 89 90 83 85 82 84 85 85
45 50 52 50 50 49 50 52 51 52 57 63 72 78 82 98 96 94 90 93 95 95 95 92 91 89 84 87 86 86 88 90 92 90 92 93 95 95 96 96 93 92 92 92

GFSCGP_250_spd_096.txt.gz
Wind_Speed
93 93 87 97 103 103 104 98 94 90 87 80 77 80 77 73 72 65 63 62 62 59 59 59 57 55 57 55 55 55 56 53 50 44 38 32 29 28 24 23 25 28 24 21
83 74 92 102 106 106 108 100 97 93 88 86 81 76 75 72 74 72 69 68 67 65 65 64 62 59 61 62 62 60 57 53 49 41 36 31 28 29 26 22 23 27 24 20
74 77 88 100 106 104 103 100 99 98 91 86 86 78 80 76 72 77 76 74 69 66 63 62 63 63 63 60 58 59 53 52 47 41 38 30 29 30 24 21 24 26 26 18
65 70 79 91 100 102 100 102 99 98 94 89 85 86 86 82 82 77 74 74 72 71 68 67 65 66 61 56 55 52 49 49 44 43 37 29 30 30 23 20 25 26 28 24
65 69 77 81 95 100 99 105 101 97 92 89 90 89 87 89 91 86 82 77 73 72 69 66 64 63 58 52 50 47 46 47 44 42 36 29 32 30 20 18 22 32 31 35
56 62 68 73 82 88 98 102 101 100 97 93 94 93 89 91 94 93 89 83 81 76 78 71 67 67 61 55 49 45 47 47 42 46 36 31 34 31 19 15 17 35 34 37
57 59 59 62 70 71 80 93 97 95 94 91 94 93 92 94 92 88 88 86 80 75 71 67 65 59 55 55 51 48 49 48 41 45 38 35 37 32 21 14 10 29 41 36
56 56 55 55 58 64 67 76 85 90 89 86 87 89 89 92 92 90 89 83 78 75 69 66 60 58 56 55 51 51 51 50 45 46 41 40 41 36 28 22 14 15 33 41
54 53 52 54 59 49 47 52 59 70 77 80 82 83 86 86 85 86 83 77 75 69 66 63 59 56 55 54 54 56 55 55 51 46 43 44 46 41 37 28 22 19 20 32
52 50 50 52 55 57 52 53 54 45 53 65 77 81 79 75 71 67 68 65 67 69 58 54 56 59 59 61 59 59 60 60 54 47 45 48 51 45 42 35 31 26 26 25
50 49 51 52 49 55 59 57 54 54 56 55 54 58 59 56 56 57 59 61 60 57 59 64 61 63 64 67 64 64 62 57 54 48 48 52 55 50 47 42 38 34 33 30
52 50 48 48 50 49 51 51 56 58 60 62 60 58 58 54 54 53 52 57 61 63 66 67 65 66 69 68 70 68 64 59 56 48 50 54 58 55 51 47 42 38 36 34
57 51 51 51 50 47 48 49 51 52 52 52 55 54 53 55 55 56 58 62 67 68 68 68 69 70 71 71 71 70 62 62 54 48 51 56 62 60 55 51 47 43 39 37
60 58 55 55 54 54 55 53 50 51 54 54 59 57 58 59 59 57 59 59 60 62 58 55 56 58 60 64 66 64 61 58 49 49 50 58 64 63 58 55 50 47 43 41
62 62 60 57 56 54 54 55 55 56 56 56 55 55 54 52 51 50 53 51 46 34 26 29 32 34 36 39 46 49 51 51 44 47 48 58 64 64 59 54 51 48 43 45
63 63 62 58 58 57 56 55 55 54 51 51 52 49 48 45 46 46 45 41 23 21 15 10 14 22 25 30 38 42 42 45 48 45 51 57 63 63 58 55 54 54 51 48
63 65 60 60 59 58 55 55 55 52 49 49 47 48 48 44 42 40 41 26 35 30 29 19 11 7 9 20 26 33 37 43 49 50 56 57 61 59 54 54 56 57 57 56
57 50 53 56 58 57 54 55 55 54 53 52 49 46 43 39 38 34 36 32 48 46 36 20 19 26 19 24 28 29 40 45 48 51 52 54 58 56 50 47 54 56 53 62
48 45 47 51 53 53 53 53 50 47 45 44 42 40 41 39 35 33 36 48 55 45 40 39 43 24 30 15 35 40 38 40 45 45 49 54 57 56 51 53 57 54 54 60
45 45 49 52 52 52 50 45 43 43 43 41 41 41 42 39 36 35 41 52 58 55 55 57 51 46 46 57 48 44 41 42 45 50 51 52 54 47 46 55 59 65 66 69
48 50 51 52 51 48 47 46 44 45 43 44 45 46 45 40 40 37 52 49 68 62 63 63 58 53 54 46 53 49 51 51 52 54 55 58 59 56 57 63 69 70 71 72
46 48 51 53 52 51 47 46 46 47 46 48 50 46 44 44 44 43 61 59 62 76 69 73 72 64 61 57 55 61 59 60 56 57 62 64 67 67 61 63 67 70 70 74
43 45 48 50 50 46 44 43 45 47 47 47 46 47 49 49 50 51 66 72 67 74 85 82 75 69 67 66 60 61 67 62 71 67 63 73 70 73 73 66 69 77 82 82
40 43 46 48 49 45 41 41 41 42 45 46 49 50 48 49 54 57 68 78 72 70 84 89 87 82 73 74 77 71 76 74 70 78 77 75 80 81 79 73 73 82 89 85
41 42 44 46 47 44 43 43 43 44 46 47 45 45 47 49 54 59 68 84 78 77 76 87 89 85 81 81 79 81 79 79 78 77 80 81 85 87 92 89 86 89 86 88
41 41 44 45 47 46 46 46 45 46 45 44 42 43 46 50 52 56 68 85 87 85 83 81 90 89 91 90 90 85 84 85 85 88 84 85 89 91 96 99 98 92 94 93

GFSCGP_250_spd_099.txt.gz
Wind_Speed
86 88 81 78 93 92 98 103 105 98 95 94 85 89 89 86 80 76 76 69 66 60 61 62 64 63 59 58 58 55 51 50 51 51 54 53 51 48 37 33 28 31 32 31
76 64 64 81 85 88 93 99 96 95 97 96 91 88 89 87 81 77 77 74 75 71 62 62 62 60 60 59 61 60 56 54 55 56 60 58 54 46 37 33 30 31 31 31
63 59 72 73 75 82 84 89 95 96 99 96 93 88 85 82 83 78 79 78 77 72 69 69 69 67 62 60 64 61 57 53 57 55 57 54 49 43 39 35 31 29 31 30
56 63 60 62 64 70 70 81 93 102 101 97 93 90 90 86 83 84 80 74 74 75 73 72 71 71 67 65 63 62 62 58 60 56 55 47 41 42 38 34 31 29 29 29
49 51 52 54 59 64 68 77 88 93 95 100 96 92 89 88 82 84 82 82 77 75 74 70 69 69 67 66 65 65 63 59 59 54 58 49 40 41 37 34 30 28 25 30
45 47 48 53 54 54 66 75 79 83 86 90 90 91 93 91 91 83 84 82 80 78 73 72 73 70 68 66 64 67 66 60 59 61 57 48 39 41 36 35 28 30 25 31
39 42 45 47 48 52 57 64 72 78 82 81 91 92 90 95 89 88 87 86 85 82 84 82 81 80 77 74 71 71 68 60 58 58 53 48 41 41 38 37 29 30 23 35
39 40 41 42 43 45 48 53 60 65 72 81 87 90 96 92 91 93 90 86 84 80 84 85 84 84 84 81 77 69 64 61 58 57 50 48 44 42 37 40 31 29 23 41
40 42 40 39 41 42 43 44 54 59 64 78 84 89 91 94 96 95 90 88 87 88 87 88 85 81 79 78 77 73 64 62 57 55 51 49 45 45 39 44 36 33 29 34
37 37 38 37 37 38 37 41 47 47 51 64 79 87 88 91 92 93 90 89 89 88 88 88 86 82 80 75 75 70 65 61 57 53 49 49 49 49 42 48 43 38 34 32
37 37 36 35 34 38 39 41 40 42 52 58 67 73 81 89 92 90 90 88 86 87 87 85 83 79 76 75 71 60 62 57 56 55 57 51 52 53 46 52 50 46 39 34
37 36 37 35 36 39 44 45 44 37 37 43 49 54 68 74 77 79 82 81 80 79 79 73 71 71 69 68 65 64 62 57 61 58 59 56 52 54 50 55 56 50 46 42
44 44 41 37 37 44 47 48 44 42 42 51 39 48 46 45 47 54 61 63 66 68 70 67 66 66 63 63 67 68 67 64 67 64 63 59 54 54 50 56 61 55 51 47
47 45 41 40 42 45 51 55 54 50 48 48 53 57 54 57 55 56 55 57 58 58 61 58 57 59 62 64 68 68 68 69 69 68 66 60 54 55 50 55 64 60 55 51
51 49 45 44 43 44 44 50 61 64 59 60 59 59 56 58 55 51 49 48 50 53 55 56 56 54 58 63 68 70 70 69 66 65 59 55 49 49 49 53 66 64 59 54
54 53 52 47 45 45 45 43 42 47 54 56 56 51 51 51 50 52 52 53 54 55 55 51 49 51 51 47 52 55 57 58 57 57 54 51 49 49 51 54 63 66 61 57
59 58 56 52 50 51 52 52 52 54 52 51 50 50 50 50 52 53 52 50 50 50 40 36 34 27 18 18 29 37 42 48 52 53 51 50 48 48 51 52 59 65 64 62
58 63 63 60 57 54 54 53 54 53 53 53 54 53 52 52 50 48 48 47 47 35 33 36 35 26 15 10 12 15 30 34 42 49 50 52 50 49 47 49 53 61 64 63
56 60 61 61 58 58 56 53 54 55 57 55 54 53 50 47 46 45 47 46 43 32 45 43 37 39 26 30 26 22 18 29 39 48 43 46 44 45 43 45 52 56 60 62
54 58 57 59 61 59 58 58 59 58 57 56 56 55 53 51 50 49 47 46 38 44 54 51 47 52 50 41 42 29 23 24 30 36 37 40 46 35 33 49 55 52 58 56
48 51 46 51 55 58 60 60 60 59 57 56 56 55 54 50 46 45 45 47 40 54 55 57 51 47 48 49 42 38 33 27 30 23 31 41 44 52 67 64 58 62 63 63
45 48 44 47 52 58 59 60 61 58 54 53 50 49 47 45 44 45 46 46 45 57 62 62 56 48 58 56 47 43 43 37 43 49 52 45 53 50 56 63 62 62 61 63
44 45 46 47 50 51 55 56 55 52 50 49 48 48 47 48 48 49 49 49 51 48 66 70 63 58 60 61 59 52 45 46 51 54 61 54 64 66 62 65 67 64 69 71
46 46 46 45 44 46 48 51 52 51 50 49 49 49 51 52 54 55 55 53 56 51 79 78 73 73 70 72 68 69 67 64 60 63 64 63 64 66 66 73 73 76 75 74
43 41 42 43 43 44 46 48 50 49 49 49 48 50 52 55 56 57 57 58 60 62 58 83 82 81 81 83 78 70 75 73 71 73 77 75 73 67 68 69 73 77 81 82
42 41 41 42 44 45 47 48 49 49 48 47 48 50 51 53 55 57 60 61 62 65 69 70 91 92 90 88 84 81 80 77 80 78 80 82 85 79 86 74 89 86 84 93

GFSCGP_250_spd_102.txt.gz
Wind_Speed
91 97 84 79 91 92 92 97 95 96 98 105 105 91 90 88 85 73 71 70 73 73 62 59 58 56 54 55 55 52 50 57 57 53 51 51 50 49 50 46 46 52 44 40
80 81 71 76 80 81 85 90 93 83 84 98 103 95 91 91 82 79 75 69 75 79 71 69 63 59 59 59 57 56 52 53 55 54 50 52 50 50 49 44 45 46 41 39
69 69 71 71 71 71 74 78 75 78 87 91 94 99 94 86 84 82 77 73 73 74 78 77 66 63 63 60 55 57 57 54 55 58 54 52 52 52 50 44 45 39 38 38
56 63 65 64 62 64 64 61 69 73 82 89 87 94 87 85 83 86 84 78 78 80 77 70 67 70 67 62 63 61 64 62 58 62 57 55 54 55 52 45 43 38 37 37
50 51 51 51 50 56 53 60 67 74 74 88 87 91 83 87 90 86 86 89 77 73 68 71 68 65 68 65 64 67 66 67 58 62 58 56 56 55 56 45 43 40 36 35
39 42 40 40 47 48 58 55 55 63 69 77 78 82 83 90 90 90 92 87 80 78 69 63 62 63 64 63 67 66 64 67 62 63 60 57 60 59 55 46 44 41 35 35
35 34 36 38 41 44 47 45 48 52 58 61 71 79 82 89 94 93 88 87 89 79 77 74 63 64 66 71 72 70 64 67 64 66 62 62 64 56 54 47 43 41 36 35
30 30 29 34 35 40 42 40 38 43 51 58 66 72 77 84 93 93 95 87 83 81 75 70 71 69 68 69 70 66 68 70 71 75 71 67 64 57 53 48 43 44 38 36
26 27 28 28 32 34 33 30 37 42 47 53 62 65 71 75 88 86 84 83 80 83 80 77 71 72 69 66 70 71 73 75 77 77 70 66 65 58 52 48 45 43 38 39
20 26 26 29 31 32 32 36 35 37 45 54 59 64 65 71 80 75 77 82 81 86 86 80 76 78 75 75 76 77 75 76 79 76 68 67 63 58 52 50 48 46 39 42
19 21 27 29 31 32 30 28 32 35 39 47 47 50 60 67 73 73 76 77 80 84 84 84 82 83 79 77 79 81 79 82 82 80 74 66 63 56 52 48 47 46 43 44
20 24 28 30 32 34 30 27 27 32 30 35 36 44 59 69 70 69 69 70 76 82 85 88 85 85 83 82 80 83 84 85 80 77 72 66 61 56 51 53 50 48 49 44
29 28 28 28 26 32 40 38 27 25 35 42 47 53 62 59 64 67 70 68 71 75 80 84 84 81 79 80 83 86 86 87 79 74 69 62 53 52 49 54 58 55 52 46
34 34 32 34 31 33 39 40 33 39 39 46 49 53 60 59 63 60 58 61 69 76 80 82 82 81 80 76 73 76 78 75 69 68 63 61 57 54 51 55 58 57 54 49
35 37 36 37 32 37 46 46 44 45 41 46 44 42 49 47 42 35 31 33 36 42 46 49 53 55 58 65 68 70 69 69 66 65 65 64 64 62 57 55 61 61 55 51
39 39 39 43 38 42 47 53 46 50 50 46 43 42 45 38 37 41 45 49 49 50 51 49 53 57 58 60 63 62 63 62 65 69 71 70 68 67 63 61 62 62 56 54
49 48 48 45 41 41 45 53 48 49 49 48 47 44 46 49 52 53 54 54 56 57 55 49 50 51 52 52 52 55 58 60 65 69 71 73 73 72 67 57 62 56 52 49
50 52 53 47 46 45 46 50 53 56 60 57 56 56 55 56 57 59 59 60 49 45 47 50 52 48 48 47 46 36 25 30 38 54 60 61 66 64 62 58 59 55 51 51
54 56 53 51 51 49 49 49 49 48 48 55 59 62 61 64 64 59 51 44 48 49 49 46 42 41 39 36 33 33 26 25 18 26 43 51 52 50 58 58 56 54 49 51
55 56 57 55 53 52 54 52 51 50 50 47 47 49 49 50 51 49 49 50 48 46 45 43 40 40 43 43 35 34 41 26 22 29 27 36 43 48 51 57 53 49 46 51
51 58 57 56 55 55 54 53 52 53 54 55 54 55 54 56 57 56 55 54 49 48 46 44 40 42 53 48 43 45 48 49 38 30 30 30 34 34 31 38 45 44 44 35
48 48 53 52 56 59 58 56 56 55 55 55 56 57 57 58 59 60 58 56 54 53 52 48 43 49 57 60 54 55 54 57 51 34 28 34 36 48 42 40 43 38 45 49
46 50 50 45 45 51 57 58 58 58 59 60 60 60 60 60 59 58 58 58 56 54 51 49 45 56 63 62 60 59 52 55 64 50 42 42 49 46 46 49 44 57 55 50
45 46 47 47 46 47 55 58 61 62 63 64 64 63 61 60 61 59 56 54 53 53 54 51 50 64 70 66 66 66 63 61 67 62 54 54 52 52 56 52 53 54 65 65
46 48 48 47 46 44 47 54 60 62 61 60 60 60 60 59 57 55 54 53 55 56 57 57 55 63 77 76 75 73 72 73 74 72 64 64 63 62 62 66 64 65 67 70
49 48 48 46 42 40 43 48 53 56 57 57 58 58 58 57 56 56 55 55 57 61 61 61 58 59 78 81 82 79 79 80 81 77 79 75 74 67 72 72 76 72 74 79

GFSCGP_250_spd_105.txt.gz
Wind_Speed
95 96 92 92 97 103 99 102 102 102 91 102 101 97 87 91 96 91 82 80 78 70 62 60 64 63 64 57 48 44 44 42 46 37 40 41 42 41 43 43 43 41 43 39
85 80 84 83 80 91 91 89 87 91 95 98 99 92 88 88 92 85 81 82 77 72 68 63 64 67 68 66 53 49 45 45 51 47 41 41 43 44 46 43 44 44 45 43
71 72 67 67 71 77 76 73 74 78 81 83 88 86 87 87 89 87 86 83 79 75 72 69 63 65 66 61 58 50 49 52 53 54 48 47 48 49 50 48 48 46 45 47
64 62 57 58 59 61 61 64 67 67 66 70 75 72 79 83 80 83 89 85 79 76 77 66 57 59 59 60 61 59 55 56 57 57 53 49 51 52 53 51 51 49 48 50
52 51 48 48 50 49 56 55 54 53 56 58 64 63 73 79 77 79 83 87 85 85 77 60 53 49 50 58 64 64 61 61 58 55 59 55 52 55 55 53 53 52 53 49
40 37 39 37 37 41 42 42 43 50 49 49 52 57 63 69 75 76 90 89 85 82 69 60 60 58 59 60 63 66 66 63 58 54 65 61 52 56 57 52 57 59 56 49
28 30 34 34 30 28 25 36 36 37 35 41 50 55 60 69 76 80 83 87 85 79 68 64 66 69 66 59 56 59 62 62 55 57 65 66 59 56 58 54 59 59 55 48
24 27 29 27 27 29 34 33 32 36 37 46 47 51 57 66 73 80 83 80 81 81 77 74 73 73 69 66 61 59 56 57 54 59 69 70 61 55 57 60 63 61 58 49
19 18 21 23 22 22 24 27 32 36 37 38 40 50 54 59 64 68 71 71 73 75 75 74 73 71 70 68 63 65 61 60 56 60 69 67 61 55 60 62 63 61 59 49
10 12 17 21 20 23 23 26 32 34 34 29 34 41 46 52 55 49 65 73 77 76 77 78 74 72 71 70 69 68 66 67 61 61 64 61 57 61 63 61 62 63 59 49
5 11 17 18 21 24 30 32 34 36 33 31 22 34 40 47 45 45 49 58 71 73 75 79 80 73 74 72 73 71 67 67 66 70 68 65 64 65 66 64 65 64 59 49
14 16 18 21 24 29 32 35 36 36 35 33 30 40 43 33 49 53 58 61 60 64 69 74 78 79 75 75 73 74 71 70 71 71 71 69 67 67 67 69 67 65 60 52
18 21 25 28 30 33 34 34 35 31 34 38 40 45 51 59 61 60 59 60 60 60 61 63 66 68 72 74 74 79 80 76 75 75 73 72 72 71 71 72 63 68 57 51
24 26 30 37 37 34 38 37 31 28 31 34 38 45 57 64 62 55 61 61 50 45 48 53 57 63 71 76 76 77 79 80 81 78 78 78 77 75 74 73 68 62 53 53
29 33 36 41 38 32 29 36 38 35 34 36 41 43 46 47 51 56 55 42 40 43 49 56 60 61 64 67 69 73 80 82 84 85 81 77 76 73 64 63 57 54 51 53
32 34 40 42 45 43 44 45 46 43 40 44 43 44 45 38 35 35 40 42 43 42 45 47 48 57 66 70 73 75 77 80 81 84 84 77 70 63 57 56 58 57 58 58
37 41 43 44 45 46 42 42 48 43 35 37 39 40 41 37 35 29 38 42 42 42 32 30 40 41 44 47 49 51 52 54 57 59 61 62 62 61 61 63 61 63 65 63
41 43 47 44 42 40 39 38 38 37 37 34 38 38 39 41 39 35 35 35 36 38 40 44 46 46 47 48 53 55 56 57 58 60 61 61 62 63 61 63 64 65 67 67
45 45 48 52 47 45 46 45 50 47 42 41 45 42 40 44 42 42 40 39 44 47 47 48 48 50 53 57 63 61 56 55 54 51 46 44 43 48 60 69 77 72 70 70
49 51 50 49 51 49 47 46 46 54 50 47 48 51 50 47 47 47 48 47 49 51 51 50 51 59 61 54 49 49 46 47 50 54 37 25 45 32 35 47 56 63 67 74
54 54 52 51 52 51 48 47 48 52 60 54 52 53 55 56 55 56 56 54 53 53 56 62 54 50 49 45 43 43 44 47 52 49 40 37 36 37 33 37 39 51 62 67
56 57 56 55 55 55 51 49 49 50 52 54 55 54 56 60 61 59 56 54 58 59 54 52 50 51 49 46 43 45 46 54 54 53 52 46 42 40 41 38 51 64 63 60
52 57 59 59 58 55 56 56 54 52 53 53 53 53 53 53 53 54 56 58 58 60 60 59 58 58 57 53 49 48 55 60 60 59 55 67 65 52 44 43 49 52 52 50
54 54 54 57 58 58 58 58 58 57 56 57 57 58 59 59 60 60 61 61 61 59 59 59 59 59 58 58 53 51 56 67 63 61 64 69 75 72 56 49 47 48 47 51
52 52 51 52 53 54 54 56 55 58 61 62 62 63 64 64 64 64 64 64 63 64 63 62 60 58 55 54 54 53 58 73 71 69 74 77 77 70 69 62 60 62 62 64
53 53 54 53 52 51 51 50 51 56 62 65 66 68 69 69 69 69 70 70 68 66 64 61 58 56 55 55 58 58 62 75 79 78 81 79 79 79 80 77 71 68 64 69

GFSCGP_250_spd_108.txt.gz
Wind_Speed
119 122 113 108 105 104 101 100 98 93 93 103 111 105 97 97 100 93 89 85 80 74 74 79 74 68 68 64 54 54 51 46 42 40 37 31 32 30 32 34 33 29 30 35
107 97 98 92 91 89 85 86 85 79 80 96 100 99 95 95 95 90 86 83 79 79 80 81 78 74 69 61 54 55 55 50 45 42 42 37 35 35 37 41 39 38 36 37
90 89 81 77 75 72 69 68 69 64 77 82 88 88 88 89 86 86 82 82 84 86 89 87 83 73 66 59 57 52 55 54 52 51 47 42 40 40 42 44 41 41 41 41
77 70 63 60 58 53 51 55 56 54 63 64 73 70 76 79 75 81 84 88 91 88 83 81 77 72 66 61 55 54 58 60 58 54 51 49 46 46 47 44 43 44 45 45
61 56 52 48 42 40 38 37 41 43 44 49 52 53 60 62 65 74 87 89 88 83 78 70 74 71 67 60 56 53 56 60 61 58 53 52 54 53 47 48 47 47 48 47
51 45 42 41 35 30 30 31 33 33 37 35 40 45 50 50 58 67 78 84 84 77 70 66 73 68 67 60 57 54 56 61 62 61 60 57 53 51 47 50 52 48 50 50
44 39 30 30 28 28 28 28 22 23 27 34 38 39 41 42 48 52 64 74 78 74 69 74 71 69 66 62 60 55 56 57 55 59 60 61 59 59 54 53 53 51 55 51
34 27 22 21 21 20 25 24 25 25 26 29 32 36 34 39 39 43 52 63 69 70 72 73 67 68 66 64 62 61 57 53 55 55 58 63 63 60 54 51 54 57 59 54
27 17 17 16 15 15 16 19 20 22 27 28 28 30 34 36 42 21 36 58 65 65 67 74 69 71 70 70 70 66 58 59 57 55 53 55 63 58 55 50 52 57 55 52
20 10 8 11 12 14 16 17 20 22 23 24 27 30 35 30 42 49 53 57 60 64 61 68 67 75 74 69 65 63 58 58 62 57 53 55 59 54 50 53 52 58 54 52
14 10 7 11 16 15 17 20 22 26 28 29 27 27 36 39 41 47 48 49 51 58 65 67 74 79 75 70 68 68 64 65 64 62 59 60 58 53 49 52 54 56 56 53
17 11 13 16 16 19 22 26 28 30 30 26 31 31 34 40 42 42 36 36 41 49 55 61 69 68 73 77 73 68 69 69 67 68 65 61 58 56 56 54 57 59 58 55
17 15 19 21 25 28 31 33 38 40 36 28 20 28 29 36 30 38 44 29 35 40 48 58 63 65 69 71 71 72 71 71 71 67 66 67 66 62 61 61 62 62 62 59
17 17 19 24 27 30 34 36 43 48 41 33 33 32 30 36 35 34 39 46 42 41 40 42 52 63 66 67 71 75 76 74 71 69 68 70 67 65 66 65 67 67 66 70
19 21 25 30 35 35 37 40 47 48 44 44 45 45 35 43 40 39 42 46 45 45 51 48 45 47 55 64 68 71 74 76 73 75 75 70 66 63 67 72 71 72 72 70
22 26 32 36 41 45 46 47 53 55 47 51 54 50 48 49 51 49 53 56 50 48 40 38 44 50 52 57 59 61 69 74 76 74 70 71 72 72 74 75 77 76 74 75
28 34 41 42 46 48 49 48 42 43 49 48 44 42 43 49 49 49 56 51 42 32 34 36 36 39 44 52 54 55 56 58 62 67 70 74 79 79 79 77 76 78 57 56
35 41 44 46 48 53 51 45 47 46 46 45 33 30 26 26 28 28 30 28 28 30 33 33 34 37 39 41 46 54 60 65 69 70 71 72 72 73 74 74 74 72 72 73
38 45 48 48 45 44 45 42 37 35 32 29 25 26 32 36 37 38 35 33 34 36 39 38 35 36 36 41 42 41 44 46 49 52 54 55 55 57 57 55 57 59 62 65
42 48 51 52 52 52 50 49 49 42 41 40 40 39 39 39 39 41 44 44 42 40 41 36 38 41 44 45 45 48 50 51 56 56 57 61 58 59 60 58 59 51 45 59
47 47 52 52 52 48 50 52 50 52 49 50 50 47 43 41 40 43 45 47 45 45 47 45 44 50 52 50 49 51 54 57 59 62 63 64 59 61 59 55 48 45 45 39
48 51 53 54 52 51 48 49 50 51 52 54 53 53 49 46 45 44 46 49 49 51 50 51 53 52 52 54 55 58 58 59 57 57 57 55 55 54 58 52 54 65 55 44
53 54 55 55 56 53 53 52 50 49 49 49 54 56 55 54 52 51 51 53 52 53 56 55 53 55 57 58 57 60 56 55 52 53 53 55 56 57 65 65 60 56 59 57
54 55 58 58 56 57 58 58 56 54 51 52 53 53 58 62 60 59 59 60 61 63 65 63 62 61 62 63 64 63 63 62 60 54 56 55 56 59 69 63 61 69 64 61
52 57 58 59 58 58 57 59 61 60 58 56 56 57 57 59 63 65 64 64 64 62 63 64 64 65 66 68 67 66 65 64 63 59 57 60 61 64 73 68 72 71 70 71
49 53 58 59 59 59 56 56 58 60 63 63 62 62 61 60 61 64 66 67 67 66 66 66 67 68 68 68 68 67 66 66 65 64 62 63 66 69 77 80 79 82 82 83

GFSCGP_250_spd_111.txt.gz
Wind_Speed
100 102 106 109 116 116 110 115 112 109 109 101 102 105 97 103 110 108 104 102 95 98 90 87 83 79 73 78 75 74 61 58 57 53 50 48 45 36 34 33 32 30 29 25
102 103 113 116 102 101 100 103 97 91 88 82 78 83 87 91 97 109 105 105 101 101 100 93 84 78 76 71 70 73 68 59 56 55 52 46 46 42 35 35 34 31 30 31
101 111 114 96 90 88 82 82 79 72 74 65 61 59 72 76 87 95 104 103 104 99 100 97 87 80 71 66 69 71 70 61 56 56 53 51 47 44 40 40 37 36 34 34
111 101 81 78 76 70 66 63 63 61 58 57 46 47 59 66 76 81 93 101 102 102 100 97 91 74 66 69 71 69 73 65 59 56 57 57 56 49 48 43 42 39 40 40
99 76 71 65 62 56 48 48 47 46 47 43 40 44 52 54 62 73 77 88 93 98 98 91 84 72 66 67 68 72 76 68 60 59 60 62 60 54 52 46 45 46 46 43
80 71 62 53 50 44 41 35 35 36 36 34 35 41 40 45 48 57 67 76 81 84 82 79 78 72 66 65 69 73 76 69 64 59 58 62 64 60 57 52 43 47 47 47
69 63 52 44 41 35 29 24 22 25 24 25 28 26 31 35 38 45 52 60 68 72 75 78 78 73 67 64 68 70 74 70 67 63 61 62 63 62 62 59 53 44 44 45
59 56 43 38 31 26 19 18 17 18 21 21 19 21 26 27 31 36 42 48 53 59 68 72 76 74 67 63 68 70 76 75 70 67 63 62 61 63 63 63 61 57 54 52
51 44 38 32 26 20 17 15 13 17 17 18 19 19 18 19 24 29 35 39 44 51 58 63 70 71 67 64 68 73 75 73 73 69 64 62 62 63 63 62 59 58 56 54
43 35 34 29 23 19 13 10 9 11 15 22 25 30 29 23 19 26 29 17 35 40 48 54 61 68 63 60 66 72 73 73 75 74 66 61 62 61 65 62 60 62 57 53
31 26 26 24 20 16 12 11 12 14 17 22 24 29 34 40 38 31 28 9 23 30 42 48 53 59 59 60 63 69 71 74 73 70 64 60 56 56 60 65 64 60 54 50
28 22 22 22 21 18 14 12 16 19 23 25 27 28 38 42 42 43 37 35 34 27 41 41 42 58 60 61 61 67 73 72 72 69 67 64 60 61 61 56 52 48 48 49
24 19 21 24 22 18 16 17 20 26 26 28 30 29 37 45 48 50 49 39 25 33 33 37 49 56 57 58 67 70 73 73 72 72 68 65 64 61 63 63 58 54 52 50
20 19 21 21 21 22 22 25 28 29 32 33 31 31 39 41 44 44 43 44 44 40 30 31 35 46 50 54 56 61 68 72 72 74 72 69 68 65 63 64 62 59 56 57
18 19 21 21 23 24 30 28 31 31 34 35 37 32 34 34 41 39 40 42 38 35 29 33 44 46 49 50 54 61 67 73 75 75 75 72 69 67 69 67 66 66 67 69
19 20 24 25 27 28 34 36 39 35 39 37 40 41 44 43 41 46 42 39 31 38 35 35 36 35 37 41 47 58 61 70 75 80 81 81 76 71 69 70 70 71 70 71
20 24 28 31 30 37 39 43 44 40 39 38 36 33 35 30 43 45 41 43 44 39 45 44 43 41 42 41 41 45 51 61 66 69 73 75 76 75 73 72 71 73 71 66
23 27 35 37 40 48 47 45 43 43 41 40 39 40 33 34 44 43 42 38 42 46 48 46 42 40 43 43 49 50 52 57 62 67 70 71 72 72 73 74 75 74 72 68
26 33 39 44 45 53 53 50 51 47 46 47 47 46 44 42 33 45 44 41 43 48 46 48 45 40 39 39 40 40 47 54 60 61 62 65 67 67 69 72 73 71 73 72
31 37 42 46 50 54 53 52 52 49 50 49 50 50 47 42 34 37 45 50 48 50 53 44 45 42 42 43 39 41 40 41 43 43 49 56 62 66 68 71 72 73 74 76
34 40 45 48 52 55 55 52 51 48 48 46 44 44 39 35 35 36 38 43 46 44 46 46 45 43 43 46 48 44 47 45 47 48 49 47 50 52 54 56 57 59 57 58
37 41 45 51 53 54 52 53 52 51 46 45 42 43 44 40 41 39 39 44 47 48 47 47 45 46 47 51 52 49 53 53 52 54 55 58 56 56 58 64 65 65 66 67
40 44 50 53 56 56 57 57 56 56 51 47 42 42 41 49 47 46 44 44 46 48 52 55 55 53 53 55 57 58 57 58 60 60 60 60 60 62 65 70 70 74 76 74
42 46 51 55 55 57 60 58 58 57 56 57 55 54 55 54 55 56 57 54 53 54 55 58 60 61 60 60 62 63 63 62 63 63 63 65 69 68 66 62 64 64 68 68
43 47 52 56 58 59 60 60 59 58 56 55 60 60 61 61 62 63 65 62 64 63 63 64 65 65 65 65 67 67 68 69 69 70 70 70 71 70 68 71 71 70 70 71
41 48 52 54 56 58 58 60 62 62 60 59 61 62 62 61 61 60 60 61 64 67 70 73 73 72 73 73 72 70 70 70 71 72 74 75 76 76 75 75 73 74 75 74

GFSCGP_250_spd_114.txt.gz
Wind_Speed
88 91 95 96 101 102 94 98 100 97 100 111 107 119 117 113 114 112 111 103 104 100 96 99 99 95 90 82 72 66 65 67 70 69 64 61 56 52 48 44 37 41 40 41
89 90 94 97 100 103 106 99 98 98 101 104 89 84 90 92 90 90 98 107 102 103 103 106 108 102 92 83 76 69 64 70 67 72 66 62 59 52 51 48 42 40 41 40
88 91 97 96 104 93 88 94 91 94 85 88 70 66 68 74 70 73 80 92 105 114 108 107 108 103 97 88 81 71 65 72 67 71 68 63 60 53 51 51 48 41 38 38
88 93 99 103 90 78 75 76 74 72 67 67 60 59 51 57 57 61 68 77 87 104 108 110 106 100 95 91 82 75 67 73 68 67 70 68 64 58 55 53 48 43 40 39
91 94 99 89 75 68 63 60 58 56 53 53 52 49 46 45 46 54 60 68 78 87 94 102 101 100 94 92 85 77 73 73 74 71 69 70 68 65 60 57 52 47 44 43
89 86 85 75 65 60 53 48 44 43 43 44 41 36 35 36 38 44 52 60 65 75 78 83 92 94 92 90 86 77 76 74 78 73 73 71 72 68 65 61 57 54 52 48
90 87 75 64 59 52 44 36 33 31 28 27 26 25 25 27 29 32 40 49 54 61 66 72 80 82 82 84 80 75 78 77 77 76 75 72 72 70 67 63 60 58 56 51
82 77 65 60 51 44 32 27 26 24 22 20 21 19 17 18 21 26 31 37 41 47 55 62 66 69 68 80 78 76 78 76 78 77 77 74 73 72 68 64 64 61 61 54
80 66 57 53 45 34 26 24 23 22 22 22 22 22 21 18 19 24 27 29 33 40 47 51 55 59 62 69 71 76 77 75 74 73 75 76 77 75 69 67 64 64 63 60
73 59 52 46 38 26 21 20 22 19 19 18 21 23 23 25 23 21 24 26 27 33 40 45 46 48 52 56 60 66 72 71 72 75 76 77 73 74 70 69 65 64 63 58
61 50 47 40 28 20 20 20 20 19 16 15 16 20 26 27 28 27 21 24 27 27 33 39 42 46 50 54 58 62 66 70 71 74 78 77 74 76 75 69 65 64 62 61
51 45 41 32 22 19 19 19 19 17 15 12 15 19 26 29 30 25 21 18 18 15 21 34 36 40 44 47 51 58 63 67 69 70 75 80 77 74 74 70 65 63 63 66
45 40 36 27 21 21 20 19 21 21 14 12 14 21 30 31 30 30 22 24 18 14 16 25 26 31 38 43 47 53 60 62 66 67 72 76 76 74 72 70 67 66 66 66
41 34 30 20 19 20 20 19 18 16 13 17 25 31 38 33 36 35 32 35 26 21 18 28 23 29 39 40 46 51 55 60 64 66 69 74 74 73 71 70 69 66 62 57
36 29 25 17 21 22 23 19 19 17 22 25 33 39 41 35 35 34 40 33 37 18 20 22 29 30 33 33 40 51 54 55 59 65 70 71 74 73 72 71 70 69 66 64
33 27 19 18 22 25 26 23 24 25 29 33 34 43 39 38 36 32 34 34 29 18 20 30 23 25 31 36 41 42 47 55 59 64 68 73 72 74 73 72 73 71 70 67
31 25 19 24 25 31 28 31 28 31 33 39 40 44 40 38 40 39 42 40 36 32 24 25 27 30 32 35 37 39 42 46 50 57 64 69 73 78 78 76 76 75 73 72
29 25 23 26 30 37 34 33 30 34 35 40 42 48 42 42 40 43 44 43 41 31 33 31 31 35 37 41 45 50 51 52 51 56 63 69 73 78 80 79 79 80 78 77
29 26 27 27 35 36 43 38 38 39 37 46 44 48 46 44 43 45 45 47 46 44 46 47 40 41 43 45 43 43 44 46 47 49 54 63 69 74 79 83 83 83 82 83
30 27 31 30 36 47 45 45 40 37 43 40 44 45 44 47 48 50 48 51 50 51 50 50 50 49 51 50 48 48 50 52 52 51 51 55 59 63 69 74 77 80 80 80
32 28 33 34 36 45 49 51 49 44 42 45 43 43 42 45 43 41 43 48 52 50 52 51 53 54 52 55 54 51 47 48 48 48 51 54 56 60 63 65 67 69 71 73
31 33 33 40 40 44 51 53 52 53 48 44 48 46 49 48 46 43 40 40 41 51 52 50 52 53 53 54 53 52 52 56 54 53 53 50 51 53 55 57 61 64 69 73
34 35 35 41 41 52 54 55 53 55 57 52 47 51 47 49 50 49 43 45 50 42 49 51 52 58 54 56 58 57 55 58 59 58 57 59 59 60 60 58 57 59 61 63
36 37 37 41 46 51 59 58 58 57 56 60 59 55 51 47 48 48 51 53 53 48 48 47 49 54 58 57 56 58 58 56 56 58 61 64 66 67 67 66 66 67 69 70
35 36 39 42 48 50 52 58 60 61 61 59 59 55 52 55 50 49 54 57 57 54 54 54 55 54 56 59 61 63 65 65 64 66 67 67 69 71 74 75 75 76 76 76
32 34 38 41 45 49 51 53 57 60 62 62 62 62 61 61 60 59 60 60 60 60 61 61 62 65 65 66 69 68 69 71 71 73 75 77 77 77 78 79 79 80 81 83

GFSCGP_250_spd_117.txt.gz
Wind_Speed
84 83 83 85 85 86 87 87 84 81 89 94 102 115 114 115 112 116 113 105 105 110 101 111 111 104 101 91 85 76 71 69 74 71 66 58 53 54 61 57 55 48 47 43
82 81 81 79 76 75 82 81 85 75 84 90 89 87 98 106 101 102 107 109 113 110 117 118 112 109 104 97 90 82 71 67 69 75 69 60 52 54 57 59 58 53 50 45
78 75 74 73 76 75 81 81 81 78 73 84 77 76 73 78 76 75 77 87 94 103 117 117 121 120 110 102 93 89 76 66 65 67 65 56 53 55 59 63 65 60 52 48
74 73 72 76 77 79 82 80 76 74 67 71 70 64 59 58 63 60 59 63 71 79 88 110 123 117 119 112 100 89 83 71 68 67 62 60 56 59 61 66 65 63 55 51
75 70 72 75 78 77 77 72 67 64 61 59 57 51 51 49 46 44 47 51 59 67 73 86 101 121 115 110 101 94 83 75 68 72 61 64 61 61 62 65 66 64 58 53
69 67 68 76 74 72 66 60 57 52 51 50 48 44 42 40 37 37 36 41 48 56 60 70 82 99 116 105 102 94 85 79 73 71 70 70 68 68 65 66 67 65 60 54
73 67 71 75 71 66 56 52 46 46 44 39 37 37 35 32 31 28 28 33 39 43 49 58 70 81 90 94 101 94 88 83 79 76 75 74 73 71 68 69 68 64 62 57
67 74 73 76 66 56 49 43 39 38 33 32 32 34 34 30 28 24 22 26 31 34 39 49 59 69 73 77 93 96 91 87 84 82 78 74 72 75 71 69 69 67 62 60
66 77 73 69 57 49 42 36 32 26 26 29 28 31 33 31 25 22 20 22 26 28 33 40 49 57 63 70 85 91 92 91 92 91 86 83 78 76 74 71 68 68 64 65
67 67 74 59 49 42 35 33 27 20 22 24 27 27 29 29 25 16 18 20 25 26 30 36 41 49 57 65 73 82 92 93 93 91 90 87 79 78 75 72 67 67 65 67
67 72 69 50 45 38 30 27 20 18 19 21 20 20 18 18 14 16 15 16 20 20 24 32 39 44 49 54 60 70 80 86 89 87 87 83 79 76 72 72 73 70 69 69
69 71 60 47 39 32 23 20 15 15 17 15 15 15 14 15 14 15 17 15 14 19 18 22 29 36 41 42 49 58 67 75 77 79 78 81 80 77 80 76 77 75 74 67
71 67 55 45 37 29 19 14 11 11 14 17 19 15 18 17 18 18 20 17 17 19 19 17 18 24 31 34 36 40 47 56 63 71 77 79 78 78 81 77 77 79 77 79
73 63 48 42 34 28 18 11 10 5 17 23 22 17 24 21 19 16 17 18 21 23 22 23 21 23 26 32 37 38 40 45 53 62 66 70 75 77 77 75 76 79 78 77
68 61 45 38 32 25 19 12 8 3 21 27 25 23 25 21 17 15 18 17 20 27 28 24 31 22 19 27 24 27 37 35 48 53 57 61 64 69 71 72 77 78 77 76
65 57 42 35 29 25 22 15 11 6 24 29 29 30 27 24 23 22 15 17 18 16 26 28 21 26 28 28 30 21 30 37 40 45 53 60 62 66 69 70 72 75 78 76
62 49 37 32 29 27 26 21 16 13 26 32 32 31 27 27 30 27 18 15 19 17 21 20 24 18 21 25 31 32 31 34 36 38 44 51 57 61 64 67 68 72 78 77
56 43 36 30 28 28 30 26 25 22 24 35 37 38 34 32 32 32 27 25 22 25 21 23 22 27 25 30 39 40 39 39 40 40 42 49 52 56 61 65 69 71 76 79
53 42 37 30 28 31 33 34 31 31 29 36 41 44 40 39 37 35 34 35 36 31 32 25 26 28 30 34 33 34 33 34 38 38 41 45 51 56 60 63 67 70 75 77
51 43 36 32 27 32 34 40 37 36 34 32 42 47 49 42 40 39 40 41 42 42 33 34 37 35 37 39 38 39 41 43 45 47 49 51 52 55 57 62 64 70 75 79
49 43 37 33 30 33 40 44 47 39 32 37 39 45 52 49 44 41 40 43 45 49 51 46 42 43 47 48 46 48 49 50 49 49 50 52 53 53 54 56 62 67 72 78
45 43 39 33 32 33 42 46 52 46 42 37 38 41 48 53 56 50 48 47 47 50 53 53 56 54 54 53 56 55 56 60 58 58 59 57 58 60 60 60 61 63 67 69
43 40 41 34 34 34 39 50 50 50 42 44 46 42 45 49 51 56 53 52 53 56 55 56 59 58 61 62 66 64 66 64 62 62 62 62 59 60 63 62 63 68 70 71
41 37 38 35 33 36 40 47 55 56 53 50 50 51 48 51 52 48 51 59 58 54 57 51 57 59 61 63 67 66 68 67 63 64 62 65 64 61 64 66 65 65 66 67
40 36 35 35 33 36 42 49 53 56 54 54 55 56 57 56 55 50 53 55 54 55 56 56 60 61 61 61 62 65 70 68 63 67 66 64 64 64 65 70 72 71 70 72
37 31 29 30 31 34 41 47 54 56 54 53 55 58 56 56 53 54 56 59 58 58 59 58 59 62 66 65 67 67 68 68 69 67 68 72 73 73 75 76 75 76 77 79

GFSCGP_250_spd_120.txt.gz
Wind_Speed
72 70 70 73 75 79 80 85 82 85 84 87 93 97 101 95 100 110 109 112 115 110 115 118 115 115 111 113 104 99 96 93 86 79 71 65 65 66 64 54 49 52 53 56
74 75 72 72 75 77 83 78 78 74 75 80 83 93 94 92 92 95 103 106 108 105 108 116 120 127 119 115 110 106 98 94 91 80 76 70 67 67 62 53 51 53 53 53
77 76 74 76 78 79 78 74 71 69 74 82 80 82 78 82 85 82 80 91 98 101 104 102 100 110 122 123 118 111 108 102 96 88 80 71 67 71 64 59 62 57 55 52
79 77 75 76 79 78 73 74 74 74 72 77 76 67 66 63 66 67 63 64 74 79 79 82 89 96 108 125 126 117 111 104 101 94 84 72 71 67 69 65 56 54 56 54
80 78 78 77 78 73 73 73 72 73 72 66 64 59 57 53 51 53 53 53 56 62 61 65 73 80 95 105 121 120 117 109 102 97 84 75 76 73 73 70 55 56 56 54
82 80 80 81 74 71 74 70 71 67 62 58 55 50 49 44 42 39 38 42 44 50 52 55 57 66 77 91 108 112 114 113 103 93 83 81 57 80 73 66 51 59 55 54
83 82 81 77 71 74 73 72 64 58 54 49 45 41 36 31 32 31 33 35 36 40 39 44 47 53 64 77 93 101 111 112 103 92 77 75 83 61 63 64 54 63 58 52
83 82 79 74 70 77 74 65 55 51 47 41 38 30 27 33 33 33 33 31 32 33 34 36 39 44 54 64 75 92 104 108 103 92 76 71 77 84 85 69 69 67 62 56
78 79 76 71 72 69 65 59 51 45 37 32 30 23 30 35 37 34 30 29 27 26 26 30 31 36 46 56 70 91 99 103 103 94 87 87 82 82 78 78 76 74 64 64
78 74 71 70 66 64 59 51 47 37 31 21 17 24 32 39 34 29 26 23 22 21 19 20 26 31 39 51 64 79 101 105 99 92 87 87 89 87 86 85 79 75 71 64
70 66 67 65 62 61 55 46 40 30 19 13 13 21 32 31 25 20 18 22 17 13 13 16 20 27 34 45 60 75 80 98 101 94 87 83 84 84 84 81 80 76 71 67
62 58 61 64 64 58 48 40 33 25 13 13 14 24 23 23 13 11 12 17 13 6 8 13 18 21 28 36 47 61 62 80 93 98 91 90 85 83 87 83 83 78 75 68
57 57 58 61 63 55 40 34 24 10 8 15 19 23 23 16 11 6 3 3 0 6 10 11 11 17 21 28 35 45 55 66 80 93 95 94 90 89 91 89 87 83 77 70
53 53 55 61 64 53 38 31 19 10 12 22 24 27 22 16 14 9 9 4 10 14 17 18 17 16 17 25 32 38 45 59 71 81 91 93 91 92 94 94 92 89 85 79
49 51 55 61 61 48 38 30 15 9 15 28 30 29 26 19 13 14 12 12 22 24 22 24 24 16 10 19 27 32 37 42 54 65 75 83 91 92 91 90 90 89 85 84
48 53 56 61 56 46 37 30 14 13 11 32 33 31 27 23 17 12 13 16 20 25 21 24 14 19 21 17 19 19 21 27 31 36 44 53 63 69 81 86 88 88 87 84
49 53 56 58 53 46 37 32 17 18 14 26 37 36 32 26 21 16 12 19 18 24 25 19 12 15 20 15 17 22 16 22 25 29 34 40 50 56 61 67 71 75 78 79
50 55 57 59 52 44 38 32 27 21 22 24 35 40 36 30 26 22 16 17 17 21 22 18 17 22 24 24 23 27 21 23 24 33 34 34 38 45 53 58 62 65 69 72
54 55 60 59 51 44 36 33 34 26 27 28 34 42 40 37 33 30 26 24 22 21 25 21 19 27 29 27 31 33 29 27 33 35 38 39 38 41 45 47 53 58 64 67
55 59 58 56 50 46 37 35 34 37 34 32 36 38 45 41 36 35 32 31 30 29 25 25 27 28 25 29 29 28 34 38 41 40 36 38 39 40 43 45 48 51 56 61
57 60 58 52 46 42 41 36 35 41 42 34 33 37 40 47 45 41 39 38 34 35 34 35 34 35 34 37 37 38 35 37 38 43 45 45 47 47 46 47 49 53 54 56
58 61 58 51 43 41 41 39 38 38 47 41 35 37 37 44 50 49 45 44 45 44 42 44 44 44 45 45 47 44 47 50 50 52 51 53 56 56 57 60 61 62 62 62
60 59 57 49 42 39 40 40 40 40 43 47 38 39 37 36 43 53 56 47 47 45 47 49 53 54 55 53 53 53 56 58 57 58 60 60 62 65 66 64 66 64 65 68
59 57 51 45 40 38 40 41 42 43 42 47 47 40 43 43 43 42 46 52 60 56 54 55 55 58 62 63 65 64 64 65 67 65 69 68 68 72 73 74 74 74 73 73
57 52 47 41 38 35 38 40 42 44 47 48 47 48 47 47 49 49 48 47 50 58 63 63 66 65 65 65 65 68 69 72 74 76 78 81 81 80 80 80 79 81 82 81
49 47 41 37 35 31 34 39 42 45 49 53 52 52 51 50 48 49 51 51 52 54 55 58 58 60 65 70 75 77 81 77 76 78 79 78 80 78 81 83 83 84 86 85

GFSCGP_250_spd_126.txt.gz
Wind_Speed
71 69 70 70 69 67 69 69 71 74 76 74 73 73 78 88 86 78 90 93 93 95 101 105 108 105 107 111 115 117 114 113 109 105 96 91 85 75 74 73 72 69 66 65
69 67 73 74 74 73 70 70 71 74 76 75 75 71 77 85 84 80 90 93 92 92 90 90 93 93 95 97 104 110 114 117 116 110 106 98 92 82 75 77 77 72 69 65
70 73 74 75 76 75 74 77 77 75 79 78 82 70 78 90 84 81 83 82 79 78 79 80 81 83 84 86 87 97 103 110 115 116 111 104 98 89 76 77 77 74 73 68
74 75 76 75 76 77 77 79 77 80 78 79 90 78 79 90 83 80 77 75 68 63 62 63 65 69 72 72 75 82 89 95 106 107 109 107 101 92 77 80 75 72 75 73
77 76 79 77 76 80 80 80 84 84 81 81 85 85 86 85 81 74 65 61 58 55 56 52 55 55 60 63 65 68 74 81 90 101 102 101 104 94 84 83 81 78 79 81
79 80 79 79 78 80 82 82 85 85 85 81 86 82 80 78 82 71 63 60 55 49 51 50 49 48 51 54 58 56 61 70 74 89 94 96 97 90 76 70 77 78 80 82
85 82 81 82 81 84 84 80 81 82 86 83 87 83 77 74 69 61 56 54 49 47 45 39 38 35 40 44 51 54 51 56 62 76 81 76 85 75 47 35 58 72 68 80
93 90 84 84 86 84 82 80 81 79 81 76 84 82 75 72 61 55 48 44 39 31 29 26 27 25 28 37 41 46 47 45 49 56 62 71 69 53 51 39 42 43 67 66
100 90 88 83 82 83 78 79 80 78 79 74 77 72 74 65 54 46 40 35 37 30 27 21 22 23 27 25 29 33 36 40 41 43 52 65 59 52 71 76 71 86 56 59
81 78 83 84 80 73 74 76 77 77 72 68 68 69 65 52 46 41 34 31 32 32 24 29 23 24 24 24 22 22 25 29 32 40 51 63 66 65 55 70 66 67 79 59
63 65 66 69 65 66 67 68 70 68 65 62 58 64 56 44 41 37 25 27 33 36 34 33 25 23 21 19 14 13 19 24 32 45 53 62 62 72 81 70 64 60 71 79
45 47 51 49 51 54 58 62 61 57 56 60 55 58 47 39 34 26 20 22 27 34 38 32 26 21 12 5 4 9 16 24 37 48 61 68 71 67 71 79 74 68 67 57
32 25 34 46 40 51 57 54 54 54 54 59 52 54 43 38 33 20 19 20 23 26 34 31 21 13 6 6 11 17 23 24 41 55 62 66 68 67 83 76 68 85 76 63
25 31 37 47 45 50 50 46 49 53 53 56 54 50 41 37 29 16 16 17 25 23 28 32 25 14 5 12 17 21 30 31 42 55 66 62 62 64 71 65 68 72 77 79
28 33 39 51 47 46 42 43 50 51 50 54 53 43 40 35 32 19 19 21 23 24 22 23 21 10 5 9 12 21 32 37 47 59 69 63 71 70 68 69 72 72 76 89
36 37 43 44 40 42 39 48 53 51 51 52 53 44 38 37 33 26 23 21 21 20 19 17 14 3 4 9 14 14 31 38 51 63 75 84 84 79 85 88 87 82 87 89
39 37 37 41 45 41 42 51 50 51 52 53 54 49 39 38 36 31 28 26 24 21 16 12 7 11 15 18 19 19 30 43 56 68 72 77 79 75 75 84 89 97 105 94
39 35 40 46 44 37 45 51 51 51 53 55 57 52 46 35 39 32 31 28 26 30 23 14 13 10 15 21 30 34 39 44 57 67 73 76 83 85 86 91 94 93 101 102
41 38 37 44 43 42 47 49 50 54 54 58 59 53 48 41 35 38 36 32 31 30 30 25 19 16 14 19 21 26 48 45 52 61 73 79 85 87 93 103 101 101 105 105
44 43 44 43 43 45 46 49 54 57 55 63 59 56 51 41 40 36 42 38 35 32 31 30 25 20 21 20 22 27 33 51 57 57 63 61 66 75 87 95 101 99 102 105
43 45 42 42 44 46 47 53 60 60 62 62 58 57 52 44 37 43 38 43 41 36 35 34 31 29 24 24 22 26 33 36 38 40 53 75 72 68 71 68 69 73 84 90
45 38 39 43 48 48 53 59 61 62 64 61 60 55 49 46 41 39 44 40 47 45 45 41 38 37 35 35 34 32 34 36 38 44 39 42 55 73 73 69 68 72 77 83
35 38 43 46 49 54 59 60 64 68 65 63 55 50 46 45 44 39 42 46 43 52 48 48 45 44 43 42 44 46 44 46 48 46 48 49 50 55 56 62 71 77 78 79
37 42 46 48 55 59 60 63 68 67 65 55 49 46 45 45 44 43 42 47 48 46 50 55 52 54 53 51 51 51 50 50 53 56 59 60 62 64 66 68 69 70 73 77
42 43 47 55 58 60 65 70 68 67 59 49 46 44 44 44 45 44 45 46 48 50 52 51 59 61 62 63 62 61 61 60 60 62 65 66 68 72 76 77 79 83 85 85
42 47 55 56 59 64 68 69 66 60 53 47 42 40 41 43 46 47 46 47 49 55 53 55 57 60 65 69 73 70 72 73 74 75 78 79 81 82 83 85 87 88 88 90

GFSCGP_250_spd_129.txt.gz
Wind_Speed
80 77 81 80 78 76 72 74 72 72 72 73 71 71 76 80 74 74 73 75 81 84 87 89 89 93 95 99 99 98 102 108 106 112 111 103 97 94 86 85 78 69 69 63
84 82 82 80 83 80 78 75 72 73 74 74 74 77 84 77 76 78 78 75 73 76 81 84 85 87 90 93 94 93 95 98 102 101 108 111 105 101 91 87 82 69 70 69
87 84 84 84 84 84 78 80 82 78 77 78 79 77 88 79 79 82 80 75 70 75 77 77 75 74 72 74 75 80 83 84 90 99 105 106 104 102 99 90 87 73 63 67
89 86 88 92 92 90 91 90 88 82 79 77 83 79 90 85 85 83 79 78 79 74 69 62 57 55 58 63 67 69 72 73 76 84 91 98 98 99 98 92 87 80 57 61
98 99 99 98 95 98 95 95 87 80 80 80 85 87 83 87 85 81 77 77 76 68 57 53 50 48 49 54 58 58 60 65 67 71 76 85 86 92 96 90 85 81 62 59
102 104 101 97 100 100 96 89 88 86 82 80 84 90 83 86 86 83 78 75 69 58 51 46 43 41 43 44 48 51 54 57 60 63 68 75 76 81 87 84 79 80 64 59
109 107 107 106 103 99 98 94 92 88 83 84 87 86 85 82 78 73 74 70 61 53 45 39 41 40 39 37 41 46 49 52 50 53 58 64 66 71 73 73 72 66 58 58
116 108 109 102 100 100 98 98 94 94 91 78 81 85 78 78 73 71 67 62 50 48 40 35 31 32 35 32 34 39 43 47 46 48 45 49 55 63 65 60 60 54 58 61
106 102 106 100 89 91 89 86 86 79 71 67 71 71 70 68 68 65 62 53 42 42 37 31 32 26 26 27 23 32 36 40 40 39 32 41 50 56 54 52 57 66 58 57
102 89 86 81 70 60 60 58 55 56 57 57 59 59 59 61 63 61 56 45 36 36 34 33 32 27 24 24 22 28 32 31 31 30 27 39 48 49 49 69 71 62 60 66
82 75 61 54 40 41 38 42 38 40 43 48 49 50 55 60 60 58 45 37 31 32 29 32 31 27 27 24 25 27 26 21 21 21 26 38 45 51 81 86 76 63 54 42
67 53 42 31 30 25 26 25 25 31 43 50 46 44 52 58 57 53 39 32 26 25 28 31 32 27 28 23 25 17 22 18 20 22 31 37 53 87 90 88 76 74 62 58
48 28 23 26 26 25 22 17 25 36 46 47 38 45 50 53 55 50 35 27 24 20 24 31 34 30 31 27 24 22 17 18 21 29 34 48 78 86 82 74 66 77 68 55
37 22 24 34 28 23 21 20 29 39 41 37 39 48 51 49 51 50 38 27 28 21 25 29 28 33 33 26 18 17 16 19 26 33 47 58 75 83 76 71 75 70 69 67
30 30 33 35 26 19 19 23 37 40 36 35 41 49 51 50 47 47 41 29 27 20 24 28 29 32 31 17 14 9 13 21 25 39 47 61 73 73 77 86 79 75 80 84
31 35 40 33 26 21 20 28 41 39 37 35 44 50 51 52 48 45 41 35 26 23 20 27 26 29 29 16 10 10 15 23 28 41 52 63 74 77 80 72 75 71 76 80
36 42 38 30 24 26 22 34 34 42 38 40 47 49 51 53 51 47 41 38 31 29 21 25 23 23 21 16 12 10 17 26 30 43 53 61 67 70 69 70 77 84 89 89
39 33 32 29 29 31 28 32 39 42 36 44 48 47 53 54 54 52 43 39 35 32 25 26 26 22 18 18 15 12 13 29 36 48 60 69 70 70 75 81 84 88 94 99
38 35 34 32 30 26 27 34 38 40 40 48 49 50 55 56 57 54 49 40 37 37 34 30 30 28 22 21 19 18 15 30 43 48 64 70 77 79 81 89 89 96 100 99
37 34 30 35 33 32 33 37 42 41 43 48 50 55 57 57 59 56 54 46 37 39 40 33 32 32 28 23 20 23 23 27 44 50 57 70 79 81 81 85 91 93 96 98
39 38 37 36 36 35 39 45 45 44 47 51 56 59 60 60 61 58 55 47 39 38 44 39 38 33 32 28 27 23 34 34 42 59 63 69 80 87 84 81 92 87 83 91
40 35 36 37 37 37 45 45 46 49 51 56 61 62 63 65 61 60 53 45 39 39 43 46 43 40 38 36 34 30 30 44 50 60 68 65 64 70 83 90 88 90 93 84
38 36 34 35 38 42 42 46 49 53 57 63 63 66 68 65 60 55 49 44 39 40 44 48 50 48 43 40 40 41 38 37 46 61 66 69 70 71 74 86 87 94 103 101
41 37 36 38 42 42 45 49 53 59 64 65 69 71 69 61 53 47 47 45 41 39 43 49 51 55 53 51 48 47 48 49 48 53 59 66 80 80 76 76 80 86 96 104
39 36 37 39 42 46 50 54 59 62 64 70 72 72 63 53 48 45 45 46 43 42 43 47 53 56 60 61 60 58 57 57 57 58 60 62 65 67 70 73 77 81 93 97
35 37 38 41 45 50 54 59 61 66 70 72 69 64 57 50 44 41 42 43 44 44 44 46 53 57 59 65 67 66 66 66 68 69 69 69 71 73 76 78 82 85 84 87

GFSCGP_250_spd_132.txt.gz
Wind_Speed
78 76 78 79 78 77 79 79 80 83 85 85 84 88 85 80 79 75 76 78 75 71 73 76 77 80 83 87 86 87 89 92 98 98 96 96 93 90 93 90 89 79 67 55
80 79 81 81 82 82 82 83 85 87 89 89 93 94 90 87 81 79 79 82 75 78 76 73 73 75 77 79 82 84 85 86 89 94 94 94 92 86 87 92 89 89 79 68
83 81 85 85 86 87 87 88 88 88 88 93 94 94 90 88 86 84 84 78 79 78 75 69 71 74 75 73 74 76 77 77 79 82 87 93 94 90 82 87 90 89 84 75
82 84 85 86 88 92 92 94 94 95 99 99 99 95 96 89 86 88 85 83 82 78 70 67 70 69 64 62 65 66 67 68 69 69 70 77 83 88 87 83 85 86 87 83
85 88 89 90 95 98 98 100 100 104 106 103 98 101 92 90 85 88 88 87 81 75 70 71 66 61 57 56 55 56 56 59 62 61 56 63 69 78 78 83 83 82 83 85
91 94 97 100 102 105 107 107 107 107 102 95 96 98 87 88 90 89 88 83 76 69 67 64 58 57 49 45 48 49 51 50 54 58 56 56 60 68 71 76 77 80 77 82
95 97 102 104 104 107 111 111 109 106 103 97 94 91 86 86 85 80 75 74 72 62 61 59 55 51 42 45 46 46 47 48 46 51 53 48 50 58 67 70 73 72 76 80
101 100 109 111 112 111 109 113 102 98 89 81 81 77 74 70 64 59 64 68 62 57 56 54 49 43 42 41 43 44 44 43 44 43 47 46 45 52 59 66 69 67 70 79
107 105 110 114 114 113 100 99 90 81 72 63 58 56 52 49 46 53 58 60 55 54 51 46 41 40 34 28 29 29 35 39 39 41 42 39 42 42 53 59 60 61 67 75
112 106 110 112 100 90 90 84 64 55 51 43 37 35 36 34 46 50 54 53 50 50 46 39 37 37 28 25 28 27 32 31 38 41 34 27 31 35 48 57 56 61 69 72
111 102 96 98 90 72 63 56 51 45 32 30 26 18 34 36 45 48 51 47 46 46 40 33 31 36 30 24 29 28 32 29 41 40 30 23 24 39 45 45 55 63 72 76
96 89 89 85 64 53 45 40 42 32 27 22 20 21 32 41 45 44 49 43 44 43 39 30 29 35 35 29 26 26 27 24 34 37 30 21 24 31 37 50 58 69 79 92
89 81 68 58 50 42 32 32 26 29 22 22 13 24 38 42 38 45 48 42 41 40 38 30 28 32 31 35 31 25 21 23 24 26 19 18 25 27 38 53 71 84 90 88
86 64 47 47 44 37 34 32 31 26 23 16 22 32 36 37 38 46 47 45 41 40 36 28 27 29 29 31 32 20 16 21 16 15 18 23 29 34 44 65 87 92 88 84
59 47 43 42 42 42 33 35 32 28 22 13 30 35 37 33 41 47 46 45 42 43 35 30 28 27 26 30 26 20 16 14 14 19 28 29 38 46 61 82 93 97 90 82
45 41 40 41 45 39 33 34 31 26 18 15 27 38 40 36 43 47 46 45 42 41 39 31 29 28 23 25 26 19 14 18 16 22 30 43 60 64 71 72 85 85 89 89
40 39 41 40 39 35 35 34 30 22 23 21 29 36 39 36 45 46 46 48 46 44 39 36 27 29 23 20 22 24 16 14 17 24 33 42 60 71 81 80 87 88 85 83
41 38 40 42 41 35 41 35 30 27 25 26 32 37 36 41 46 47 48 50 49 48 45 40 33 29 28 22 20 21 20 12 17 23 28 42 54 63 80 84 86 87 88 86
42 40 41 39 37 36 35 32 31 29 25 30 32 35 39 44 48 49 52 53 53 52 50 45 38 31 30 28 22 21 20 14 18 27 33 43 55 58 68 77 76 75 85 83
39 39 43 39 32 36 36 34 37 34 32 33 36 40 45 49 51 53 56 56 57 55 54 50 43 35 31 31 29 23 23 18 17 28 33 47 59 63 68 77 77 78 79 81
42 39 34 32 30 34 37 37 36 35 34 37 42 48 52 54 56 59 61 61 61 61 59 53 43 38 36 34 34 30 26 23 22 25 39 53 64 67 71 78 79 84 82 87
40 39 38 34 33 33 34 37 37 37 37 40 46 50 55 58 61 64 65 65 65 64 59 51 43 40 39 39 39 36 31 31 29 31 39 49 60 73 79 84 90 92 100 101
40 42 41 38 35 38 37 35 36 36 42 46 50 53 58 63 66 69 68 69 66 60 52 47 43 41 41 45 45 42 41 38 37 38 40 53 62 72 80 87 90 96 100 102
37 41 40 40 39 35 34 35 38 43 46 51 54 60 62 66 69 71 72 68 60 52 48 45 43 42 43 46 51 50 49 47 44 44 49 56 64 71 80 87 94 102 100 95
33 41 38 41 39 38 39 40 41 45 50 56 60 63 66 70 74 72 65 58 52 49 46 44 44 43 45 48 51 55 55 53 52 52 52 60 63 73 82 88 93 98 104 106
34 34 38 39 36 38 38 40 45 51 55 58 62 67 71 74 68 62 55 51 46 43 42 42 44 44 46 50 54 56 58 62 60 60 62 63 66 73 79 84 90 94 99 103

GFSCGP_250_spd_135.txt.gz
Wind_Speed
71 76 86 87 85 82 81 81 81 83 84 82 80 77 78 80 82 84 88 92 92 89 83 81 79 76 78 78 80 81 81 83 87 89 90 93 92 89 81 78 84 88 87 84
77 82 86 85 84 83 83 81 80 81 84 84 83 83 83 84 88 91 94 97 94 87 83 82 80 81 79 79 78 77 77 76 77 79 81 84 87 89 84 76 73 81 89 87
90 90 91 91 87 86 85 82 83 81 84 87 90 88 90 92 94 96 99 98 96 90 85 85 85 82 80 74 71 70 70 71 74 74 74 78 82 89 90 83 74 76 80 86
92 96 98 93 90 89 85 88 88 88 90 93 95 93 94 97 99 101 100 99 93 89 87 86 87 88 77 69 66 66 68 68 68 68 65 63 66 72 79 83 79 73 77 81
95 95 94 91 92 93 92 93 95 94 94 95 97 104 96 102 102 101 99 91 89 84 83 85 85 76 67 65 64 66 62 62 62 60 59 57 55 61 67 68 75 74 75 79
91 91 90 91 93 94 94 95 94 94 98 100 102 106 101 103 99 93 90 85 79 72 76 77 73 63 63 62 61 57 56 58 57 52 55 52 51 53 57 61 67 71 71 80
91 92 94 93 93 98 98 99 100 103 105 105 104 105 100 94 87 85 79 71 63 61 61 63 60 58 58 58 52 46 52 52 51 47 48 48 51 50 49 55 62 67 68 76
89 90 96 95 95 96 101 105 108 107 105 106 104 95 91 86 79 70 61 52 46 49 53 56 55 53 53 51 45 41 46 46 47 43 41 43 47 48 48 46 56 62 68 75
94 89 95 98 100 101 102 106 106 106 100 93 87 79 69 66 61 49 38 34 38 43 53 52 52 52 48 45 41 35 36 38 44 37 39 40 42 39 39 45 53 61 62 70
97 93 95 100 104 106 104 97 97 92 90 79 67 60 56 54 41 25 25 28 35 45 52 47 50 49 44 41 42 33 34 37 41 33 36 38 34 21 39 45 50 54 56 67
101 95 91 100 107 104 96 80 81 84 70 55 50 46 43 39 24 22 22 30 38 45 48 43 47 43 39 39 40 35 30 34 33 26 30 36 28 24 32 38 41 42 49 61
98 91 86 84 90 79 75 76 82 65 52 45 39 31 35 31 24 19 24 33 36 41 47 40 44 38 37 39 37 34 27 28 27 21 31 32 24 20 22 31 35 41 48 59
94 92 88 87 89 84 81 79 64 53 42 37 31 33 35 27 21 20 28 32 36 42 44 37 40 37 34 38 36 30 30 27 24 21 25 28 25 17 17 22 31 40 50 59
95 95 90 89 88 87 74 61 51 42 35 31 29 35 30 22 19 27 28 32 39 43 42 38 36 36 33 33 35 30 27 29 23 21 21 24 22 15 17 20 25 35 45 59
95 91 97 89 81 69 53 48 42 38 37 31 36 33 30 18 25 31 29 35 40 43 42 39 36 35 35 31 32 30 20 18 24 20 18 17 19 20 22 26 31 39 43 58
95 90 75 68 56 47 42 41 41 43 42 34 35 35 30 20 24 30 34 38 43 44 44 42 36 35 35 32 31 27 27 17 21 12 14 14 15 20 28 24 30 44 53 72
80 63 52 38 48 39 32 43 41 43 41 36 39 33 26 20 23 30 34 38 45 46 45 45 40 38 38 37 31 28 25 25 17 16 13 17 23 27 33 39 43 52 58 78
57 49 39 35 46 34 36 41 43 41 41 38 39 34 30 24 28 31 36 42 47 47 46 48 45 43 42 43 38 30 26 26 24 15 12 26 25 31 34 40 52 61 73 81
48 42 38 36 42 35 35 42 46 39 42 41 40 36 33 33 34 36 40 44 47 48 48 50 50 49 47 47 43 36 31 26 26 22 17 18 35 36 37 44 58 66 74 82
43 42 37 37 36 33 35 40 43 39 41 37 39 38 41 42 41 42 45 50 50 50 51 53 55 55 54 51 48 38 35 31 27 26 23 17 20 30 40 47 56 67 76 81
40 37 32 32 28 31 37 36 40 38 36 37 39 42 45 43 44 46 51 54 54 54 57 57 57 59 58 55 48 40 37 35 32 28 24 22 21 27 37 48 57 69 75 82
30 28 29 28 26 28 27 29 34 33 36 40 41 44 46 46 47 51 55 58 59 60 60 61 64 64 60 52 45 41 39 39 37 35 32 29 27 29 37 50 60 72 76 86
24 26 25 26 24 25 27 29 30 33 39 40 44 47 48 49 52 55 59 63 64 65 67 68 65 59 52 47 43 42 41 42 41 40 39 35 33 36 42 54 65 69 75 83
25 24 24 22 28 29 26 28 34 38 40 43 44 47 50 52 55 59 64 67 69 73 73 65 57 51 47 45 43 43 43 44 47 47 45 44 42 41 46 56 68 75 81 84
23 22 22 22 24 30 31 34 38 42 42 43 47 48 49 54 60 65 67 70 76 73 66 58 52 47 44 44 44 44 45 47 49 52 51 51 51 49 50 59 71 82 88 94
28 26 21 23 31 37 39 40 44 43 45 46 46 49 55 61 65 68 72 75 71 63 58 50 45 42 41 42 44 45 47 49 50 53 55 57 58 59 60 62 69 83 92 98

GFSCGP_250_spd_138.txt.gz
Wind_Speed
67 68 74 76 78 76 74 74 77 89 87 87 90 87 81 78 78 78 79 81 86 87 87 88 89 90 90 88 87 84 84 82 77 77 78 84 88 93 93 89 84 75 72 80
76 79 77 78 78 76 77 81 86 89 91 91 91 84 80 82 83 86 88 88 90 91 92 93 93 91 89 88 85 86 85 81 77 73 75 77 78 83 85 85 78 74 72 72
82 84 82 78 79 82 86 87 88 90 90 89 87 81 82 85 88 90 91 94 96 97 97 93 93 92 88 84 85 84 82 77 72 68 66 67 70 76 80 78 79 75 72 70
88 88 87 90 90 89 85 89 90 91 93 92 89 86 83 91 93 93 97 100 100 99 94 93 90 85 81 82 81 79 75 68 66 63 61 65 69 69 70 71 76 75 77 72
88 90 93 92 88 90 90 92 93 92 94 92 92 97 90 90 94 100 105 103 102 97 93 88 84 82 80 75 72 70 64 64 62 63 63 66 63 62 62 62 63 67 70 75
90 92 91 91 92 90 90 93 93 93 93 91 94 99 89 93 97 101 99 99 98 91 86 85 78 70 63 62 64 60 59 62 61 60 60 63 58 56 54 54 55 57 62 69
88 92 90 91 92 94 95 95 95 94 94 95 93 94 92 95 100 102 95 91 88 84 79 64 54 46 51 58 60 55 55 55 54 52 56 54 50 51 48 49 50 52 56 63
89 93 92 94 95 96 96 97 99 98 93 91 92 92 93 92 89 87 88 86 77 69 55 35 34 42 49 54 56 50 52 52 46 51 53 52 47 47 49 48 46 52 53 59
92 91 96 98 100 100 98 96 97 99 96 87 83 77 73 76 81 82 78 67 57 44 30 28 33 42 48 51 51 47 48 45 43 47 52 55 48 47 47 45 43 46 51 60
96 94 98 103 104 103 100 97 96 99 90 83 76 74 76 76 73 63 54 47 38 28 22 26 35 43 44 49 49 46 43 40 40 43 48 48 47 46 45 39 35 46 51 58
101 99 98 102 103 99 100 100 99 89 86 81 79 80 79 68 55 46 39 30 27 19 21 27 34 43 42 45 49 46 38 36 35 35 39 40 41 44 47 35 32 39 40 38
103 98 96 92 95 92 91 91 90 86 85 85 84 73 67 58 45 34 26 26 19 17 24 29 36 41 40 39 45 43 37 33 33 33 33 36 38 42 36 33 25 34 32 32
99 94 89 82 83 83 86 87 86 87 82 85 72 55 52 47 36 24 23 22 17 22 28 34 38 40 35 35 38 43 37 34 34 34 31 31 37 35 32 28 19 21 27 33
90 79 75 70 75 79 83 90 86 83 80 67 51 45 43 38 32 27 25 21 19 29 31 37 42 38 34 34 33 36 40 34 32 32 28 29 29 24 25 20 20 17 26 36
75 69 73 76 79 82 83 83 90 75 61 50 41 33 37 35 32 30 28 22 23 33 33 39 45 41 37 34 34 33 34 39 34 31 29 25 22 26 22 15 16 18 29 37
72 76 80 79 80 79 74 79 67 59 45 36 36 32 31 35 36 32 26 26 25 32 37 41 44 42 38 36 37 35 33 33 36 31 21 24 29 23 20 20 15 19 28 36
77 80 82 77 79 80 63 60 54 44 38 34 33 36 33 37 37 33 29 30 30 33 38 42 43 41 38 38 39 40 38 36 34 36 26 19 26 18 15 19 20 21 22 34
78 82 79 73 75 56 50 48 46 36 37 34 35 36 36 36 37 35 32 36 36 38 40 43 44 43 41 41 42 42 44 41 41 37 37 25 26 28 21 22 24 26 32 32
83 83 74 59 51 43 43 45 41 33 39 35 36 37 40 38 37 37 40 40 40 41 44 49 49 44 44 45 46 46 47 48 45 45 36 34 25 34 33 31 32 31 30 37
81 61 51 47 42 39 43 43 38 32 39 35 34 35 41 37 38 40 41 41 46 48 51 54 51 48 49 49 49 52 52 53 51 46 40 37 33 28 34 41 42 36 35 44
59 42 40 40 34 32 40 36 30 28 34 33 31 31 39 38 40 40 41 44 49 54 57 55 53 53 55 55 55 57 57 55 52 45 40 40 39 33 30 30 39 43 48 37
37 35 31 29 25 28 28 28 23 21 26 28 27 31 35 36 37 40 44 49 54 57 57 56 58 61 61 62 62 61 57 53 48 45 42 42 43 39 34 33 35 35 42 43
31 28 21 23 20 20 15 12 15 16 20 23 26 29 32 34 39 45 49 53 56 55 58 62 65 66 68 68 64 57 51 50 47 45 44 44 46 44 41 38 37 39 40 44
24 21 22 17 16 14 14 15 17 17 19 22 24 28 34 39 44 50 53 53 55 59 63 66 69 71 69 64 57 51 49 48 47 46 46 47 49 51 49 47 44 43 46 48
22 20 18 17 12 14 15 18 16 18 21 25 30 34 39 45 50 52 52 56 61 63 66 70 72 70 63 58 53 48 46 47 47 48 48 48 51 54 55 54 52 50 52 56
22 20 16 12 14 16 15 16 20 24 27 32 36 41 45 47 48 51 56 59 63 68 70 71 68 63 59 52 47 43 43 44 46 48 50 51 53 56 59 60 59 58 58 59